<?xml version="1.0" encoding="UTF-8" standalone="no" ?>
<gpx xmlns="http://www.topografix.com/GPX/1/1" xmlns:xsi="http://www.w3.org/2001/XMLSchema-instance" xsi:schemaLocation="http://www.topografix.com/GPX/1/1 http://www.topografix.com/GPX/1/1/gpx.xsd" version="1.1" creator="VisuGPX - https://www.visugpx.com">
  <metadata>
    <name>Ste Marie Campan Soum de Haillha</name>
    <desc><![CDATA[Pas de pluie Pas d\'orage
12 part   11km   1000m  6h
]]></desc>
  </metadata>
  <trk>
    <name><![CDATA[2014-07-01 Campan Soum Hailla]]></name>
    <desc><![CDATA[<h1>OruxMaps</h1><br /><hr align="center" width="480" style="height: 2px; width: 517px"/><h2>Nom: 2014-07-01 Campan Soum Hailla</h2><br /><p>Temps de départ: 07/01/2014 08:48</p><p>Temps d'arrivée: 07/01/2014 14:58</p><p>Distance: 10,9 km (06:09)</p><p>Temps déplacement: 03:48</p><p>Vitesse moyenne: 1,8 km/h</p><p>Vitesse moyenne: 2,9 km/h</p><p>Vitess Max.: 10,2 km/h</p><p>Altitude minimale: 910 m</p><p>Altitude maximale: 1892 m</p><p>Vitesse d'élévation: 310,5 m/h</p><p>Vitesse de descente: -520,7 m/h</p><p>Gain Altitude: 1008 m</p><p>Perte Altitude: -986 m</p><p>Temps d'élévation: 03:14</p><p>Temps de descente: 01:53</p><hr align="center" width="480" style="height: 2px; width: 517px"/>]]></desc>
    <trkseg>
      <trkpt lat="42.98245" lon="0.22294">
        <ele>910.31</ele>
        <time>2014-07-01T06:48:24Z</time>
      </trkpt>
      <trkpt lat="42.98244" lon="0.223">
        <ele>918.29</ele>
        <time>2014-07-01T06:49:33Z</time>
      </trkpt>
      <trkpt lat="42.98243" lon="0.22307">
        <ele>922.91</ele>
        <time>2014-07-01T06:49:42Z</time>
      </trkpt>
      <trkpt lat="42.98241" lon="0.22313">
        <ele>923.12</ele>
        <time>2014-07-01T06:50:25Z</time>
      </trkpt>
      <trkpt lat="42.98238" lon="0.22317">
        <ele>927.53</ele>
        <time>2014-07-01T06:50:38Z</time>
      </trkpt>
      <trkpt lat="42.98234" lon="0.22321">
        <ele>933.2</ele>
        <time>2014-07-01T06:51:02Z</time>
      </trkpt>
      <trkpt lat="42.98231" lon="0.22326">
        <ele>937.98</ele>
        <time>2014-07-01T06:51:10Z</time>
      </trkpt>
      <trkpt lat="42.98227" lon="0.22331">
        <ele>940.12</ele>
        <time>2014-07-01T06:51:15Z</time>
      </trkpt>
      <trkpt lat="42.98224" lon="0.22338">
        <ele>942.17</ele>
        <time>2014-07-01T06:51:29Z</time>
      </trkpt>
      <trkpt lat="42.98221" lon="0.22343">
        <ele>944.46</ele>
        <time>2014-07-01T06:51:33Z</time>
      </trkpt>
      <trkpt lat="42.98218" lon="0.22348">
        <ele>946.5</ele>
        <time>2014-07-01T06:51:37Z</time>
      </trkpt>
      <trkpt lat="42.98214" lon="0.22352">
        <ele>948.09</ele>
        <time>2014-07-01T06:51:46Z</time>
      </trkpt>
      <trkpt lat="42.9821" lon="0.22356">
        <ele>951.28</ele>
        <time>2014-07-01T06:51:55Z</time>
      </trkpt>
      <trkpt lat="42.98206" lon="0.22358">
        <ele>953.11</ele>
        <time>2014-07-01T06:52:03Z</time>
      </trkpt>
      <trkpt lat="42.98202" lon="0.22362">
        <ele>950.3</ele>
        <time>2014-07-01T06:52:11Z</time>
      </trkpt>
      <trkpt lat="42.98198" lon="0.22365">
        <ele>946.63</ele>
        <time>2014-07-01T06:52:19Z</time>
      </trkpt>
      <trkpt lat="42.98193" lon="0.22366">
        <ele>945.79</ele>
        <time>2014-07-01T06:52:27Z</time>
      </trkpt>
      <trkpt lat="42.98189" lon="0.22367">
        <ele>945.55</ele>
        <time>2014-07-01T06:52:35Z</time>
      </trkpt>
      <trkpt lat="42.98184" lon="0.22368">
        <ele>944.86</ele>
        <time>2014-07-01T06:52:42Z</time>
      </trkpt>
      <trkpt lat="42.98179" lon="0.22369">
        <ele>946.38</ele>
        <time>2014-07-01T06:52:49Z</time>
      </trkpt>
      <trkpt lat="42.98175" lon="0.22369">
        <ele>947.01</ele>
        <time>2014-07-01T06:52:57Z</time>
      </trkpt>
      <trkpt lat="42.9817" lon="0.22371">
        <ele>945.97</ele>
        <time>2014-07-01T06:53:05Z</time>
      </trkpt>
      <trkpt lat="42.98166" lon="0.22374">
        <ele>946.72</ele>
        <time>2014-07-01T06:53:19Z</time>
      </trkpt>
      <trkpt lat="42.98162" lon="0.22378">
        <ele>946.85</ele>
        <time>2014-07-01T06:53:24Z</time>
      </trkpt>
      <trkpt lat="42.98158" lon="0.22382">
        <ele>946.37</ele>
        <time>2014-07-01T06:53:30Z</time>
      </trkpt>
      <trkpt lat="42.98155" lon="0.22386">
        <ele>944.95</ele>
        <time>2014-07-01T06:53:37Z</time>
      </trkpt>
      <trkpt lat="42.98152" lon="0.22391">
        <ele>946.39</ele>
        <time>2014-07-01T06:53:43Z</time>
      </trkpt>
      <trkpt lat="42.98148" lon="0.22394">
        <ele>945.26</ele>
        <time>2014-07-01T06:53:51Z</time>
      </trkpt>
      <trkpt lat="42.98144" lon="0.22397">
        <ele>946.64</ele>
        <time>2014-07-01T06:54:00Z</time>
      </trkpt>
      <trkpt lat="42.9814" lon="0.224">
        <ele>947.09</ele>
        <time>2014-07-01T06:54:10Z</time>
      </trkpt>
      <trkpt lat="42.98135" lon="0.22401">
        <ele>948.79</ele>
        <time>2014-07-01T06:54:19Z</time>
      </trkpt>
      <trkpt lat="42.98131" lon="0.22403">
        <ele>948.87</ele>
        <time>2014-07-01T06:54:30Z</time>
      </trkpt>
      <trkpt lat="42.98126" lon="0.22406">
        <ele>950.17</ele>
        <time>2014-07-01T06:54:39Z</time>
      </trkpt>
      <trkpt lat="42.98122" lon="0.22408">
        <ele>950.94</ele>
        <time>2014-07-01T06:54:48Z</time>
      </trkpt>
      <trkpt lat="42.98118" lon="0.22411">
        <ele>951.87</ele>
        <time>2014-07-01T06:54:57Z</time>
      </trkpt>
      <trkpt lat="42.98113" lon="0.22414">
        <ele>953.26</ele>
        <time>2014-07-01T06:55:06Z</time>
      </trkpt>
      <trkpt lat="42.98113" lon="0.2242">
        <ele>953.87</ele>
        <time>2014-07-01T06:55:32Z</time>
      </trkpt>
      <trkpt lat="42.98113" lon="0.22426">
        <ele>954.32</ele>
        <time>2014-07-01T06:55:39Z</time>
      </trkpt>
      <trkpt lat="42.98112" lon="0.22433">
        <ele>955.31</ele>
        <time>2014-07-01T06:55:46Z</time>
      </trkpt>
      <trkpt lat="42.98111" lon="0.2244">
        <ele>956.26</ele>
        <time>2014-07-01T06:55:53Z</time>
      </trkpt>
      <trkpt lat="42.9811" lon="0.22446">
        <ele>957.92</ele>
        <time>2014-07-01T06:56:00Z</time>
      </trkpt>
      <trkpt lat="42.98105" lon="0.22449">
        <ele>960.35</ele>
        <time>2014-07-01T06:57:16Z</time>
      </trkpt>
      <trkpt lat="42.981" lon="0.22451">
        <ele>961.65</ele>
        <time>2014-07-01T06:57:21Z</time>
      </trkpt>
      <trkpt lat="42.98094" lon="0.22451">
        <ele>961.69</ele>
        <time>2014-07-01T06:57:26Z</time>
      </trkpt>
      <trkpt lat="42.9809" lon="0.22452">
        <ele>962.3</ele>
        <time>2014-07-01T06:57:30Z</time>
      </trkpt>
      <trkpt lat="42.98084" lon="0.22453">
        <ele>963.34</ele>
        <time>2014-07-01T06:57:35Z</time>
      </trkpt>
      <trkpt lat="42.98079" lon="0.22454">
        <ele>963.9</ele>
        <time>2014-07-01T06:57:40Z</time>
      </trkpt>
      <trkpt lat="42.98075" lon="0.22457">
        <ele>963.6</ele>
        <time>2014-07-01T06:57:46Z</time>
      </trkpt>
      <trkpt lat="42.9807" lon="0.22458">
        <ele>962.89</ele>
        <time>2014-07-01T06:57:52Z</time>
      </trkpt>
      <trkpt lat="42.98066" lon="0.2246">
        <ele>963.83</ele>
        <time>2014-07-01T06:57:58Z</time>
      </trkpt>
      <trkpt lat="42.98061" lon="0.22462">
        <ele>964.96</ele>
        <time>2014-07-01T06:58:04Z</time>
      </trkpt>
      <trkpt lat="42.98056" lon="0.22464">
        <ele>964.92</ele>
        <time>2014-07-01T06:58:09Z</time>
      </trkpt>
      <trkpt lat="42.98051" lon="0.22465">
        <ele>963.85</ele>
        <time>2014-07-01T06:58:14Z</time>
      </trkpt>
      <trkpt lat="42.98046" lon="0.22466">
        <ele>963.79</ele>
        <time>2014-07-01T06:58:19Z</time>
      </trkpt>
      <trkpt lat="42.9804" lon="0.22468">
        <ele>964.01</ele>
        <time>2014-07-01T06:58:24Z</time>
      </trkpt>
      <trkpt lat="42.98035" lon="0.22471">
        <ele>963.14</ele>
        <time>2014-07-01T06:58:29Z</time>
      </trkpt>
      <trkpt lat="42.9803" lon="0.22472">
        <ele>963.48</ele>
        <time>2014-07-01T06:58:34Z</time>
      </trkpt>
      <trkpt lat="42.98025" lon="0.22473">
        <ele>964.07</ele>
        <time>2014-07-01T06:58:40Z</time>
      </trkpt>
      <trkpt lat="42.9802" lon="0.22473">
        <ele>965.75</ele>
        <time>2014-07-01T06:58:46Z</time>
      </trkpt>
      <trkpt lat="42.98015" lon="0.22474">
        <ele>966.77</ele>
        <time>2014-07-01T06:58:50Z</time>
      </trkpt>
      <trkpt lat="42.98011" lon="0.22475">
        <ele>965.91</ele>
        <time>2014-07-01T06:58:55Z</time>
      </trkpt>
      <trkpt lat="42.98005" lon="0.22476">
        <ele>964.62</ele>
        <time>2014-07-01T06:59:00Z</time>
      </trkpt>
      <trkpt lat="42.98001" lon="0.22479">
        <ele>965.1</ele>
        <time>2014-07-01T06:59:04Z</time>
      </trkpt>
      <trkpt lat="42.97996" lon="0.22479">
        <ele>968.41</ele>
        <time>2014-07-01T06:59:08Z</time>
      </trkpt>
      <trkpt lat="42.9799" lon="0.22477">
        <ele>968.99</ele>
        <time>2014-07-01T06:59:13Z</time>
      </trkpt>
      <trkpt lat="42.97986" lon="0.22478">
        <ele>967.13</ele>
        <time>2014-07-01T06:59:18Z</time>
      </trkpt>
      <trkpt lat="42.97981" lon="0.22479">
        <ele>966.78</ele>
        <time>2014-07-01T06:59:23Z</time>
      </trkpt>
      <trkpt lat="42.97975" lon="0.22478">
        <ele>966.31</ele>
        <time>2014-07-01T06:59:28Z</time>
      </trkpt>
      <trkpt lat="42.9797" lon="0.22476">
        <ele>967.99</ele>
        <time>2014-07-01T06:59:33Z</time>
      </trkpt>
      <trkpt lat="42.97966" lon="0.22475">
        <ele>970.75</ele>
        <time>2014-07-01T06:59:38Z</time>
      </trkpt>
      <trkpt lat="42.9796" lon="0.22476">
        <ele>972.29</ele>
        <time>2014-07-01T06:59:43Z</time>
      </trkpt>
      <trkpt lat="42.97955" lon="0.22477">
        <ele>972.35</ele>
        <time>2014-07-01T06:59:47Z</time>
      </trkpt>
      <trkpt lat="42.97951" lon="0.22475">
        <ele>972.94</ele>
        <time>2014-07-01T06:59:52Z</time>
      </trkpt>
      <trkpt lat="42.97946" lon="0.22478">
        <ele>973.23</ele>
        <time>2014-07-01T07:00:06Z</time>
      </trkpt>
      <trkpt lat="42.97941" lon="0.22477">
        <ele>975.62</ele>
        <time>2014-07-01T07:00:49Z</time>
      </trkpt>
      <trkpt lat="42.97937" lon="0.22481">
        <ele>975.55</ele>
        <time>2014-07-01T07:00:53Z</time>
      </trkpt>
      <trkpt lat="42.97933" lon="0.22483">
        <ele>976.29</ele>
        <time>2014-07-01T07:00:59Z</time>
      </trkpt>
      <trkpt lat="42.97927" lon="0.22483">
        <ele>975.59</ele>
        <time>2014-07-01T07:01:05Z</time>
      </trkpt>
      <trkpt lat="42.97923" lon="0.22483">
        <ele>974.74</ele>
        <time>2014-07-01T07:01:09Z</time>
      </trkpt>
      <trkpt lat="42.97918" lon="0.22485">
        <ele>973.42</ele>
        <time>2014-07-01T07:01:13Z</time>
      </trkpt>
      <trkpt lat="42.97913" lon="0.22487">
        <ele>973.07</ele>
        <time>2014-07-01T07:01:18Z</time>
      </trkpt>
      <trkpt lat="42.97908" lon="0.22489">
        <ele>972.73</ele>
        <time>2014-07-01T07:01:23Z</time>
      </trkpt>
      <trkpt lat="42.97904" lon="0.2249">
        <ele>972.53</ele>
        <time>2014-07-01T07:01:28Z</time>
      </trkpt>
      <trkpt lat="42.97899" lon="0.22491">
        <ele>973.14</ele>
        <time>2014-07-01T07:01:34Z</time>
      </trkpt>
      <trkpt lat="42.97894" lon="0.22492">
        <ele>974.57</ele>
        <time>2014-07-01T07:01:40Z</time>
      </trkpt>
      <trkpt lat="42.97889" lon="0.22491">
        <ele>978</ele>
        <time>2014-07-01T07:01:46Z</time>
      </trkpt>
      <trkpt lat="42.97884" lon="0.22491">
        <ele>980.49</ele>
        <time>2014-07-01T07:01:51Z</time>
      </trkpt>
      <trkpt lat="42.97885" lon="0.22497">
        <ele>977.62</ele>
        <time>2014-07-01T07:02:22Z</time>
      </trkpt>
      <trkpt lat="42.97884" lon="0.22503">
        <ele>974.01</ele>
        <time>2014-07-01T07:02:53Z</time>
      </trkpt>
      <trkpt lat="42.97882" lon="0.22509">
        <ele>971.71</ele>
        <time>2014-07-01T07:03:00Z</time>
      </trkpt>
      <trkpt lat="42.97876" lon="0.2251">
        <ele>970.27</ele>
        <time>2014-07-01T07:03:05Z</time>
      </trkpt>
      <trkpt lat="42.97872" lon="0.22513">
        <ele>971.52</ele>
        <time>2014-07-01T07:03:10Z</time>
      </trkpt>
      <trkpt lat="42.97868" lon="0.22517">
        <ele>973.5</ele>
        <time>2014-07-01T07:03:16Z</time>
      </trkpt>
      <trkpt lat="42.97863" lon="0.2252">
        <ele>976.63</ele>
        <time>2014-07-01T07:03:22Z</time>
      </trkpt>
      <trkpt lat="42.97859" lon="0.22522">
        <ele>976.66</ele>
        <time>2014-07-01T07:03:27Z</time>
      </trkpt>
      <trkpt lat="42.97854" lon="0.22524">
        <ele>977.14</ele>
        <time>2014-07-01T07:03:33Z</time>
      </trkpt>
      <trkpt lat="42.9785" lon="0.22526">
        <ele>976.96</ele>
        <time>2014-07-01T07:03:39Z</time>
      </trkpt>
      <trkpt lat="42.97845" lon="0.22529">
        <ele>975.92</ele>
        <time>2014-07-01T07:03:44Z</time>
      </trkpt>
      <trkpt lat="42.9784" lon="0.22532">
        <ele>976.13</ele>
        <time>2014-07-01T07:03:50Z</time>
      </trkpt>
      <trkpt lat="42.97837" lon="0.22535">
        <ele>975.99</ele>
        <time>2014-07-01T07:03:55Z</time>
      </trkpt>
      <trkpt lat="42.97832" lon="0.2254">
        <ele>974.89</ele>
        <time>2014-07-01T07:04:01Z</time>
      </trkpt>
      <trkpt lat="42.97828" lon="0.22543">
        <ele>974.32</ele>
        <time>2014-07-01T07:04:06Z</time>
      </trkpt>
      <trkpt lat="42.97823" lon="0.22545">
        <ele>972.33</ele>
        <time>2014-07-01T07:04:11Z</time>
      </trkpt>
      <trkpt lat="42.97818" lon="0.22548">
        <ele>971.58</ele>
        <time>2014-07-01T07:04:15Z</time>
      </trkpt>
      <trkpt lat="42.97813" lon="0.22551">
        <ele>972.42</ele>
        <time>2014-07-01T07:04:20Z</time>
      </trkpt>
      <trkpt lat="42.97808" lon="0.22554">
        <ele>975.29</ele>
        <time>2014-07-01T07:04:25Z</time>
      </trkpt>
      <trkpt lat="42.97804" lon="0.22557">
        <ele>976.21</ele>
        <time>2014-07-01T07:04:30Z</time>
      </trkpt>
      <trkpt lat="42.978" lon="0.22562">
        <ele>974.89</ele>
        <time>2014-07-01T07:04:36Z</time>
      </trkpt>
      <trkpt lat="42.97803" lon="0.22556">
        <ele>974.95</ele>
        <time>2014-07-01T07:05:22Z</time>
      </trkpt>
      <trkpt lat="42.97807" lon="0.22554">
        <ele>975.76</ele>
        <time>2014-07-01T07:05:28Z</time>
      </trkpt>
      <trkpt lat="42.97811" lon="0.2255">
        <ele>974.69</ele>
        <time>2014-07-01T07:05:37Z</time>
      </trkpt>
      <trkpt lat="42.97815" lon="0.22546">
        <ele>974.74</ele>
        <time>2014-07-01T07:05:42Z</time>
      </trkpt>
      <trkpt lat="42.97819" lon="0.22543">
        <ele>976.21</ele>
        <time>2014-07-01T07:05:47Z</time>
      </trkpt>
      <trkpt lat="42.97823" lon="0.2254">
        <ele>978.45</ele>
        <time>2014-07-01T07:05:55Z</time>
      </trkpt>
      <trkpt lat="42.97826" lon="0.22535">
        <ele>977.78</ele>
        <time>2014-07-01T07:06:01Z</time>
      </trkpt>
      <trkpt lat="42.9783" lon="0.22532">
        <ele>980.4</ele>
        <time>2014-07-01T07:06:13Z</time>
      </trkpt>
      <trkpt lat="42.97833" lon="0.22528">
        <ele>981.17</ele>
        <time>2014-07-01T07:06:20Z</time>
      </trkpt>
      <trkpt lat="42.97837" lon="0.22525">
        <ele>981.08</ele>
        <time>2014-07-01T07:06:24Z</time>
      </trkpt>
      <trkpt lat="42.97841" lon="0.2252">
        <ele>980.63</ele>
        <time>2014-07-01T07:06:28Z</time>
      </trkpt>
      <trkpt lat="42.97845" lon="0.22515">
        <ele>978.2</ele>
        <time>2014-07-01T07:06:33Z</time>
      </trkpt>
      <trkpt lat="42.97849" lon="0.22512">
        <ele>976.51</ele>
        <time>2014-07-01T07:06:37Z</time>
      </trkpt>
      <trkpt lat="42.97847" lon="0.22506">
        <ele>975.89</ele>
        <time>2014-07-01T07:06:50Z</time>
      </trkpt>
      <trkpt lat="42.97843" lon="0.22502">
        <ele>973.7</ele>
        <time>2014-07-01T07:06:58Z</time>
      </trkpt>
      <trkpt lat="42.97839" lon="0.22499">
        <ele>975.55</ele>
        <time>2014-07-01T07:07:04Z</time>
      </trkpt>
      <trkpt lat="42.97834" lon="0.22495">
        <ele>978.04</ele>
        <time>2014-07-01T07:07:10Z</time>
      </trkpt>
      <trkpt lat="42.97831" lon="0.22491">
        <ele>980.07</ele>
        <time>2014-07-01T07:07:16Z</time>
      </trkpt>
      <trkpt lat="42.97828" lon="0.22486">
        <ele>981.89</ele>
        <time>2014-07-01T07:07:24Z</time>
      </trkpt>
      <trkpt lat="42.97825" lon="0.22481">
        <ele>981.78</ele>
        <time>2014-07-01T07:07:34Z</time>
      </trkpt>
      <trkpt lat="42.97821" lon="0.22476">
        <ele>981.57</ele>
        <time>2014-07-01T07:07:40Z</time>
      </trkpt>
      <trkpt lat="42.97817" lon="0.22473">
        <ele>981.25</ele>
        <time>2014-07-01T07:07:45Z</time>
      </trkpt>
      <trkpt lat="42.97813" lon="0.2247">
        <ele>980.86</ele>
        <time>2014-07-01T07:07:50Z</time>
      </trkpt>
      <trkpt lat="42.97809" lon="0.22465">
        <ele>981.36</ele>
        <time>2014-07-01T07:07:56Z</time>
      </trkpt>
      <trkpt lat="42.97805" lon="0.2246">
        <ele>981.15</ele>
        <time>2014-07-01T07:08:03Z</time>
      </trkpt>
      <trkpt lat="42.97801" lon="0.22458">
        <ele>983.39</ele>
        <time>2014-07-01T07:08:09Z</time>
      </trkpt>
      <trkpt lat="42.97796" lon="0.22455">
        <ele>984.56</ele>
        <time>2014-07-01T07:08:16Z</time>
      </trkpt>
      <trkpt lat="42.97792" lon="0.22452">
        <ele>988.47</ele>
        <time>2014-07-01T07:08:36Z</time>
      </trkpt>
      <trkpt lat="42.97788" lon="0.22449">
        <ele>990</ele>
        <time>2014-07-01T07:08:46Z</time>
      </trkpt>
      <trkpt lat="42.97784" lon="0.22445">
        <ele>991.55</ele>
        <time>2014-07-01T07:08:53Z</time>
      </trkpt>
      <trkpt lat="42.9778" lon="0.22446">
        <ele>992.53</ele>
        <time>2014-07-01T07:08:59Z</time>
      </trkpt>
      <trkpt lat="42.97775" lon="0.22444">
        <ele>991.9</ele>
        <time>2014-07-01T07:09:05Z</time>
      </trkpt>
      <trkpt lat="42.97771" lon="0.22441">
        <ele>993.68</ele>
        <time>2014-07-01T07:09:12Z</time>
      </trkpt>
      <trkpt lat="42.97765" lon="0.22441">
        <ele>993.32</ele>
        <time>2014-07-01T07:09:23Z</time>
      </trkpt>
      <trkpt lat="42.9776" lon="0.2244">
        <ele>992.49</ele>
        <time>2014-07-01T07:09:28Z</time>
      </trkpt>
      <trkpt lat="42.97755" lon="0.2244">
        <ele>991.09</ele>
        <time>2014-07-01T07:09:34Z</time>
      </trkpt>
      <trkpt lat="42.9775" lon="0.22437">
        <ele>991.03</ele>
        <time>2014-07-01T07:09:41Z</time>
      </trkpt>
      <trkpt lat="42.97747" lon="0.22433">
        <ele>992.2</ele>
        <time>2014-07-01T07:09:49Z</time>
      </trkpt>
      <trkpt lat="42.97743" lon="0.22429">
        <ele>998.78</ele>
        <time>2014-07-01T07:10:23Z</time>
      </trkpt>
      <trkpt lat="42.97739" lon="0.22424">
        <ele>1001.5</ele>
        <time>2014-07-01T07:10:41Z</time>
      </trkpt>
      <trkpt lat="42.97735" lon="0.2242">
        <ele>1003.57</ele>
        <time>2014-07-01T07:10:54Z</time>
      </trkpt>
      <trkpt lat="42.97733" lon="0.22414">
        <ele>1008</ele>
        <time>2014-07-01T07:10:59Z</time>
      </trkpt>
      <trkpt lat="42.97728" lon="0.2241">
        <ele>1008.03</ele>
        <time>2014-07-01T07:11:03Z</time>
      </trkpt>
      <trkpt lat="42.97724" lon="0.22408">
        <ele>1006.8</ele>
        <time>2014-07-01T07:11:06Z</time>
      </trkpt>
      <trkpt lat="42.97719" lon="0.22405">
        <ele>1007.3</ele>
        <time>2014-07-01T07:11:31Z</time>
      </trkpt>
      <trkpt lat="42.97715" lon="0.22404">
        <ele>1009.92</ele>
        <time>2014-07-01T07:11:50Z</time>
      </trkpt>
      <trkpt lat="42.9771" lon="0.22404">
        <ele>1010.84</ele>
        <time>2014-07-01T07:12:00Z</time>
      </trkpt>
      <trkpt lat="42.97706" lon="0.22405">
        <ele>1007.64</ele>
        <time>2014-07-01T07:12:13Z</time>
      </trkpt>
      <trkpt lat="42.97701" lon="0.22402">
        <ele>1007.2</ele>
        <time>2014-07-01T07:12:22Z</time>
      </trkpt>
      <trkpt lat="42.97698" lon="0.22398">
        <ele>1010.28</ele>
        <time>2014-07-01T07:12:28Z</time>
      </trkpt>
      <trkpt lat="42.97692" lon="0.22393">
        <ele>1011.28</ele>
        <time>2014-07-01T07:12:37Z</time>
      </trkpt>
      <trkpt lat="42.97688" lon="0.22388">
        <ele>1013.54</ele>
        <time>2014-07-01T07:12:44Z</time>
      </trkpt>
      <trkpt lat="42.97684" lon="0.22385">
        <ele>1015.19</ele>
        <time>2014-07-01T07:12:52Z</time>
      </trkpt>
      <trkpt lat="42.97679" lon="0.22385">
        <ele>1017.05</ele>
        <time>2014-07-01T07:13:03Z</time>
      </trkpt>
      <trkpt lat="42.97674" lon="0.22386">
        <ele>1016.49</ele>
        <time>2014-07-01T07:13:13Z</time>
      </trkpt>
      <trkpt lat="42.9767" lon="0.22385">
        <ele>1018.89</ele>
        <time>2014-07-01T07:13:28Z</time>
      </trkpt>
      <trkpt lat="42.97666" lon="0.22382">
        <ele>1021.34</ele>
        <time>2014-07-01T07:13:38Z</time>
      </trkpt>
      <trkpt lat="42.97661" lon="0.22381">
        <ele>1023.94</ele>
        <time>2014-07-01T07:13:50Z</time>
      </trkpt>
      <trkpt lat="42.97657" lon="0.22378">
        <ele>1026.85</ele>
        <time>2014-07-01T07:14:02Z</time>
      </trkpt>
      <trkpt lat="42.97652" lon="0.22377">
        <ele>1027.6</ele>
        <time>2014-07-01T07:14:15Z</time>
      </trkpt>
      <trkpt lat="42.97648" lon="0.22376">
        <ele>1027.91</ele>
        <time>2014-07-01T07:14:25Z</time>
      </trkpt>
      <trkpt lat="42.97644" lon="0.22374">
        <ele>1031.78</ele>
        <time>2014-07-01T07:14:40Z</time>
      </trkpt>
      <trkpt lat="42.97639" lon="0.2237">
        <ele>1033.98</ele>
        <time>2014-07-01T07:14:49Z</time>
      </trkpt>
      <trkpt lat="42.97635" lon="0.22368">
        <ele>1034.17</ele>
        <time>2014-07-01T07:14:58Z</time>
      </trkpt>
      <trkpt lat="42.9763" lon="0.22367">
        <ele>1037.24</ele>
        <time>2014-07-01T07:15:07Z</time>
      </trkpt>
      <trkpt lat="42.97626" lon="0.22364">
        <ele>1038.45</ele>
        <time>2014-07-01T07:15:17Z</time>
      </trkpt>
      <trkpt lat="42.97621" lon="0.22362">
        <ele>1039.52</ele>
        <time>2014-07-01T07:15:26Z</time>
      </trkpt>
      <trkpt lat="42.97617" lon="0.22362">
        <ele>1041</ele>
        <time>2014-07-01T07:15:37Z</time>
      </trkpt>
      <trkpt lat="42.97613" lon="0.22357">
        <ele>1043.47</ele>
        <time>2014-07-01T07:15:49Z</time>
      </trkpt>
      <trkpt lat="42.97609" lon="0.22356">
        <ele>1043.95</ele>
        <time>2014-07-01T07:16:01Z</time>
      </trkpt>
      <trkpt lat="42.97605" lon="0.22353">
        <ele>1044.93</ele>
        <time>2014-07-01T07:16:11Z</time>
      </trkpt>
      <trkpt lat="42.976" lon="0.22354">
        <ele>1045.74</ele>
        <time>2014-07-01T07:16:25Z</time>
      </trkpt>
      <trkpt lat="42.97596" lon="0.22352">
        <ele>1047.01</ele>
        <time>2014-07-01T07:16:38Z</time>
      </trkpt>
      <trkpt lat="42.97591" lon="0.22352">
        <ele>1047.61</ele>
        <time>2014-07-01T07:16:51Z</time>
      </trkpt>
      <trkpt lat="42.97586" lon="0.2235">
        <ele>1049.88</ele>
        <time>2014-07-01T07:17:03Z</time>
      </trkpt>
      <trkpt lat="42.97582" lon="0.2235">
        <ele>1051</ele>
        <time>2014-07-01T07:17:22Z</time>
      </trkpt>
      <trkpt lat="42.97577" lon="0.2235">
        <ele>1052.15</ele>
        <time>2014-07-01T07:17:31Z</time>
      </trkpt>
      <trkpt lat="42.97572" lon="0.2235">
        <ele>1052.48</ele>
        <time>2014-07-01T07:17:46Z</time>
      </trkpt>
      <trkpt lat="42.97568" lon="0.22353">
        <ele>1053.17</ele>
        <time>2014-07-01T07:18:01Z</time>
      </trkpt>
      <trkpt lat="42.97563" lon="0.22352">
        <ele>1056.64</ele>
        <time>2014-07-01T07:18:11Z</time>
      </trkpt>
      <trkpt lat="42.97559" lon="0.2235">
        <ele>1058.02</ele>
        <time>2014-07-01T07:18:22Z</time>
      </trkpt>
      <trkpt lat="42.97554" lon="0.22349">
        <ele>1060.7</ele>
        <time>2014-07-01T07:18:32Z</time>
      </trkpt>
      <trkpt lat="42.97549" lon="0.2235">
        <ele>1061.2</ele>
        <time>2014-07-01T07:18:40Z</time>
      </trkpt>
      <trkpt lat="42.97545" lon="0.22348">
        <ele>1064.68</ele>
        <time>2014-07-01T07:18:50Z</time>
      </trkpt>
      <trkpt lat="42.9754" lon="0.22347">
        <ele>1066.53</ele>
        <time>2014-07-01T07:19:16Z</time>
      </trkpt>
      <trkpt lat="42.97535" lon="0.22346">
        <ele>1069.22</ele>
        <time>2014-07-01T07:19:28Z</time>
      </trkpt>
      <trkpt lat="42.97531" lon="0.22347">
        <ele>1071.26</ele>
        <time>2014-07-01T07:19:40Z</time>
      </trkpt>
      <trkpt lat="42.97526" lon="0.22347">
        <ele>1072.37</ele>
        <time>2014-07-01T07:20:07Z</time>
      </trkpt>
      <trkpt lat="42.97521" lon="0.22348">
        <ele>1073.76</ele>
        <time>2014-07-01T07:20:15Z</time>
      </trkpt>
      <trkpt lat="42.97517" lon="0.22348">
        <ele>1075.65</ele>
        <time>2014-07-01T07:20:24Z</time>
      </trkpt>
      <trkpt lat="42.97512" lon="0.22347">
        <ele>1076.41</ele>
        <time>2014-07-01T07:20:34Z</time>
      </trkpt>
      <trkpt lat="42.97507" lon="0.22347">
        <ele>1077.46</ele>
        <time>2014-07-01T07:20:43Z</time>
      </trkpt>
      <trkpt lat="42.97503" lon="0.2235">
        <ele>1078.97</ele>
        <time>2014-07-01T07:21:06Z</time>
      </trkpt>
      <trkpt lat="42.97498" lon="0.22349">
        <ele>1081</ele>
        <time>2014-07-01T07:21:14Z</time>
      </trkpt>
      <trkpt lat="42.97494" lon="0.22348">
        <ele>1083.12</ele>
        <time>2014-07-01T07:21:23Z</time>
      </trkpt>
      <trkpt lat="42.97489" lon="0.22348">
        <ele>1085.01</ele>
        <time>2014-07-01T07:21:33Z</time>
      </trkpt>
      <trkpt lat="42.97485" lon="0.22348">
        <ele>1086.09</ele>
        <time>2014-07-01T07:21:42Z</time>
      </trkpt>
      <trkpt lat="42.9748" lon="0.22347">
        <ele>1089.95</ele>
        <time>2014-07-01T07:22:03Z</time>
      </trkpt>
      <trkpt lat="42.97475" lon="0.22347">
        <ele>1089.91</ele>
        <time>2014-07-01T07:22:13Z</time>
      </trkpt>
      <trkpt lat="42.97471" lon="0.2235">
        <ele>1089.75</ele>
        <time>2014-07-01T07:22:21Z</time>
      </trkpt>
      <trkpt lat="42.97466" lon="0.2235">
        <ele>1090.82</ele>
        <time>2014-07-01T07:22:30Z</time>
      </trkpt>
      <trkpt lat="42.97462" lon="0.22352">
        <ele>1092.51</ele>
        <time>2014-07-01T07:24:12Z</time>
      </trkpt>
      <trkpt lat="42.97457" lon="0.22351">
        <ele>1093.32</ele>
        <time>2014-07-01T07:24:19Z</time>
      </trkpt>
      <trkpt lat="42.97452" lon="0.22351">
        <ele>1095.55</ele>
        <time>2014-07-01T07:24:28Z</time>
      </trkpt>
      <trkpt lat="42.97447" lon="0.22351">
        <ele>1095.58</ele>
        <time>2014-07-01T07:24:36Z</time>
      </trkpt>
      <trkpt lat="42.97443" lon="0.2235">
        <ele>1097.41</ele>
        <time>2014-07-01T07:24:44Z</time>
      </trkpt>
      <trkpt lat="42.97438" lon="0.22351">
        <ele>1098.66</ele>
        <time>2014-07-01T07:24:56Z</time>
      </trkpt>
      <trkpt lat="42.97434" lon="0.22351">
        <ele>1099.91</ele>
        <time>2014-07-01T07:25:06Z</time>
      </trkpt>
      <trkpt lat="42.97429" lon="0.2235">
        <ele>1100.28</ele>
        <time>2014-07-01T07:25:21Z</time>
      </trkpt>
      <trkpt lat="42.97425" lon="0.22353">
        <ele>1101.11</ele>
        <time>2014-07-01T07:25:32Z</time>
      </trkpt>
      <trkpt lat="42.9742" lon="0.22353">
        <ele>1103.74</ele>
        <time>2014-07-01T07:25:43Z</time>
      </trkpt>
      <trkpt lat="42.97415" lon="0.22353">
        <ele>1102.96</ele>
        <time>2014-07-01T07:25:57Z</time>
      </trkpt>
      <trkpt lat="42.9741" lon="0.22352">
        <ele>1104.53</ele>
        <time>2014-07-01T07:26:08Z</time>
      </trkpt>
      <trkpt lat="42.97405" lon="0.22351">
        <ele>1106.95</ele>
        <time>2014-07-01T07:26:18Z</time>
      </trkpt>
      <trkpt lat="42.97401" lon="0.2235">
        <ele>1109.44</ele>
        <time>2014-07-01T07:26:28Z</time>
      </trkpt>
      <trkpt lat="42.97396" lon="0.22349">
        <ele>1111.66</ele>
        <time>2014-07-01T07:26:36Z</time>
      </trkpt>
      <trkpt lat="42.97392" lon="0.22347">
        <ele>1113.59</ele>
        <time>2014-07-01T07:26:43Z</time>
      </trkpt>
      <trkpt lat="42.97387" lon="0.22345">
        <ele>1113.81</ele>
        <time>2014-07-01T07:26:51Z</time>
      </trkpt>
      <trkpt lat="42.97383" lon="0.22342">
        <ele>1114.74</ele>
        <time>2014-07-01T07:26:59Z</time>
      </trkpt>
      <trkpt lat="42.97379" lon="0.2234">
        <ele>1115.96</ele>
        <time>2014-07-01T07:27:07Z</time>
      </trkpt>
      <trkpt lat="42.97374" lon="0.22338">
        <ele>1117.28</ele>
        <time>2014-07-01T07:27:15Z</time>
      </trkpt>
      <trkpt lat="42.9737" lon="0.22337">
        <ele>1118.18</ele>
        <time>2014-07-01T07:27:23Z</time>
      </trkpt>
      <trkpt lat="42.97365" lon="0.22335">
        <ele>1118.56</ele>
        <time>2014-07-01T07:27:33Z</time>
      </trkpt>
      <trkpt lat="42.9736" lon="0.22334">
        <ele>1120.47</ele>
        <time>2014-07-01T07:27:43Z</time>
      </trkpt>
      <trkpt lat="42.97355" lon="0.22332">
        <ele>1123.3</ele>
        <time>2014-07-01T07:27:49Z</time>
      </trkpt>
      <trkpt lat="42.97351" lon="0.2233">
        <ele>1124.82</ele>
        <time>2014-07-01T07:27:54Z</time>
      </trkpt>
      <trkpt lat="42.97346" lon="0.22329">
        <ele>1125.4</ele>
        <time>2014-07-01T07:28:00Z</time>
      </trkpt>
      <trkpt lat="42.97342" lon="0.22327">
        <ele>1128.42</ele>
        <time>2014-07-01T07:28:06Z</time>
      </trkpt>
      <trkpt lat="42.97337" lon="0.22326">
        <ele>1130.38</ele>
        <time>2014-07-01T07:28:13Z</time>
      </trkpt>
      <trkpt lat="42.97332" lon="0.22326">
        <ele>1131.59</ele>
        <time>2014-07-01T07:28:20Z</time>
      </trkpt>
      <trkpt lat="42.97327" lon="0.22324">
        <ele>1132.61</ele>
        <time>2014-07-01T07:28:29Z</time>
      </trkpt>
      <trkpt lat="42.97323" lon="0.22321">
        <ele>1133.43</ele>
        <time>2014-07-01T07:28:38Z</time>
      </trkpt>
      <trkpt lat="42.97318" lon="0.2232">
        <ele>1134.84</ele>
        <time>2014-07-01T07:28:46Z</time>
      </trkpt>
      <trkpt lat="42.97313" lon="0.22319">
        <ele>1136.99</ele>
        <time>2014-07-01T07:28:53Z</time>
      </trkpt>
      <trkpt lat="42.97309" lon="0.22317">
        <ele>1138.2</ele>
        <time>2014-07-01T07:29:02Z</time>
      </trkpt>
      <trkpt lat="42.97304" lon="0.22314">
        <ele>1140.13</ele>
        <time>2014-07-01T07:29:11Z</time>
      </trkpt>
      <trkpt lat="42.97299" lon="0.22315">
        <ele>1140.31</ele>
        <time>2014-07-01T07:29:39Z</time>
      </trkpt>
      <trkpt lat="42.97295" lon="0.22314">
        <ele>1138.96</ele>
        <time>2014-07-01T07:29:46Z</time>
      </trkpt>
      <trkpt lat="42.9729" lon="0.22312">
        <ele>1139.71</ele>
        <time>2014-07-01T07:29:54Z</time>
      </trkpt>
      <trkpt lat="42.97286" lon="0.22311">
        <ele>1141.95</ele>
        <time>2014-07-01T07:30:02Z</time>
      </trkpt>
      <trkpt lat="42.97281" lon="0.22312">
        <ele>1144.57</ele>
        <time>2014-07-01T07:30:25Z</time>
      </trkpt>
      <trkpt lat="42.97276" lon="0.2231">
        <ele>1145.96</ele>
        <time>2014-07-01T07:30:34Z</time>
      </trkpt>
      <trkpt lat="42.97272" lon="0.22308">
        <ele>1147.51</ele>
        <time>2014-07-01T07:30:48Z</time>
      </trkpt>
      <trkpt lat="42.97267" lon="0.22307">
        <ele>1149.87</ele>
        <time>2014-07-01T07:31:16Z</time>
      </trkpt>
      <trkpt lat="42.97262" lon="0.22306">
        <ele>1151.19</ele>
        <time>2014-07-01T07:31:24Z</time>
      </trkpt>
      <trkpt lat="42.97258" lon="0.22304">
        <ele>1151.86</ele>
        <time>2014-07-01T07:31:35Z</time>
      </trkpt>
      <trkpt lat="42.97254" lon="0.223">
        <ele>1155.08</ele>
        <time>2014-07-01T07:32:03Z</time>
      </trkpt>
      <trkpt lat="42.97249" lon="0.223">
        <ele>1157.07</ele>
        <time>2014-07-01T07:32:15Z</time>
      </trkpt>
      <trkpt lat="42.97246" lon="0.22295">
        <ele>1158.9</ele>
        <time>2014-07-01T07:32:34Z</time>
      </trkpt>
      <trkpt lat="42.97241" lon="0.22295">
        <ele>1160.03</ele>
        <time>2014-07-01T07:32:44Z</time>
      </trkpt>
      <trkpt lat="42.97236" lon="0.22294">
        <ele>1161.37</ele>
        <time>2014-07-01T07:32:56Z</time>
      </trkpt>
      <trkpt lat="42.97232" lon="0.22293">
        <ele>1164.95</ele>
        <time>2014-07-01T07:34:20Z</time>
      </trkpt>
      <trkpt lat="42.97223" lon="0.22287">
        <ele>1164.31</ele>
        <time>2014-07-01T07:34:47Z</time>
      </trkpt>
      <trkpt lat="42.97219" lon="0.2229">
        <ele>1166.67</ele>
        <time>2014-07-01T07:34:49Z</time>
      </trkpt>
      <trkpt lat="42.97215" lon="0.22294">
        <ele>1169.95</ele>
        <time>2014-07-01T07:34:56Z</time>
      </trkpt>
      <trkpt lat="42.97213" lon="0.223">
        <ele>1175.47</ele>
        <time>2014-07-01T07:35:17Z</time>
      </trkpt>
      <trkpt lat="42.97213" lon="0.22306">
        <ele>1177.19</ele>
        <time>2014-07-01T07:35:28Z</time>
      </trkpt>
      <trkpt lat="42.97214" lon="0.22312">
        <ele>1179.96</ele>
        <time>2014-07-01T07:35:38Z</time>
      </trkpt>
      <trkpt lat="42.97214" lon="0.22319">
        <ele>1180.43</ele>
        <time>2014-07-01T07:35:53Z</time>
      </trkpt>
      <trkpt lat="42.97215" lon="0.22325">
        <ele>1182.67</ele>
        <time>2014-07-01T07:36:02Z</time>
      </trkpt>
      <trkpt lat="42.97215" lon="0.22331">
        <ele>1184.14</ele>
        <time>2014-07-01T07:36:10Z</time>
      </trkpt>
      <trkpt lat="42.97215" lon="0.22338">
        <ele>1185.68</ele>
        <time>2014-07-01T07:36:25Z</time>
      </trkpt>
      <trkpt lat="42.97211" lon="0.22342">
        <ele>1185.25</ele>
        <time>2014-07-01T07:36:35Z</time>
      </trkpt>
      <trkpt lat="42.97206" lon="0.22344">
        <ele>1188.54</ele>
        <time>2014-07-01T07:36:59Z</time>
      </trkpt>
      <trkpt lat="42.97202" lon="0.22345">
        <ele>1189.11</ele>
        <time>2014-07-01T07:37:08Z</time>
      </trkpt>
      <trkpt lat="42.97197" lon="0.22345">
        <ele>1189.51</ele>
        <time>2014-07-01T07:37:16Z</time>
      </trkpt>
      <trkpt lat="42.97192" lon="0.22346">
        <ele>1190.81</ele>
        <time>2014-07-01T07:37:28Z</time>
      </trkpt>
      <trkpt lat="42.97188" lon="0.22347">
        <ele>1192.34</ele>
        <time>2014-07-01T07:37:41Z</time>
      </trkpt>
      <trkpt lat="42.97183" lon="0.22347">
        <ele>1194.41</ele>
        <time>2014-07-01T07:38:15Z</time>
      </trkpt>
      <trkpt lat="42.97178" lon="0.22349">
        <ele>1195.23</ele>
        <time>2014-07-01T07:38:25Z</time>
      </trkpt>
      <trkpt lat="42.97174" lon="0.22351">
        <ele>1198.51</ele>
        <time>2014-07-01T07:38:50Z</time>
      </trkpt>
      <trkpt lat="42.9717" lon="0.22351">
        <ele>1199.3</ele>
        <time>2014-07-01T07:39:24Z</time>
      </trkpt>
      <trkpt lat="42.97165" lon="0.22348">
        <ele>1202.39</ele>
        <time>2014-07-01T07:40:22Z</time>
      </trkpt>
      <trkpt lat="42.97162" lon="0.22344">
        <ele>1204.5</ele>
        <time>2014-07-01T07:40:29Z</time>
      </trkpt>
      <trkpt lat="42.97157" lon="0.22341">
        <ele>1205.17</ele>
        <time>2014-07-01T07:40:37Z</time>
      </trkpt>
      <trkpt lat="42.97154" lon="0.22335">
        <ele>1205.79</ele>
        <time>2014-07-01T07:40:45Z</time>
      </trkpt>
      <trkpt lat="42.97151" lon="0.22331">
        <ele>1206.32</ele>
        <time>2014-07-01T07:40:53Z</time>
      </trkpt>
      <trkpt lat="42.97147" lon="0.22327">
        <ele>1208.53</ele>
        <time>2014-07-01T07:41:08Z</time>
      </trkpt>
      <trkpt lat="42.97143" lon="0.22323">
        <ele>1207.57</ele>
        <time>2014-07-01T07:41:17Z</time>
      </trkpt>
      <trkpt lat="42.97139" lon="0.2232">
        <ele>1207.42</ele>
        <time>2014-07-01T07:41:25Z</time>
      </trkpt>
      <trkpt lat="42.97135" lon="0.22316">
        <ele>1212.19</ele>
        <time>2014-07-01T07:41:31Z</time>
      </trkpt>
      <trkpt lat="42.97131" lon="0.22316">
        <ele>1211.41</ele>
        <time>2014-07-01T07:41:39Z</time>
      </trkpt>
      <trkpt lat="42.97125" lon="0.22315">
        <ele>1214.05</ele>
        <time>2014-07-01T07:41:47Z</time>
      </trkpt>
      <trkpt lat="42.97121" lon="0.22314">
        <ele>1215.38</ele>
        <time>2014-07-01T07:41:54Z</time>
      </trkpt>
      <trkpt lat="42.97116" lon="0.22312">
        <ele>1217.18</ele>
        <time>2014-07-01T07:42:01Z</time>
      </trkpt>
      <trkpt lat="42.97111" lon="0.22311">
        <ele>1217.5</ele>
        <time>2014-07-01T07:42:08Z</time>
      </trkpt>
      <trkpt lat="42.97106" lon="0.22312">
        <ele>1218.48</ele>
        <time>2014-07-01T07:42:16Z</time>
      </trkpt>
      <trkpt lat="42.97102" lon="0.2231">
        <ele>1219.7</ele>
        <time>2014-07-01T07:42:23Z</time>
      </trkpt>
      <trkpt lat="42.97097" lon="0.2231">
        <ele>1220.83</ele>
        <time>2014-07-01T07:42:32Z</time>
      </trkpt>
      <trkpt lat="42.97092" lon="0.22311">
        <ele>1222.67</ele>
        <time>2014-07-01T07:42:41Z</time>
      </trkpt>
      <trkpt lat="42.97087" lon="0.22311">
        <ele>1223.5</ele>
        <time>2014-07-01T07:43:10Z</time>
      </trkpt>
      <trkpt lat="42.97083" lon="0.22311">
        <ele>1224.3</ele>
        <time>2014-07-01T07:43:17Z</time>
      </trkpt>
      <trkpt lat="42.97078" lon="0.22313">
        <ele>1225.48</ele>
        <time>2014-07-01T07:43:25Z</time>
      </trkpt>
      <trkpt lat="42.97074" lon="0.22316">
        <ele>1226.16</ele>
        <time>2014-07-01T07:43:33Z</time>
      </trkpt>
      <trkpt lat="42.9707" lon="0.2232">
        <ele>1227.02</ele>
        <time>2014-07-01T07:43:45Z</time>
      </trkpt>
      <trkpt lat="42.97066" lon="0.22324">
        <ele>1228.25</ele>
        <time>2014-07-01T07:43:55Z</time>
      </trkpt>
      <trkpt lat="42.97061" lon="0.22325">
        <ele>1230.65</ele>
        <time>2014-07-01T07:44:07Z</time>
      </trkpt>
      <trkpt lat="42.97057" lon="0.22325">
        <ele>1232.86</ele>
        <time>2014-07-01T07:44:18Z</time>
      </trkpt>
      <trkpt lat="42.97052" lon="0.22326">
        <ele>1234.76</ele>
        <time>2014-07-01T07:44:45Z</time>
      </trkpt>
      <trkpt lat="42.97048" lon="0.22326">
        <ele>1235.92</ele>
        <time>2014-07-01T07:44:52Z</time>
      </trkpt>
      <trkpt lat="42.97043" lon="0.22326">
        <ele>1236.22</ele>
        <time>2014-07-01T07:44:59Z</time>
      </trkpt>
      <trkpt lat="42.97038" lon="0.22328">
        <ele>1236.05</ele>
        <time>2014-07-01T07:45:06Z</time>
      </trkpt>
      <trkpt lat="42.97034" lon="0.22328">
        <ele>1236.73</ele>
        <time>2014-07-01T07:45:14Z</time>
      </trkpt>
      <trkpt lat="42.97029" lon="0.22329">
        <ele>1237.99</ele>
        <time>2014-07-01T07:45:22Z</time>
      </trkpt>
      <trkpt lat="42.97025" lon="0.2233">
        <ele>1240.25</ele>
        <time>2014-07-01T07:45:45Z</time>
      </trkpt>
      <trkpt lat="42.9702" lon="0.22333">
        <ele>1240.95</ele>
        <time>2014-07-01T07:45:53Z</time>
      </trkpt>
      <trkpt lat="42.97015" lon="0.22337">
        <ele>1241.92</ele>
        <time>2014-07-01T07:46:00Z</time>
      </trkpt>
      <trkpt lat="42.97011" lon="0.22339">
        <ele>1242.62</ele>
        <time>2014-07-01T07:46:07Z</time>
      </trkpt>
      <trkpt lat="42.97007" lon="0.22341">
        <ele>1242.3</ele>
        <time>2014-07-01T07:46:29Z</time>
      </trkpt>
      <trkpt lat="42.97002" lon="0.22343">
        <ele>1243.04</ele>
        <time>2014-07-01T07:46:36Z</time>
      </trkpt>
      <trkpt lat="42.96997" lon="0.22345">
        <ele>1243.57</ele>
        <time>2014-07-01T07:46:43Z</time>
      </trkpt>
      <trkpt lat="42.96992" lon="0.22347">
        <ele>1244.34</ele>
        <time>2014-07-01T07:46:50Z</time>
      </trkpt>
      <trkpt lat="42.96988" lon="0.2235">
        <ele>1245.91</ele>
        <time>2014-07-01T07:46:57Z</time>
      </trkpt>
      <trkpt lat="42.96983" lon="0.22351">
        <ele>1247.21</ele>
        <time>2014-07-01T07:47:04Z</time>
      </trkpt>
      <trkpt lat="42.96978" lon="0.22352">
        <ele>1248.38</ele>
        <time>2014-07-01T07:47:19Z</time>
      </trkpt>
      <trkpt lat="42.96974" lon="0.2235">
        <ele>1249.22</ele>
        <time>2014-07-01T07:47:26Z</time>
      </trkpt>
      <trkpt lat="42.9697" lon="0.22349">
        <ele>1250.05</ele>
        <time>2014-07-01T07:47:33Z</time>
      </trkpt>
      <trkpt lat="42.96965" lon="0.22348">
        <ele>1250.87</ele>
        <time>2014-07-01T07:47:42Z</time>
      </trkpt>
      <trkpt lat="42.9696" lon="0.22346">
        <ele>1251.88</ele>
        <time>2014-07-01T07:47:50Z</time>
      </trkpt>
      <trkpt lat="42.96956" lon="0.22345">
        <ele>1253.24</ele>
        <time>2014-07-01T07:48:00Z</time>
      </trkpt>
      <trkpt lat="42.96951" lon="0.22344">
        <ele>1255.56</ele>
        <time>2014-07-01T07:48:12Z</time>
      </trkpt>
      <trkpt lat="42.96946" lon="0.22342">
        <ele>1256.79</ele>
        <time>2014-07-01T07:48:21Z</time>
      </trkpt>
      <trkpt lat="42.96942" lon="0.2234">
        <ele>1258.81</ele>
        <time>2014-07-01T07:48:29Z</time>
      </trkpt>
      <trkpt lat="42.96937" lon="0.22338">
        <ele>1260.23</ele>
        <time>2014-07-01T07:48:40Z</time>
      </trkpt>
      <trkpt lat="42.96932" lon="0.22335">
        <ele>1261.18</ele>
        <time>2014-07-01T07:48:46Z</time>
      </trkpt>
      <trkpt lat="42.96928" lon="0.22333">
        <ele>1262.13</ele>
        <time>2014-07-01T07:48:53Z</time>
      </trkpt>
      <trkpt lat="42.96923" lon="0.22332">
        <ele>1262.79</ele>
        <time>2014-07-01T07:49:02Z</time>
      </trkpt>
      <trkpt lat="42.96918" lon="0.22331">
        <ele>1263.45</ele>
        <time>2014-07-01T07:49:14Z</time>
      </trkpt>
      <trkpt lat="42.96914" lon="0.22328">
        <ele>1264.13</ele>
        <time>2014-07-01T07:49:22Z</time>
      </trkpt>
      <trkpt lat="42.9691" lon="0.22326">
        <ele>1265.03</ele>
        <time>2014-07-01T07:49:30Z</time>
      </trkpt>
      <trkpt lat="42.96905" lon="0.22324">
        <ele>1266.35</ele>
        <time>2014-07-01T07:49:37Z</time>
      </trkpt>
      <trkpt lat="42.969" lon="0.22322">
        <ele>1266.91</ele>
        <time>2014-07-01T07:49:46Z</time>
      </trkpt>
      <trkpt lat="42.96896" lon="0.2232">
        <ele>1268.66</ele>
        <time>2014-07-01T07:50:01Z</time>
      </trkpt>
      <trkpt lat="42.96892" lon="0.22318">
        <ele>1267.9</ele>
        <time>2014-07-01T07:50:22Z</time>
      </trkpt>
      <trkpt lat="42.96887" lon="0.22317">
        <ele>1269.27</ele>
        <time>2014-07-01T07:50:31Z</time>
      </trkpt>
      <trkpt lat="42.96882" lon="0.22317">
        <ele>1272.1</ele>
        <time>2014-07-01T07:50:37Z</time>
      </trkpt>
      <trkpt lat="42.96877" lon="0.22318">
        <ele>1273.86</ele>
        <time>2014-07-01T07:50:45Z</time>
      </trkpt>
      <trkpt lat="42.96873" lon="0.22317">
        <ele>1274.25</ele>
        <time>2014-07-01T07:50:57Z</time>
      </trkpt>
      <trkpt lat="42.96868" lon="0.22317">
        <ele>1274.61</ele>
        <time>2014-07-01T07:51:04Z</time>
      </trkpt>
      <trkpt lat="42.96863" lon="0.22317">
        <ele>1273.26</ele>
        <time>2014-07-01T07:51:18Z</time>
      </trkpt>
      <trkpt lat="42.96858" lon="0.22316">
        <ele>1274.06</ele>
        <time>2014-07-01T07:51:28Z</time>
      </trkpt>
      <trkpt lat="42.96853" lon="0.22316">
        <ele>1278.01</ele>
        <time>2014-07-01T07:51:35Z</time>
      </trkpt>
      <trkpt lat="42.96848" lon="0.22315">
        <ele>1280</ele>
        <time>2014-07-01T07:51:41Z</time>
      </trkpt>
      <trkpt lat="42.96843" lon="0.22315">
        <ele>1280.87</ele>
        <time>2014-07-01T07:51:46Z</time>
      </trkpt>
      <trkpt lat="42.96838" lon="0.22313">
        <ele>1282.69</ele>
        <time>2014-07-01T07:51:52Z</time>
      </trkpt>
      <trkpt lat="42.96834" lon="0.22312">
        <ele>1282.5</ele>
        <time>2014-07-01T07:51:58Z</time>
      </trkpt>
      <trkpt lat="42.96829" lon="0.22311">
        <ele>1279.5</ele>
        <time>2014-07-01T07:52:04Z</time>
      </trkpt>
      <trkpt lat="42.96824" lon="0.2231">
        <ele>1277.42</ele>
        <time>2014-07-01T07:52:10Z</time>
      </trkpt>
      <trkpt lat="42.96819" lon="0.22309">
        <ele>1279.83</ele>
        <time>2014-07-01T07:52:17Z</time>
      </trkpt>
      <trkpt lat="42.96815" lon="0.22306">
        <ele>1283.07</ele>
        <time>2014-07-01T07:52:29Z</time>
      </trkpt>
      <trkpt lat="42.9681" lon="0.22306">
        <ele>1284.08</ele>
        <time>2014-07-01T07:52:36Z</time>
      </trkpt>
      <trkpt lat="42.96805" lon="0.22304">
        <ele>1285.6</ele>
        <time>2014-07-01T07:52:43Z</time>
      </trkpt>
      <trkpt lat="42.96801" lon="0.22301">
        <ele>1288.82</ele>
        <time>2014-07-01T07:53:01Z</time>
      </trkpt>
      <trkpt lat="42.96796" lon="0.22301">
        <ele>1290.17</ele>
        <time>2014-07-01T07:53:16Z</time>
      </trkpt>
      <trkpt lat="42.96791" lon="0.22299">
        <ele>1291.2</ele>
        <time>2014-07-01T07:53:22Z</time>
      </trkpt>
      <trkpt lat="42.96787" lon="0.22298">
        <ele>1291.43</ele>
        <time>2014-07-01T07:53:26Z</time>
      </trkpt>
      <trkpt lat="42.96782" lon="0.22295">
        <ele>1290.99</ele>
        <time>2014-07-01T07:53:32Z</time>
      </trkpt>
      <trkpt lat="42.96778" lon="0.22293">
        <ele>1291.55</ele>
        <time>2014-07-01T07:53:51Z</time>
      </trkpt>
      <trkpt lat="42.96773" lon="0.22293">
        <ele>1291.62</ele>
        <time>2014-07-01T07:53:58Z</time>
      </trkpt>
      <trkpt lat="42.96769" lon="0.22292">
        <ele>1293.09</ele>
        <time>2014-07-01T07:54:14Z</time>
      </trkpt>
      <trkpt lat="42.96764" lon="0.22289">
        <ele>1269.01</ele>
        <time>2014-07-01T07:54:20Z</time>
      </trkpt>
      <trkpt lat="42.9676" lon="0.22287">
        <ele>1290.48</ele>
        <time>2014-07-01T07:54:28Z</time>
      </trkpt>
      <trkpt lat="42.96756" lon="0.22287">
        <ele>1293.3</ele>
        <time>2014-07-01T07:54:38Z</time>
      </trkpt>
      <trkpt lat="42.9675" lon="0.22287">
        <ele>1295.31</ele>
        <time>2014-07-01T07:54:44Z</time>
      </trkpt>
      <trkpt lat="42.96745" lon="0.22287">
        <ele>1296.54</ele>
        <time>2014-07-01T07:54:48Z</time>
      </trkpt>
      <trkpt lat="42.96741" lon="0.22285">
        <ele>1299.44</ele>
        <time>2014-07-01T07:54:53Z</time>
      </trkpt>
      <trkpt lat="42.96736" lon="0.22282">
        <ele>1302.65</ele>
        <time>2014-07-01T07:54:58Z</time>
      </trkpt>
      <trkpt lat="42.96732" lon="0.22278">
        <ele>1304.35</ele>
        <time>2014-07-01T07:55:05Z</time>
      </trkpt>
      <trkpt lat="42.96727" lon="0.22277">
        <ele>1304.57</ele>
        <time>2014-07-01T07:55:20Z</time>
      </trkpt>
      <trkpt lat="42.96722" lon="0.22275">
        <ele>1305.22</ele>
        <time>2014-07-01T07:55:34Z</time>
      </trkpt>
      <trkpt lat="42.96717" lon="0.22274">
        <ele>1307.63</ele>
        <time>2014-07-01T07:55:39Z</time>
      </trkpt>
      <trkpt lat="42.96713" lon="0.22272">
        <ele>1310.01</ele>
        <time>2014-07-01T07:55:43Z</time>
      </trkpt>
      <trkpt lat="42.96708" lon="0.22269">
        <ele>1311.58</ele>
        <time>2014-07-01T07:55:48Z</time>
      </trkpt>
      <trkpt lat="42.96704" lon="0.22266">
        <ele>1313.79</ele>
        <time>2014-07-01T07:55:54Z</time>
      </trkpt>
      <trkpt lat="42.96699" lon="0.22262">
        <ele>1316.58</ele>
        <time>2014-07-01T07:56:01Z</time>
      </trkpt>
      <trkpt lat="42.96694" lon="0.2226">
        <ele>1318.72</ele>
        <time>2014-07-01T07:56:08Z</time>
      </trkpt>
      <trkpt lat="42.9669" lon="0.22258">
        <ele>1293.61</ele>
        <time>2014-07-01T07:56:15Z</time>
      </trkpt>
      <trkpt lat="42.96685" lon="0.22257">
        <ele>1318.82</ele>
        <time>2014-07-01T07:56:26Z</time>
      </trkpt>
      <trkpt lat="42.96681" lon="0.22254">
        <ele>1319.61</ele>
        <time>2014-07-01T07:56:35Z</time>
      </trkpt>
      <trkpt lat="42.96676" lon="0.22253">
        <ele>1321.15</ele>
        <time>2014-07-01T07:56:42Z</time>
      </trkpt>
      <trkpt lat="42.96671" lon="0.2225">
        <ele>1322.46</ele>
        <time>2014-07-01T07:56:50Z</time>
      </trkpt>
      <trkpt lat="42.96666" lon="0.2225">
        <ele>1323.86</ele>
        <time>2014-07-01T07:57:01Z</time>
      </trkpt>
      <trkpt lat="42.96662" lon="0.22248">
        <ele>1326.71</ele>
        <time>2014-07-01T07:57:12Z</time>
      </trkpt>
      <trkpt lat="42.96657" lon="0.22246">
        <ele>1327.43</ele>
        <time>2014-07-01T07:57:20Z</time>
      </trkpt>
      <trkpt lat="42.96652" lon="0.22244">
        <ele>1330.09</ele>
        <time>2014-07-01T07:57:32Z</time>
      </trkpt>
      <trkpt lat="42.96647" lon="0.22242">
        <ele>1332.23</ele>
        <time>2014-07-01T07:57:37Z</time>
      </trkpt>
      <trkpt lat="42.96642" lon="0.2224">
        <ele>1332.17</ele>
        <time>2014-07-01T07:57:44Z</time>
      </trkpt>
      <trkpt lat="42.96634" lon="0.22234">
        <ele>1333.74</ele>
        <time>2014-07-01T07:57:57Z</time>
      </trkpt>
      <trkpt lat="42.9663" lon="0.22233">
        <ele>1337.97</ele>
        <time>2014-07-01T07:58:05Z</time>
      </trkpt>
      <trkpt lat="42.96625" lon="0.22232">
        <ele>1339.83</ele>
        <time>2014-07-01T07:58:11Z</time>
      </trkpt>
      <trkpt lat="42.96621" lon="0.22234">
        <ele>1333.84</ele>
        <time>2014-07-01T07:58:29Z</time>
      </trkpt>
      <trkpt lat="42.96616" lon="0.22235">
        <ele>1339.83</ele>
        <time>2014-07-01T07:58:39Z</time>
      </trkpt>
      <trkpt lat="42.96611" lon="0.22236">
        <ele>1340.1</ele>
        <time>2014-07-01T07:58:46Z</time>
      </trkpt>
      <trkpt lat="42.96607" lon="0.22238">
        <ele>1314.29</ele>
        <time>2014-07-01T07:58:53Z</time>
      </trkpt>
      <trkpt lat="42.96602" lon="0.22237">
        <ele>1338.46</ele>
        <time>2014-07-01T07:59:01Z</time>
      </trkpt>
      <trkpt lat="42.96598" lon="0.22235">
        <ele>1336.66</ele>
        <time>2014-07-01T07:59:09Z</time>
      </trkpt>
      <trkpt lat="42.96593" lon="0.22233">
        <ele>1344.54</ele>
        <time>2014-07-01T07:59:16Z</time>
      </trkpt>
      <trkpt lat="42.96588" lon="0.22232">
        <ele>1339.6</ele>
        <time>2014-07-01T07:59:26Z</time>
      </trkpt>
      <trkpt lat="42.96584" lon="0.22231">
        <ele>1346.57</ele>
        <time>2014-07-01T07:59:36Z</time>
      </trkpt>
      <trkpt lat="42.96579" lon="0.2223">
        <ele>1344.51</ele>
        <time>2014-07-01T07:59:44Z</time>
      </trkpt>
      <trkpt lat="42.96574" lon="0.22231">
        <ele>1349.86</ele>
        <time>2014-07-01T07:59:54Z</time>
      </trkpt>
      <trkpt lat="42.9657" lon="0.22229">
        <ele>1349.84</ele>
        <time>2014-07-01T08:00:02Z</time>
      </trkpt>
      <trkpt lat="42.96565" lon="0.22229">
        <ele>1349.95</ele>
        <time>2014-07-01T08:00:18Z</time>
      </trkpt>
      <trkpt lat="42.9656" lon="0.22228">
        <ele>1350.44</ele>
        <time>2014-07-01T08:00:30Z</time>
      </trkpt>
      <trkpt lat="42.96555" lon="0.22227">
        <ele>1351.2</ele>
        <time>2014-07-01T08:00:55Z</time>
      </trkpt>
      <trkpt lat="42.9655" lon="0.22226">
        <ele>1351.7</ele>
        <time>2014-07-01T08:01:00Z</time>
      </trkpt>
      <trkpt lat="42.96544" lon="0.22226">
        <ele>1352.73</ele>
        <time>2014-07-01T08:01:05Z</time>
      </trkpt>
      <trkpt lat="42.96538" lon="0.22227">
        <ele>1356.05</ele>
        <time>2014-07-01T08:01:10Z</time>
      </trkpt>
      <trkpt lat="42.96533" lon="0.22228">
        <ele>1357.94</ele>
        <time>2014-07-01T08:01:15Z</time>
      </trkpt>
      <trkpt lat="42.96529" lon="0.22228">
        <ele>1360.18</ele>
        <time>2014-07-01T08:01:22Z</time>
      </trkpt>
      <trkpt lat="42.96524" lon="0.22226">
        <ele>1357.52</ele>
        <time>2014-07-01T08:01:30Z</time>
      </trkpt>
      <trkpt lat="42.9652" lon="0.22225">
        <ele>1358.57</ele>
        <time>2014-07-01T08:01:36Z</time>
      </trkpt>
      <trkpt lat="42.96515" lon="0.22226">
        <ele>1362.4</ele>
        <time>2014-07-01T08:02:23Z</time>
      </trkpt>
      <trkpt lat="42.9651" lon="0.22224">
        <ele>1332.53</ele>
        <time>2014-07-01T08:02:28Z</time>
      </trkpt>
      <trkpt lat="42.96505" lon="0.22222">
        <ele>1358.29</ele>
        <time>2014-07-01T08:02:35Z</time>
      </trkpt>
      <trkpt lat="42.965" lon="0.22222">
        <ele>1363.37</ele>
        <time>2014-07-01T08:02:40Z</time>
      </trkpt>
      <trkpt lat="42.96496" lon="0.22222">
        <ele>1338.3</ele>
        <time>2014-07-01T08:02:45Z</time>
      </trkpt>
      <trkpt lat="42.96491" lon="0.22222">
        <ele>1362.85</ele>
        <time>2014-07-01T08:02:53Z</time>
      </trkpt>
      <trkpt lat="42.96487" lon="0.22219">
        <ele>1369.47</ele>
        <time>2014-07-01T08:03:05Z</time>
      </trkpt>
      <trkpt lat="42.96483" lon="0.22215">
        <ele>1364.14</ele>
        <time>2014-07-01T08:03:15Z</time>
      </trkpt>
      <trkpt lat="42.96479" lon="0.22213">
        <ele>1370.72</ele>
        <time>2014-07-01T08:03:23Z</time>
      </trkpt>
      <trkpt lat="42.96474" lon="0.22211">
        <ele>1373.52</ele>
        <time>2014-07-01T08:03:29Z</time>
      </trkpt>
      <trkpt lat="42.96469" lon="0.22209">
        <ele>1375.64</ele>
        <time>2014-07-01T08:03:35Z</time>
      </trkpt>
      <trkpt lat="42.96464" lon="0.22208">
        <ele>1377.11</ele>
        <time>2014-07-01T08:03:41Z</time>
      </trkpt>
      <trkpt lat="42.9646" lon="0.22206">
        <ele>1377.56</ele>
        <time>2014-07-01T08:03:47Z</time>
      </trkpt>
      <trkpt lat="42.96455" lon="0.22203">
        <ele>1377.65</ele>
        <time>2014-07-01T08:04:08Z</time>
      </trkpt>
      <trkpt lat="42.96451" lon="0.222">
        <ele>1379.14</ele>
        <time>2014-07-01T08:04:14Z</time>
      </trkpt>
      <trkpt lat="42.96446" lon="0.22197">
        <ele>1381.29</ele>
        <time>2014-07-01T08:04:20Z</time>
      </trkpt>
      <trkpt lat="42.96441" lon="0.22194">
        <ele>1382.98</ele>
        <time>2014-07-01T08:04:26Z</time>
      </trkpt>
      <trkpt lat="42.96437" lon="0.22192">
        <ele>1384.4</ele>
        <time>2014-07-01T08:04:32Z</time>
      </trkpt>
      <trkpt lat="42.96433" lon="0.2219">
        <ele>1386.76</ele>
        <time>2014-07-01T08:04:41Z</time>
      </trkpt>
      <trkpt lat="42.96428" lon="0.22187">
        <ele>1387.84</ele>
        <time>2014-07-01T08:04:50Z</time>
      </trkpt>
      <trkpt lat="42.96425" lon="0.22183">
        <ele>1388.73</ele>
        <time>2014-07-01T08:05:00Z</time>
      </trkpt>
      <trkpt lat="42.96421" lon="0.22179">
        <ele>1390.19</ele>
        <time>2014-07-01T08:05:17Z</time>
      </trkpt>
      <trkpt lat="42.96417" lon="0.22176">
        <ele>1390.38</ele>
        <time>2014-07-01T08:05:22Z</time>
      </trkpt>
      <trkpt lat="42.96412" lon="0.22173">
        <ele>1392.25</ele>
        <time>2014-07-01T08:05:27Z</time>
      </trkpt>
      <trkpt lat="42.96408" lon="0.22169">
        <ele>1393.33</ele>
        <time>2014-07-01T08:05:34Z</time>
      </trkpt>
      <trkpt lat="42.96405" lon="0.22165">
        <ele>1394.56</ele>
        <time>2014-07-01T08:05:39Z</time>
      </trkpt>
      <trkpt lat="42.96401" lon="0.22161">
        <ele>1394.85</ele>
        <time>2014-07-01T08:05:44Z</time>
      </trkpt>
      <trkpt lat="42.96397" lon="0.22157">
        <ele>1396</ele>
        <time>2014-07-01T08:05:50Z</time>
      </trkpt>
      <trkpt lat="42.96394" lon="0.22153">
        <ele>1396.95</ele>
        <time>2014-07-01T08:05:56Z</time>
      </trkpt>
      <trkpt lat="42.9639" lon="0.22149">
        <ele>1397.62</ele>
        <time>2014-07-01T08:06:03Z</time>
      </trkpt>
      <trkpt lat="42.96386" lon="0.22145">
        <ele>1398.36</ele>
        <time>2014-07-01T08:06:10Z</time>
      </trkpt>
      <trkpt lat="42.96382" lon="0.22141">
        <ele>1399.66</ele>
        <time>2014-07-01T08:06:19Z</time>
      </trkpt>
      <trkpt lat="42.96379" lon="0.22137">
        <ele>1401.42</ele>
        <time>2014-07-01T08:06:33Z</time>
      </trkpt>
      <trkpt lat="42.96374" lon="0.22133">
        <ele>1402.32</ele>
        <time>2014-07-01T08:06:41Z</time>
      </trkpt>
      <trkpt lat="42.96371" lon="0.22128">
        <ele>1403.24</ele>
        <time>2014-07-01T08:06:50Z</time>
      </trkpt>
      <trkpt lat="42.96367" lon="0.22124">
        <ele>1404.34</ele>
        <time>2014-07-01T08:07:00Z</time>
      </trkpt>
      <trkpt lat="42.96364" lon="0.2212">
        <ele>1406.75</ele>
        <time>2014-07-01T08:07:09Z</time>
      </trkpt>
      <trkpt lat="42.96361" lon="0.22115">
        <ele>1407.73</ele>
        <time>2014-07-01T08:07:17Z</time>
      </trkpt>
      <trkpt lat="42.96357" lon="0.22111">
        <ele>1407.34</ele>
        <time>2014-07-01T08:07:44Z</time>
      </trkpt>
      <trkpt lat="42.96353" lon="0.22107">
        <ele>1408.04</ele>
        <time>2014-07-01T08:07:51Z</time>
      </trkpt>
      <trkpt lat="42.96349" lon="0.22104">
        <ele>1410.23</ele>
        <time>2014-07-01T08:07:59Z</time>
      </trkpt>
      <trkpt lat="42.96345" lon="0.221">
        <ele>1412.55</ele>
        <time>2014-07-01T08:08:08Z</time>
      </trkpt>
      <trkpt lat="42.96341" lon="0.22096">
        <ele>1413.62</ele>
        <time>2014-07-01T08:08:17Z</time>
      </trkpt>
      <trkpt lat="42.96339" lon="0.22091">
        <ele>1415.43</ele>
        <time>2014-07-01T08:08:29Z</time>
      </trkpt>
      <trkpt lat="42.96336" lon="0.22086">
        <ele>1416.98</ele>
        <time>2014-07-01T08:08:37Z</time>
      </trkpt>
      <trkpt lat="42.96331" lon="0.22082">
        <ele>1415.96</ele>
        <time>2014-07-01T08:08:50Z</time>
      </trkpt>
      <trkpt lat="42.96328" lon="0.22078">
        <ele>1416.63</ele>
        <time>2014-07-01T08:08:57Z</time>
      </trkpt>
      <trkpt lat="42.96324" lon="0.22074">
        <ele>1418.41</ele>
        <time>2014-07-01T08:09:05Z</time>
      </trkpt>
      <trkpt lat="42.9632" lon="0.2207">
        <ele>1419.1</ele>
        <time>2014-07-01T08:09:11Z</time>
      </trkpt>
      <trkpt lat="42.96317" lon="0.22065">
        <ele>1420.7</ele>
        <time>2014-07-01T08:09:18Z</time>
      </trkpt>
      <trkpt lat="42.96315" lon="0.2206">
        <ele>1422.36</ele>
        <time>2014-07-01T08:09:27Z</time>
      </trkpt>
      <trkpt lat="42.96311" lon="0.22055">
        <ele>1423.04</ele>
        <time>2014-07-01T08:09:35Z</time>
      </trkpt>
      <trkpt lat="42.96308" lon="0.22051">
        <ele>1424.68</ele>
        <time>2014-07-01T08:09:43Z</time>
      </trkpt>
      <trkpt lat="42.96305" lon="0.22046">
        <ele>1427.63</ele>
        <time>2014-07-01T08:10:00Z</time>
      </trkpt>
      <trkpt lat="42.96301" lon="0.22041">
        <ele>1429.17</ele>
        <time>2014-07-01T08:10:11Z</time>
      </trkpt>
      <trkpt lat="42.96297" lon="0.22037">
        <ele>1431.21</ele>
        <time>2014-07-01T08:10:23Z</time>
      </trkpt>
      <trkpt lat="42.96294" lon="0.22032">
        <ele>1433.57</ele>
        <time>2014-07-01T08:10:35Z</time>
      </trkpt>
      <trkpt lat="42.96291" lon="0.22027">
        <ele>1434.87</ele>
        <time>2014-07-01T08:10:43Z</time>
      </trkpt>
      <trkpt lat="42.96288" lon="0.22022">
        <ele>1435.76</ele>
        <time>2014-07-01T08:10:56Z</time>
      </trkpt>
      <trkpt lat="42.96285" lon="0.22017">
        <ele>1437.47</ele>
        <time>2014-07-01T08:11:05Z</time>
      </trkpt>
      <trkpt lat="42.96282" lon="0.22012">
        <ele>1439.25</ele>
        <time>2014-07-01T08:11:13Z</time>
      </trkpt>
      <trkpt lat="42.96279" lon="0.22008">
        <ele>1441.93</ele>
        <time>2014-07-01T08:11:27Z</time>
      </trkpt>
      <trkpt lat="42.96276" lon="0.22003">
        <ele>1444.05</ele>
        <time>2014-07-01T08:11:36Z</time>
      </trkpt>
      <trkpt lat="42.96272" lon="0.22">
        <ele>1445.46</ele>
        <time>2014-07-01T08:11:45Z</time>
      </trkpt>
      <trkpt lat="42.96268" lon="0.22003">
        <ele>1447.26</ele>
        <time>2014-07-01T08:11:58Z</time>
      </trkpt>
      <trkpt lat="42.96264" lon="0.22001">
        <ele>1446.07</ele>
        <time>2014-07-01T08:14:06Z</time>
      </trkpt>
      <trkpt lat="42.96259" lon="0.22001">
        <ele>1447.29</ele>
        <time>2014-07-01T08:14:14Z</time>
      </trkpt>
      <trkpt lat="42.96254" lon="0.22">
        <ele>1449.21</ele>
        <time>2014-07-01T08:14:22Z</time>
      </trkpt>
      <trkpt lat="42.9625" lon="0.21997">
        <ele>1448.29</ele>
        <time>2014-07-01T08:14:28Z</time>
      </trkpt>
      <trkpt lat="42.96245" lon="0.22001">
        <ele>1448.44</ele>
        <time>2014-07-01T08:14:35Z</time>
      </trkpt>
      <trkpt lat="42.96242" lon="0.22006">
        <ele>1449.9</ele>
        <time>2014-07-01T08:14:42Z</time>
      </trkpt>
      <trkpt lat="42.96238" lon="0.22009">
        <ele>1447.03</ele>
        <time>2014-07-01T08:22:19Z</time>
      </trkpt>
      <trkpt lat="42.9624" lon="0.22003">
        <ele>1449.38</ele>
        <time>2014-07-01T08:24:19Z</time>
      </trkpt>
      <trkpt lat="42.96244" lon="0.22">
        <ele>1452.9</ele>
        <time>2014-07-01T08:31:32Z</time>
      </trkpt>
      <trkpt lat="42.96241" lon="0.21994">
        <ele>1453.34</ele>
        <time>2014-07-01T08:31:57Z</time>
      </trkpt>
      <trkpt lat="42.96242" lon="0.21988">
        <ele>1430.73</ele>
        <time>2014-07-01T08:32:07Z</time>
      </trkpt>
      <trkpt lat="42.9624" lon="0.21981">
        <ele>1451.6</ele>
        <time>2014-07-01T08:32:16Z</time>
      </trkpt>
      <trkpt lat="42.96243" lon="0.21976">
        <ele>1454.57</ele>
        <time>2014-07-01T08:32:23Z</time>
      </trkpt>
      <trkpt lat="42.96245" lon="0.2197">
        <ele>1455.63</ele>
        <time>2014-07-01T08:32:30Z</time>
      </trkpt>
      <trkpt lat="42.96248" lon="0.21964">
        <ele>1449.46</ele>
        <time>2014-07-01T08:32:37Z</time>
      </trkpt>
      <trkpt lat="42.96251" lon="0.21959">
        <ele>1453.46</ele>
        <time>2014-07-01T08:32:43Z</time>
      </trkpt>
      <trkpt lat="42.96254" lon="0.21953">
        <ele>1453.19</ele>
        <time>2014-07-01T08:32:49Z</time>
      </trkpt>
      <trkpt lat="42.96256" lon="0.21948">
        <ele>1453.53</ele>
        <time>2014-07-01T08:32:55Z</time>
      </trkpt>
      <trkpt lat="42.96257" lon="0.21942">
        <ele>1453.66</ele>
        <time>2014-07-01T08:33:00Z</time>
      </trkpt>
      <trkpt lat="42.96258" lon="0.21936">
        <ele>1454.48</ele>
        <time>2014-07-01T08:33:06Z</time>
      </trkpt>
      <trkpt lat="42.96256" lon="0.2193">
        <ele>1455.77</ele>
        <time>2014-07-01T08:33:16Z</time>
      </trkpt>
      <trkpt lat="42.96255" lon="0.21924">
        <ele>1457.84</ele>
        <time>2014-07-01T08:33:29Z</time>
      </trkpt>
      <trkpt lat="42.96252" lon="0.21918">
        <ele>1459.22</ele>
        <time>2014-07-01T08:33:40Z</time>
      </trkpt>
      <trkpt lat="42.9625" lon="0.21912">
        <ele>1461.13</ele>
        <time>2014-07-01T08:33:58Z</time>
      </trkpt>
      <trkpt lat="42.96247" lon="0.21908">
        <ele>1463.68</ele>
        <time>2014-07-01T08:34:12Z</time>
      </trkpt>
      <trkpt lat="42.96245" lon="0.21903">
        <ele>1465.07</ele>
        <time>2014-07-01T08:34:32Z</time>
      </trkpt>
      <trkpt lat="42.96243" lon="0.21896">
        <ele>1465.6</ele>
        <time>2014-07-01T08:34:40Z</time>
      </trkpt>
      <trkpt lat="42.96241" lon="0.2189">
        <ele>1466.9</ele>
        <time>2014-07-01T08:34:51Z</time>
      </trkpt>
      <trkpt lat="42.96241" lon="0.21883">
        <ele>1468.68</ele>
        <time>2014-07-01T08:35:00Z</time>
      </trkpt>
      <trkpt lat="42.96239" lon="0.21877">
        <ele>1470.46</ele>
        <time>2014-07-01T08:35:09Z</time>
      </trkpt>
      <trkpt lat="42.96235" lon="0.21874">
        <ele>1471.95</ele>
        <time>2014-07-01T08:35:21Z</time>
      </trkpt>
      <trkpt lat="42.96233" lon="0.21869">
        <ele>1473.94</ele>
        <time>2014-07-01T08:35:33Z</time>
      </trkpt>
      <trkpt lat="42.96233" lon="0.21862">
        <ele>1475.54</ele>
        <time>2014-07-01T08:35:43Z</time>
      </trkpt>
      <trkpt lat="42.96233" lon="0.21856">
        <ele>1476.68</ele>
        <time>2014-07-01T08:35:51Z</time>
      </trkpt>
      <trkpt lat="42.96231" lon="0.21849">
        <ele>1477.67</ele>
        <time>2014-07-01T08:35:59Z</time>
      </trkpt>
      <trkpt lat="42.96229" lon="0.21843">
        <ele>1478.34</ele>
        <time>2014-07-01T08:36:07Z</time>
      </trkpt>
      <trkpt lat="42.96226" lon="0.21838">
        <ele>1480.23</ele>
        <time>2014-07-01T08:36:17Z</time>
      </trkpt>
      <trkpt lat="42.96224" lon="0.21832">
        <ele>1481.49</ele>
        <time>2014-07-01T08:36:31Z</time>
      </trkpt>
      <trkpt lat="42.96223" lon="0.21826">
        <ele>1481.86</ele>
        <time>2014-07-01T08:36:43Z</time>
      </trkpt>
      <trkpt lat="42.96221" lon="0.2182">
        <ele>1483.77</ele>
        <time>2014-07-01T08:36:58Z</time>
      </trkpt>
      <trkpt lat="42.9622" lon="0.21814">
        <ele>1485.08</ele>
        <time>2014-07-01T08:37:08Z</time>
      </trkpt>
      <trkpt lat="42.96218" lon="0.21808">
        <ele>1486.95</ele>
        <time>2014-07-01T08:37:20Z</time>
      </trkpt>
      <trkpt lat="42.96216" lon="0.21803">
        <ele>1487.78</ele>
        <time>2014-07-01T08:37:31Z</time>
      </trkpt>
      <trkpt lat="42.96216" lon="0.21797">
        <ele>1488.88</ele>
        <time>2014-07-01T08:37:41Z</time>
      </trkpt>
      <trkpt lat="42.96214" lon="0.21791">
        <ele>1490.53</ele>
        <time>2014-07-01T08:37:51Z</time>
      </trkpt>
      <trkpt lat="42.96212" lon="0.21785">
        <ele>1492.1</ele>
        <time>2014-07-01T08:38:00Z</time>
      </trkpt>
      <trkpt lat="42.9621" lon="0.2178">
        <ele>1491.49</ele>
        <time>2014-07-01T08:38:13Z</time>
      </trkpt>
      <trkpt lat="42.96205" lon="0.21783">
        <ele>1495.33</ele>
        <time>2014-07-01T08:38:31Z</time>
      </trkpt>
      <trkpt lat="42.96202" lon="0.21787">
        <ele>1498.51</ele>
        <time>2014-07-01T08:38:45Z</time>
      </trkpt>
      <trkpt lat="42.96199" lon="0.21792">
        <ele>1499.82</ele>
        <time>2014-07-01T08:38:57Z</time>
      </trkpt>
      <trkpt lat="42.96195" lon="0.21795">
        <ele>1501.5</ele>
        <time>2014-07-01T08:39:12Z</time>
      </trkpt>
      <trkpt lat="42.96191" lon="0.21798">
        <ele>1504.05</ele>
        <time>2014-07-01T08:39:24Z</time>
      </trkpt>
      <trkpt lat="42.96188" lon="0.21803">
        <ele>1505.75</ele>
        <time>2014-07-01T08:39:34Z</time>
      </trkpt>
      <trkpt lat="42.96184" lon="0.21807">
        <ele>1506.37</ele>
        <time>2014-07-01T08:39:45Z</time>
      </trkpt>
      <trkpt lat="42.96182" lon="0.21812">
        <ele>1507.12</ele>
        <time>2014-07-01T08:39:54Z</time>
      </trkpt>
      <trkpt lat="42.96179" lon="0.21818">
        <ele>1460.16</ele>
        <time>2014-07-01T08:40:04Z</time>
      </trkpt>
      <trkpt lat="42.96175" lon="0.21822">
        <ele>1508.98</ele>
        <time>2014-07-01T08:40:16Z</time>
      </trkpt>
      <trkpt lat="42.9617" lon="0.21825">
        <ele>1509.89</ele>
        <time>2014-07-01T08:40:28Z</time>
      </trkpt>
      <trkpt lat="42.96166" lon="0.21828">
        <ele>1511.76</ele>
        <time>2014-07-01T08:40:39Z</time>
      </trkpt>
      <trkpt lat="42.96163" lon="0.21831">
        <ele>1512.78</ele>
        <time>2014-07-01T08:40:50Z</time>
      </trkpt>
      <trkpt lat="42.96158" lon="0.21834">
        <ele>1515.23</ele>
        <time>2014-07-01T08:41:03Z</time>
      </trkpt>
      <trkpt lat="42.96154" lon="0.21831">
        <ele>1517.69</ele>
        <time>2014-07-01T08:41:19Z</time>
      </trkpt>
      <trkpt lat="42.96151" lon="0.21826">
        <ele>1519.76</ele>
        <time>2014-07-01T08:41:30Z</time>
      </trkpt>
      <trkpt lat="42.96149" lon="0.2182">
        <ele>1521.84</ele>
        <time>2014-07-01T08:41:38Z</time>
      </trkpt>
      <trkpt lat="42.96147" lon="0.21814">
        <ele>1523.79</ele>
        <time>2014-07-01T08:41:49Z</time>
      </trkpt>
      <trkpt lat="42.96145" lon="0.21809">
        <ele>1524.81</ele>
        <time>2014-07-01T08:41:58Z</time>
      </trkpt>
      <trkpt lat="42.96142" lon="0.21803">
        <ele>1526.65</ele>
        <time>2014-07-01T08:42:12Z</time>
      </trkpt>
      <trkpt lat="42.96141" lon="0.21796">
        <ele>1527.62</ele>
        <time>2014-07-01T08:42:21Z</time>
      </trkpt>
      <trkpt lat="42.96142" lon="0.2179">
        <ele>1529.14</ele>
        <time>2014-07-01T08:42:29Z</time>
      </trkpt>
      <trkpt lat="42.96142" lon="0.21783">
        <ele>1530.01</ele>
        <time>2014-07-01T08:42:37Z</time>
      </trkpt>
      <trkpt lat="42.96142" lon="0.21777">
        <ele>1530.81</ele>
        <time>2014-07-01T08:42:46Z</time>
      </trkpt>
      <trkpt lat="42.9614" lon="0.21771">
        <ele>1527.75</ele>
        <time>2014-07-01T08:42:54Z</time>
      </trkpt>
      <trkpt lat="42.96141" lon="0.21764">
        <ele>1532.52</ele>
        <time>2014-07-01T08:43:03Z</time>
      </trkpt>
      <trkpt lat="42.96141" lon="0.21758">
        <ele>1533.3</ele>
        <time>2014-07-01T08:43:11Z</time>
      </trkpt>
      <trkpt lat="42.96141" lon="0.21752">
        <ele>1534.95</ele>
        <time>2014-07-01T08:43:19Z</time>
      </trkpt>
      <trkpt lat="42.96141" lon="0.21745">
        <ele>1536.17</ele>
        <time>2014-07-01T08:43:30Z</time>
      </trkpt>
      <trkpt lat="42.96141" lon="0.21739">
        <ele>1538.13</ele>
        <time>2014-07-01T08:43:41Z</time>
      </trkpt>
      <trkpt lat="42.96141" lon="0.21732">
        <ele>1539.79</ele>
        <time>2014-07-01T08:43:52Z</time>
      </trkpt>
      <trkpt lat="42.9614" lon="0.21726">
        <ele>1540.76</ele>
        <time>2014-07-01T08:44:00Z</time>
      </trkpt>
      <trkpt lat="42.9614" lon="0.2172">
        <ele>1542.2</ele>
        <time>2014-07-01T08:44:08Z</time>
      </trkpt>
      <trkpt lat="42.96139" lon="0.21714">
        <ele>1543.66</ele>
        <time>2014-07-01T08:44:19Z</time>
      </trkpt>
      <trkpt lat="42.96137" lon="0.21707">
        <ele>1545.13</ele>
        <time>2014-07-01T08:44:33Z</time>
      </trkpt>
      <trkpt lat="42.96136" lon="0.21701">
        <ele>1547.13</ele>
        <time>2014-07-01T08:44:48Z</time>
      </trkpt>
      <trkpt lat="42.96136" lon="0.21694">
        <ele>1547.64</ele>
        <time>2014-07-01T08:44:58Z</time>
      </trkpt>
      <trkpt lat="42.96135" lon="0.21688">
        <ele>1548.87</ele>
        <time>2014-07-01T08:45:06Z</time>
      </trkpt>
      <trkpt lat="42.96135" lon="0.21681">
        <ele>1550.05</ele>
        <time>2014-07-01T08:45:15Z</time>
      </trkpt>
      <trkpt lat="42.96135" lon="0.21674">
        <ele>1550.93</ele>
        <time>2014-07-01T08:45:24Z</time>
      </trkpt>
      <trkpt lat="42.96134" lon="0.21668">
        <ele>1552.99</ele>
        <time>2014-07-01T08:45:36Z</time>
      </trkpt>
      <trkpt lat="42.96134" lon="0.21662">
        <ele>1554.74</ele>
        <time>2014-07-01T08:45:48Z</time>
      </trkpt>
      <trkpt lat="42.96132" lon="0.21656">
        <ele>1556.88</ele>
        <time>2014-07-01T08:46:01Z</time>
      </trkpt>
      <trkpt lat="42.9613" lon="0.21651">
        <ele>1558.5</ele>
        <time>2014-07-01T08:46:16Z</time>
      </trkpt>
      <trkpt lat="42.96127" lon="0.21645">
        <ele>1561.06</ele>
        <time>2014-07-01T08:46:28Z</time>
      </trkpt>
      <trkpt lat="42.96128" lon="0.21639">
        <ele>1562.85</ele>
        <time>2014-07-01T08:46:46Z</time>
      </trkpt>
      <trkpt lat="42.96126" lon="0.21633">
        <ele>1564.58</ele>
        <time>2014-07-01T08:46:59Z</time>
      </trkpt>
      <trkpt lat="42.96122" lon="0.2163">
        <ele>1566.29</ele>
        <time>2014-07-01T08:47:12Z</time>
      </trkpt>
      <trkpt lat="42.96118" lon="0.21627">
        <ele>1569.43</ele>
        <time>2014-07-01T08:47:29Z</time>
      </trkpt>
      <trkpt lat="42.96117" lon="0.21621">
        <ele>1571.08</ele>
        <time>2014-07-01T08:47:41Z</time>
      </trkpt>
      <trkpt lat="42.96117" lon="0.21614">
        <ele>1572.6</ele>
        <time>2014-07-01T08:47:52Z</time>
      </trkpt>
      <trkpt lat="42.96117" lon="0.21607">
        <ele>1574.17</ele>
        <time>2014-07-01T08:48:07Z</time>
      </trkpt>
      <trkpt lat="42.96116" lon="0.21601">
        <ele>1576.33</ele>
        <time>2014-07-01T08:48:26Z</time>
      </trkpt>
      <trkpt lat="42.96116" lon="0.21595">
        <ele>1578.5</ele>
        <time>2014-07-01T08:48:39Z</time>
      </trkpt>
      <trkpt lat="42.96114" lon="0.21589">
        <ele>1580.08</ele>
        <time>2014-07-01T08:48:49Z</time>
      </trkpt>
      <trkpt lat="42.96113" lon="0.21582">
        <ele>1581.66</ele>
        <time>2014-07-01T08:49:07Z</time>
      </trkpt>
      <trkpt lat="42.96113" lon="0.21576">
        <ele>1583.83</ele>
        <time>2014-07-01T08:49:21Z</time>
      </trkpt>
      <trkpt lat="42.96113" lon="0.21569">
        <ele>1584.83</ele>
        <time>2014-07-01T08:49:29Z</time>
      </trkpt>
      <trkpt lat="42.96112" lon="0.21563">
        <ele>1586.33</ele>
        <time>2014-07-01T08:49:39Z</time>
      </trkpt>
      <trkpt lat="42.96111" lon="0.21556">
        <ele>1587.34</ele>
        <time>2014-07-01T08:49:50Z</time>
      </trkpt>
      <trkpt lat="42.96109" lon="0.21551">
        <ele>1588.77</ele>
        <time>2014-07-01T08:50:03Z</time>
      </trkpt>
      <trkpt lat="42.96109" lon="0.21544">
        <ele>1589.86</ele>
        <time>2014-07-01T08:50:12Z</time>
      </trkpt>
      <trkpt lat="42.96108" lon="0.21538">
        <ele>1591.22</ele>
        <time>2014-07-01T08:50:21Z</time>
      </trkpt>
      <trkpt lat="42.96106" lon="0.21532">
        <ele>1592.44</ele>
        <time>2014-07-01T08:50:34Z</time>
      </trkpt>
      <trkpt lat="42.96102" lon="0.21529">
        <ele>1594.97</ele>
        <time>2014-07-01T08:50:46Z</time>
      </trkpt>
      <trkpt lat="42.96098" lon="0.21526">
        <ele>1597.22</ele>
        <time>2014-07-01T08:51:07Z</time>
      </trkpt>
      <trkpt lat="42.96097" lon="0.2152">
        <ele>1597.84</ele>
        <time>2014-07-01T08:51:18Z</time>
      </trkpt>
      <trkpt lat="42.961" lon="0.21514">
        <ele>1599.06</ele>
        <time>2014-07-01T08:51:26Z</time>
      </trkpt>
      <trkpt lat="42.96101" lon="0.21508">
        <ele>1600.45</ele>
        <time>2014-07-01T08:51:36Z</time>
      </trkpt>
      <trkpt lat="42.96103" lon="0.21502">
        <ele>1601.35</ele>
        <time>2014-07-01T08:51:44Z</time>
      </trkpt>
      <trkpt lat="42.96103" lon="0.21496">
        <ele>1602.76</ele>
        <time>2014-07-01T08:51:52Z</time>
      </trkpt>
      <trkpt lat="42.96103" lon="0.2149">
        <ele>1603.83</ele>
        <time>2014-07-01T08:52:01Z</time>
      </trkpt>
      <trkpt lat="42.96101" lon="0.21484">
        <ele>1606.55</ele>
        <time>2014-07-01T08:52:15Z</time>
      </trkpt>
      <trkpt lat="42.96097" lon="0.21482">
        <ele>1607.95</ele>
        <time>2014-07-01T08:52:34Z</time>
      </trkpt>
      <trkpt lat="42.96093" lon="0.2148">
        <ele>1611.07</ele>
        <time>2014-07-01T08:52:50Z</time>
      </trkpt>
      <trkpt lat="42.96088" lon="0.21481">
        <ele>1613.05</ele>
        <time>2014-07-01T08:53:07Z</time>
      </trkpt>
      <trkpt lat="42.96083" lon="0.2148">
        <ele>1615.07</ele>
        <time>2014-07-01T08:53:21Z</time>
      </trkpt>
      <trkpt lat="42.96084" lon="0.21474">
        <ele>1616.98</ele>
        <time>2014-07-01T08:53:33Z</time>
      </trkpt>
      <trkpt lat="42.96081" lon="0.21468">
        <ele>1618.46</ele>
        <time>2014-07-01T08:53:49Z</time>
      </trkpt>
      <trkpt lat="42.96077" lon="0.21467">
        <ele>1619.32</ele>
        <time>2014-07-01T08:54:02Z</time>
      </trkpt>
      <trkpt lat="42.96072" lon="0.21469">
        <ele>1619.32</ele>
        <time>2014-07-01T08:54:11Z</time>
      </trkpt>
      <trkpt lat="42.96068" lon="0.21467">
        <ele>1621.05</ele>
        <time>2014-07-01T08:54:26Z</time>
      </trkpt>
      <trkpt lat="42.96065" lon="0.21463">
        <ele>1623.7</ele>
        <time>2014-07-01T08:54:42Z</time>
      </trkpt>
      <trkpt lat="42.9606" lon="0.2146">
        <ele>1625.92</ele>
        <time>2014-07-01T08:55:08Z</time>
      </trkpt>
      <trkpt lat="42.96058" lon="0.21455">
        <ele>1628.18</ele>
        <time>2014-07-01T08:55:23Z</time>
      </trkpt>
      <trkpt lat="42.96054" lon="0.21451">
        <ele>1631.98</ele>
        <time>2014-07-01T08:55:46Z</time>
      </trkpt>
      <trkpt lat="42.96049" lon="0.2145">
        <ele>1634.72</ele>
        <time>2014-07-01T08:56:00Z</time>
      </trkpt>
      <trkpt lat="42.96045" lon="0.21451">
        <ele>1636.93</ele>
        <time>2014-07-01T08:56:19Z</time>
      </trkpt>
      <trkpt lat="42.96041" lon="0.21448">
        <ele>1640.01</ele>
        <time>2014-07-01T08:56:34Z</time>
      </trkpt>
      <trkpt lat="42.96037" lon="0.21445">
        <ele>1641.98</ele>
        <time>2014-07-01T08:56:50Z</time>
      </trkpt>
      <trkpt lat="42.96032" lon="0.21443">
        <ele>1644.08</ele>
        <time>2014-07-01T08:57:05Z</time>
      </trkpt>
      <trkpt lat="42.9603" lon="0.21437">
        <ele>1645.48</ele>
        <time>2014-07-01T08:57:19Z</time>
      </trkpt>
      <trkpt lat="42.96027" lon="0.21432">
        <ele>1647.81</ele>
        <time>2014-07-01T08:57:32Z</time>
      </trkpt>
      <trkpt lat="42.96024" lon="0.21427">
        <ele>1649.98</ele>
        <time>2014-07-01T08:57:47Z</time>
      </trkpt>
      <trkpt lat="42.96023" lon="0.21422">
        <ele>1651.43</ele>
        <time>2014-07-01T08:58:05Z</time>
      </trkpt>
      <trkpt lat="42.96023" lon="0.21415">
        <ele>1653.1</ele>
        <time>2014-07-01T08:58:19Z</time>
      </trkpt>
      <trkpt lat="42.96024" lon="0.21409">
        <ele>1653.95</ele>
        <time>2014-07-01T08:58:30Z</time>
      </trkpt>
      <trkpt lat="42.96022" lon="0.21403">
        <ele>1655.98</ele>
        <time>2014-07-01T08:58:50Z</time>
      </trkpt>
      <trkpt lat="42.96019" lon="0.21397">
        <ele>1657.86</ele>
        <time>2014-07-01T08:59:06Z</time>
      </trkpt>
      <trkpt lat="42.96018" lon="0.21391">
        <ele>1659.57</ele>
        <time>2014-07-01T08:59:23Z</time>
      </trkpt>
      <trkpt lat="42.96014" lon="0.21387">
        <ele>1660.95</ele>
        <time>2014-07-01T08:59:36Z</time>
      </trkpt>
      <trkpt lat="42.96013" lon="0.21381">
        <ele>1663.14</ele>
        <time>2014-07-01T08:59:49Z</time>
      </trkpt>
      <trkpt lat="42.96012" lon="0.21374">
        <ele>1665.02</ele>
        <time>2014-07-01T09:00:03Z</time>
      </trkpt>
      <trkpt lat="42.9601" lon="0.21369">
        <ele>1665.97</ele>
        <time>2014-07-01T09:00:12Z</time>
      </trkpt>
      <trkpt lat="42.96007" lon="0.21363">
        <ele>1666.8</ele>
        <time>2014-07-01T09:00:22Z</time>
      </trkpt>
      <trkpt lat="42.96007" lon="0.21357">
        <ele>1668.76</ele>
        <time>2014-07-01T09:00:32Z</time>
      </trkpt>
      <trkpt lat="42.96006" lon="0.21351">
        <ele>1670.37</ele>
        <time>2014-07-01T09:00:46Z</time>
      </trkpt>
      <trkpt lat="42.96005" lon="0.21344">
        <ele>1669.36</ele>
        <time>2014-07-01T09:00:58Z</time>
      </trkpt>
      <trkpt lat="42.96003" lon="0.21338">
        <ele>1674.23</ele>
        <time>2014-07-01T09:01:11Z</time>
      </trkpt>
      <trkpt lat="42.96001" lon="0.21333">
        <ele>1676.03</ele>
        <time>2014-07-01T09:01:27Z</time>
      </trkpt>
      <trkpt lat="42.95998" lon="0.21327">
        <ele>1677.33</ele>
        <time>2014-07-01T09:01:40Z</time>
      </trkpt>
      <trkpt lat="42.95997" lon="0.21321">
        <ele>1679.48</ele>
        <time>2014-07-01T09:01:57Z</time>
      </trkpt>
      <trkpt lat="42.95996" lon="0.21315">
        <ele>1679.81</ele>
        <time>2014-07-01T09:02:09Z</time>
      </trkpt>
      <trkpt lat="42.95997" lon="0.21308">
        <ele>1681.8</ele>
        <time>2014-07-01T09:02:24Z</time>
      </trkpt>
      <trkpt lat="42.95997" lon="0.21302">
        <ele>1683.59</ele>
        <time>2014-07-01T09:02:35Z</time>
      </trkpt>
      <trkpt lat="42.95996" lon="0.21296">
        <ele>1685.99</ele>
        <time>2014-07-01T09:02:49Z</time>
      </trkpt>
      <trkpt lat="42.95996" lon="0.2129">
        <ele>1688.36</ele>
        <time>2014-07-01T09:03:03Z</time>
      </trkpt>
      <trkpt lat="42.95996" lon="0.21283">
        <ele>1691.62</ele>
        <time>2014-07-01T09:03:19Z</time>
      </trkpt>
      <trkpt lat="42.95995" lon="0.21277">
        <ele>1693.82</ele>
        <time>2014-07-01T09:03:37Z</time>
      </trkpt>
      <trkpt lat="42.95993" lon="0.21271">
        <ele>1691.89</ele>
        <time>2014-07-01T09:03:55Z</time>
      </trkpt>
      <trkpt lat="42.95992" lon="0.21265">
        <ele>1698.36</ele>
        <time>2014-07-01T09:04:09Z</time>
      </trkpt>
      <trkpt lat="42.9599" lon="0.21259">
        <ele>1700.15</ele>
        <time>2014-07-01T09:04:21Z</time>
      </trkpt>
      <trkpt lat="42.95987" lon="0.21254">
        <ele>1701.4</ele>
        <time>2014-07-01T09:04:33Z</time>
      </trkpt>
      <trkpt lat="42.95988" lon="0.21248">
        <ele>1704.17</ele>
        <time>2014-07-01T09:16:31Z</time>
      </trkpt>
      <trkpt lat="42.95984" lon="0.21244">
        <ele>1702.7</ele>
        <time>2014-07-01T09:17:25Z</time>
      </trkpt>
      <trkpt lat="42.95982" lon="0.21239">
        <ele>1704.26</ele>
        <time>2014-07-01T09:17:30Z</time>
      </trkpt>
      <trkpt lat="42.95979" lon="0.21233">
        <ele>1704.85</ele>
        <time>2014-07-01T09:17:35Z</time>
      </trkpt>
      <trkpt lat="42.95977" lon="0.21227">
        <ele>1704.76</ele>
        <time>2014-07-01T09:17:41Z</time>
      </trkpt>
      <trkpt lat="42.95976" lon="0.21221">
        <ele>1706</ele>
        <time>2014-07-01T09:17:48Z</time>
      </trkpt>
      <trkpt lat="42.95972" lon="0.21216">
        <ele>1706.55</ele>
        <time>2014-07-01T09:17:54Z</time>
      </trkpt>
      <trkpt lat="42.9597" lon="0.2121">
        <ele>1706.64</ele>
        <time>2014-07-01T09:18:00Z</time>
      </trkpt>
      <trkpt lat="42.95967" lon="0.21204">
        <ele>1707.06</ele>
        <time>2014-07-01T09:18:06Z</time>
      </trkpt>
      <trkpt lat="42.95965" lon="0.21198">
        <ele>1707.54</ele>
        <time>2014-07-01T09:18:11Z</time>
      </trkpt>
      <trkpt lat="42.95963" lon="0.21193">
        <ele>1708.44</ele>
        <time>2014-07-01T09:18:16Z</time>
      </trkpt>
      <trkpt lat="42.9596" lon="0.21188">
        <ele>1708.02</ele>
        <time>2014-07-01T09:18:21Z</time>
      </trkpt>
      <trkpt lat="42.95957" lon="0.21182">
        <ele>1708.59</ele>
        <time>2014-07-01T09:18:27Z</time>
      </trkpt>
      <trkpt lat="42.95954" lon="0.21177">
        <ele>1709.93</ele>
        <time>2014-07-01T09:18:33Z</time>
      </trkpt>
      <trkpt lat="42.95953" lon="0.2117">
        <ele>1710.9</ele>
        <time>2014-07-01T09:18:40Z</time>
      </trkpt>
      <trkpt lat="42.95952" lon="0.21164">
        <ele>1711.1</ele>
        <time>2014-07-01T09:18:47Z</time>
      </trkpt>
      <trkpt lat="42.9595" lon="0.21158">
        <ele>1711.37</ele>
        <time>2014-07-01T09:18:54Z</time>
      </trkpt>
      <trkpt lat="42.95946" lon="0.21154">
        <ele>1711.72</ele>
        <time>2014-07-01T09:19:00Z</time>
      </trkpt>
      <trkpt lat="42.95945" lon="0.21148">
        <ele>1712.47</ele>
        <time>2014-07-01T09:19:07Z</time>
      </trkpt>
      <trkpt lat="42.95944" lon="0.21142">
        <ele>1712.89</ele>
        <time>2014-07-01T09:19:14Z</time>
      </trkpt>
      <trkpt lat="42.95943" lon="0.21135">
        <ele>1712.96</ele>
        <time>2014-07-01T09:19:20Z</time>
      </trkpt>
      <trkpt lat="42.95941" lon="0.21129">
        <ele>1713.29</ele>
        <time>2014-07-01T09:19:26Z</time>
      </trkpt>
      <trkpt lat="42.9594" lon="0.21122">
        <ele>1713.45</ele>
        <time>2014-07-01T09:19:32Z</time>
      </trkpt>
      <trkpt lat="42.95938" lon="0.21115">
        <ele>1713.4</ele>
        <time>2014-07-01T09:19:38Z</time>
      </trkpt>
      <trkpt lat="42.95935" lon="0.21109">
        <ele>1713.25</ele>
        <time>2014-07-01T09:19:44Z</time>
      </trkpt>
      <trkpt lat="42.95932" lon="0.21103">
        <ele>1713.35</ele>
        <time>2014-07-01T09:19:50Z</time>
      </trkpt>
      <trkpt lat="42.9593" lon="0.21097">
        <ele>1713.7</ele>
        <time>2014-07-01T09:19:55Z</time>
      </trkpt>
      <trkpt lat="42.95928" lon="0.21091">
        <ele>1715.72</ele>
        <time>2014-07-01T09:20:01Z</time>
      </trkpt>
      <trkpt lat="42.95925" lon="0.21086">
        <ele>1716.52</ele>
        <time>2014-07-01T09:20:08Z</time>
      </trkpt>
      <trkpt lat="42.95923" lon="0.2108">
        <ele>1716.79</ele>
        <time>2014-07-01T09:20:14Z</time>
      </trkpt>
      <trkpt lat="42.95921" lon="0.21074">
        <ele>1716.8</ele>
        <time>2014-07-01T09:20:20Z</time>
      </trkpt>
      <trkpt lat="42.9592" lon="0.21067">
        <ele>1717.85</ele>
        <time>2014-07-01T09:20:26Z</time>
      </trkpt>
      <trkpt lat="42.95918" lon="0.2106">
        <ele>1718.31</ele>
        <time>2014-07-01T09:20:32Z</time>
      </trkpt>
      <trkpt lat="42.95917" lon="0.21054">
        <ele>1719.04</ele>
        <time>2014-07-01T09:20:38Z</time>
      </trkpt>
      <trkpt lat="42.95916" lon="0.21047">
        <ele>1719.65</ele>
        <time>2014-07-01T09:20:45Z</time>
      </trkpt>
      <trkpt lat="42.95916" lon="0.21041">
        <ele>1719.82</ele>
        <time>2014-07-01T09:20:51Z</time>
      </trkpt>
      <trkpt lat="42.95915" lon="0.21034">
        <ele>1720.23</ele>
        <time>2014-07-01T09:20:58Z</time>
      </trkpt>
      <trkpt lat="42.95915" lon="0.21028">
        <ele>1721.04</ele>
        <time>2014-07-01T09:21:05Z</time>
      </trkpt>
      <trkpt lat="42.95915" lon="0.21021">
        <ele>1721.71</ele>
        <time>2014-07-01T09:21:12Z</time>
      </trkpt>
      <trkpt lat="42.95915" lon="0.21014">
        <ele>1722.44</ele>
        <time>2014-07-01T09:21:19Z</time>
      </trkpt>
      <trkpt lat="42.95915" lon="0.21007">
        <ele>1723.9</ele>
        <time>2014-07-01T09:21:26Z</time>
      </trkpt>
      <trkpt lat="42.95915" lon="0.21">
        <ele>1724.81</ele>
        <time>2014-07-01T09:21:33Z</time>
      </trkpt>
      <trkpt lat="42.95915" lon="0.20994">
        <ele>1724.82</ele>
        <time>2014-07-01T09:21:43Z</time>
      </trkpt>
      <trkpt lat="42.95916" lon="0.20987">
        <ele>1726.2</ele>
        <time>2014-07-01T09:21:49Z</time>
      </trkpt>
      <trkpt lat="42.95918" lon="0.2098">
        <ele>1726.72</ele>
        <time>2014-07-01T09:21:55Z</time>
      </trkpt>
      <trkpt lat="42.9592" lon="0.20974">
        <ele>1727.62</ele>
        <time>2014-07-01T09:22:01Z</time>
      </trkpt>
      <trkpt lat="42.95921" lon="0.20967">
        <ele>1728.2</ele>
        <time>2014-07-01T09:22:07Z</time>
      </trkpt>
      <trkpt lat="42.95922" lon="0.20961">
        <ele>1728.39</ele>
        <time>2014-07-01T09:22:13Z</time>
      </trkpt>
      <trkpt lat="42.95923" lon="0.20954">
        <ele>1727.6</ele>
        <time>2014-07-01T09:22:19Z</time>
      </trkpt>
      <trkpt lat="42.95924" lon="0.20947">
        <ele>1727.28</ele>
        <time>2014-07-01T09:22:25Z</time>
      </trkpt>
      <trkpt lat="42.95924" lon="0.2094">
        <ele>1727.59</ele>
        <time>2014-07-01T09:22:31Z</time>
      </trkpt>
      <trkpt lat="42.95926" lon="0.20934">
        <ele>1727.87</ele>
        <time>2014-07-01T09:22:36Z</time>
      </trkpt>
      <trkpt lat="42.95928" lon="0.20928">
        <ele>1728.23</ele>
        <time>2014-07-01T09:22:42Z</time>
      </trkpt>
      <trkpt lat="42.95931" lon="0.20923">
        <ele>1728.83</ele>
        <time>2014-07-01T09:22:48Z</time>
      </trkpt>
      <trkpt lat="42.95933" lon="0.20917">
        <ele>1730.03</ele>
        <time>2014-07-01T09:22:55Z</time>
      </trkpt>
      <trkpt lat="42.95934" lon="0.2091">
        <ele>1730.38</ele>
        <time>2014-07-01T09:23:02Z</time>
      </trkpt>
      <trkpt lat="42.95935" lon="0.20903">
        <ele>1730.87</ele>
        <time>2014-07-01T09:23:09Z</time>
      </trkpt>
      <trkpt lat="42.95936" lon="0.20897">
        <ele>1730.22</ele>
        <time>2014-07-01T09:23:16Z</time>
      </trkpt>
      <trkpt lat="42.95937" lon="0.2089">
        <ele>1731.2</ele>
        <time>2014-07-01T09:23:23Z</time>
      </trkpt>
      <trkpt lat="42.95937" lon="0.20884">
        <ele>1732.82</ele>
        <time>2014-07-01T09:23:29Z</time>
      </trkpt>
      <trkpt lat="42.95938" lon="0.20877">
        <ele>1733.89</ele>
        <time>2014-07-01T09:23:35Z</time>
      </trkpt>
      <trkpt lat="42.95939" lon="0.2087">
        <ele>1734.81</ele>
        <time>2014-07-01T09:23:41Z</time>
      </trkpt>
      <trkpt lat="42.95941" lon="0.20864">
        <ele>1735.79</ele>
        <time>2014-07-01T09:23:47Z</time>
      </trkpt>
      <trkpt lat="42.95942" lon="0.20858">
        <ele>1736.31</ele>
        <time>2014-07-01T09:23:53Z</time>
      </trkpt>
      <trkpt lat="42.95944" lon="0.20851">
        <ele>1736.22</ele>
        <time>2014-07-01T09:23:59Z</time>
      </trkpt>
      <trkpt lat="42.95947" lon="0.20845">
        <ele>1736.42</ele>
        <time>2014-07-01T09:24:05Z</time>
      </trkpt>
      <trkpt lat="42.95948" lon="0.20839">
        <ele>1737.31</ele>
        <time>2014-07-01T09:24:10Z</time>
      </trkpt>
      <trkpt lat="42.9595" lon="0.20833">
        <ele>1737.86</ele>
        <time>2014-07-01T09:24:15Z</time>
      </trkpt>
      <trkpt lat="42.95951" lon="0.20826">
        <ele>1738.33</ele>
        <time>2014-07-01T09:24:21Z</time>
      </trkpt>
      <trkpt lat="42.95953" lon="0.2082">
        <ele>1737.19</ele>
        <time>2014-07-01T09:24:27Z</time>
      </trkpt>
      <trkpt lat="42.95954" lon="0.20813">
        <ele>1738.52</ele>
        <time>2014-07-01T09:24:34Z</time>
      </trkpt>
      <trkpt lat="42.95958" lon="0.20808">
        <ele>1738.19</ele>
        <time>2014-07-01T09:24:43Z</time>
      </trkpt>
      <trkpt lat="42.95959" lon="0.20802">
        <ele>1737.59</ele>
        <time>2014-07-01T09:24:48Z</time>
      </trkpt>
      <trkpt lat="42.95961" lon="0.20796">
        <ele>1738.08</ele>
        <time>2014-07-01T09:24:54Z</time>
      </trkpt>
      <trkpt lat="42.95963" lon="0.2079">
        <ele>1738.82</ele>
        <time>2014-07-01T09:25:00Z</time>
      </trkpt>
      <trkpt lat="42.95964" lon="0.20783">
        <ele>1736.02</ele>
        <time>2014-07-01T09:25:05Z</time>
      </trkpt>
      <trkpt lat="42.95966" lon="0.20777">
        <ele>1738.19</ele>
        <time>2014-07-01T09:25:11Z</time>
      </trkpt>
      <trkpt lat="42.95968" lon="0.20771">
        <ele>1739.46</ele>
        <time>2014-07-01T09:25:17Z</time>
      </trkpt>
      <trkpt lat="42.95971" lon="0.20766">
        <ele>1741.04</ele>
        <time>2014-07-01T09:25:23Z</time>
      </trkpt>
      <trkpt lat="42.95973" lon="0.20761">
        <ele>1735.28</ele>
        <time>2014-07-01T09:25:29Z</time>
      </trkpt>
      <trkpt lat="42.95975" lon="0.20754">
        <ele>1741.18</ele>
        <time>2014-07-01T09:25:35Z</time>
      </trkpt>
      <trkpt lat="42.95977" lon="0.20748">
        <ele>1742.47</ele>
        <time>2014-07-01T09:25:41Z</time>
      </trkpt>
      <trkpt lat="42.95978" lon="0.20741">
        <ele>1741.87</ele>
        <time>2014-07-01T09:25:47Z</time>
      </trkpt>
      <trkpt lat="42.9598" lon="0.20734">
        <ele>1742.54</ele>
        <time>2014-07-01T09:25:53Z</time>
      </trkpt>
      <trkpt lat="42.95983" lon="0.20729">
        <ele>1742.54</ele>
        <time>2014-07-01T09:26:05Z</time>
      </trkpt>
      <trkpt lat="42.95985" lon="0.20723">
        <ele>1743.65</ele>
        <time>2014-07-01T09:26:11Z</time>
      </trkpt>
      <trkpt lat="42.95986" lon="0.20717">
        <ele>1743.24</ele>
        <time>2014-07-01T09:26:16Z</time>
      </trkpt>
      <trkpt lat="42.95987" lon="0.2071">
        <ele>1743.35</ele>
        <time>2014-07-01T09:26:22Z</time>
      </trkpt>
      <trkpt lat="42.95989" lon="0.20703">
        <ele>1743.8</ele>
        <time>2014-07-01T09:26:28Z</time>
      </trkpt>
      <trkpt lat="42.9599" lon="0.20696">
        <ele>1743.79</ele>
        <time>2014-07-01T09:26:34Z</time>
      </trkpt>
      <trkpt lat="42.95992" lon="0.20689">
        <ele>1744.89</ele>
        <time>2014-07-01T09:26:40Z</time>
      </trkpt>
      <trkpt lat="42.95994" lon="0.20683">
        <ele>1744.51</ele>
        <time>2014-07-01T09:26:45Z</time>
      </trkpt>
      <trkpt lat="42.95995" lon="0.20677">
        <ele>1744.65</ele>
        <time>2014-07-01T09:26:50Z</time>
      </trkpt>
      <trkpt lat="42.95997" lon="0.20671">
        <ele>1744.99</ele>
        <time>2014-07-01T09:26:55Z</time>
      </trkpt>
      <trkpt lat="42.95998" lon="0.20665">
        <ele>1745.4</ele>
        <time>2014-07-01T09:27:00Z</time>
      </trkpt>
      <trkpt lat="42.96" lon="0.20659">
        <ele>1745.32</ele>
        <time>2014-07-01T09:27:05Z</time>
      </trkpt>
      <trkpt lat="42.96004" lon="0.20654">
        <ele>1744.92</ele>
        <time>2014-07-01T09:27:10Z</time>
      </trkpt>
      <trkpt lat="42.96005" lon="0.20647">
        <ele>1738.46</ele>
        <time>2014-07-01T09:27:15Z</time>
      </trkpt>
      <trkpt lat="42.96005" lon="0.20641">
        <ele>1741.4</ele>
        <time>2014-07-01T09:27:20Z</time>
      </trkpt>
      <trkpt lat="42.96006" lon="0.20635">
        <ele>1744.37</ele>
        <time>2014-07-01T09:27:25Z</time>
      </trkpt>
      <trkpt lat="42.96007" lon="0.20629">
        <ele>1744.74</ele>
        <time>2014-07-01T09:27:30Z</time>
      </trkpt>
      <trkpt lat="42.96008" lon="0.20621">
        <ele>1745.19</ele>
        <time>2014-07-01T09:27:36Z</time>
      </trkpt>
      <trkpt lat="42.96008" lon="0.20615">
        <ele>1745.42</ele>
        <time>2014-07-01T09:27:41Z</time>
      </trkpt>
      <trkpt lat="42.9601" lon="0.20608">
        <ele>1745.8</ele>
        <time>2014-07-01T09:27:47Z</time>
      </trkpt>
      <trkpt lat="42.96011" lon="0.20602">
        <ele>1746.52</ele>
        <time>2014-07-01T09:27:53Z</time>
      </trkpt>
      <trkpt lat="42.96011" lon="0.20596">
        <ele>1747.65</ele>
        <time>2014-07-01T09:27:59Z</time>
      </trkpt>
      <trkpt lat="42.96012" lon="0.2059">
        <ele>1747.58</ele>
        <time>2014-07-01T09:28:05Z</time>
      </trkpt>
      <trkpt lat="42.96014" lon="0.20583">
        <ele>1748.81</ele>
        <time>2014-07-01T09:28:12Z</time>
      </trkpt>
      <trkpt lat="42.96015" lon="0.20576">
        <ele>1749.43</ele>
        <time>2014-07-01T09:28:19Z</time>
      </trkpt>
      <trkpt lat="42.96016" lon="0.2057">
        <ele>1749.84</ele>
        <time>2014-07-01T09:28:25Z</time>
      </trkpt>
      <trkpt lat="42.96016" lon="0.20563">
        <ele>1750.87</ele>
        <time>2014-07-01T09:28:32Z</time>
      </trkpt>
      <trkpt lat="42.96015" lon="0.20557">
        <ele>1751.57</ele>
        <time>2014-07-01T09:28:38Z</time>
      </trkpt>
      <trkpt lat="42.96017" lon="0.2055">
        <ele>1751.55</ele>
        <time>2014-07-01T09:28:45Z</time>
      </trkpt>
      <trkpt lat="42.96019" lon="0.20545">
        <ele>1752.55</ele>
        <time>2014-07-01T09:28:53Z</time>
      </trkpt>
      <trkpt lat="42.96021" lon="0.20539">
        <ele>1752.43</ele>
        <time>2014-07-01T09:28:59Z</time>
      </trkpt>
      <trkpt lat="42.96022" lon="0.20533">
        <ele>1751.36</ele>
        <time>2014-07-01T09:29:04Z</time>
      </trkpt>
      <trkpt lat="42.96023" lon="0.20526">
        <ele>1751.49</ele>
        <time>2014-07-01T09:29:09Z</time>
      </trkpt>
      <trkpt lat="42.96025" lon="0.20521">
        <ele>1752.78</ele>
        <time>2014-07-01T09:29:14Z</time>
      </trkpt>
      <trkpt lat="42.96027" lon="0.20514">
        <ele>1752.65</ele>
        <time>2014-07-01T09:29:20Z</time>
      </trkpt>
      <trkpt lat="42.96028" lon="0.20508">
        <ele>1752.84</ele>
        <time>2014-07-01T09:29:37Z</time>
      </trkpt>
      <trkpt lat="42.96028" lon="0.20501">
        <ele>1754.76</ele>
        <time>2014-07-01T09:35:04Z</time>
      </trkpt>
      <trkpt lat="42.96026" lon="0.20495">
        <ele>1755.31</ele>
        <time>2014-07-01T09:35:11Z</time>
      </trkpt>
      <trkpt lat="42.96026" lon="0.20489">
        <ele>1756.67</ele>
        <time>2014-07-01T09:35:18Z</time>
      </trkpt>
      <trkpt lat="42.96024" lon="0.20483">
        <ele>1759.32</ele>
        <time>2014-07-01T09:35:25Z</time>
      </trkpt>
      <trkpt lat="42.9602" lon="0.20478">
        <ele>1760.12</ele>
        <time>2014-07-01T09:35:31Z</time>
      </trkpt>
      <trkpt lat="42.96017" lon="0.20472">
        <ele>1759.82</ele>
        <time>2014-07-01T09:35:38Z</time>
      </trkpt>
      <trkpt lat="42.96016" lon="0.20466">
        <ele>1759.63</ele>
        <time>2014-07-01T09:35:44Z</time>
      </trkpt>
      <trkpt lat="42.96013" lon="0.20459">
        <ele>1759.03</ele>
        <time>2014-07-01T09:35:50Z</time>
      </trkpt>
      <trkpt lat="42.96011" lon="0.20454">
        <ele>1758.83</ele>
        <time>2014-07-01T09:35:56Z</time>
      </trkpt>
      <trkpt lat="42.96008" lon="0.20448">
        <ele>1759.08</ele>
        <time>2014-07-01T09:36:02Z</time>
      </trkpt>
      <trkpt lat="42.96004" lon="0.20443">
        <ele>1758.83</ele>
        <time>2014-07-01T09:36:08Z</time>
      </trkpt>
      <trkpt lat="42.96001" lon="0.20438">
        <ele>1759.64</ele>
        <time>2014-07-01T09:36:13Z</time>
      </trkpt>
      <trkpt lat="42.95997" lon="0.20434">
        <ele>1759.71</ele>
        <time>2014-07-01T09:36:19Z</time>
      </trkpt>
      <trkpt lat="42.95993" lon="0.20429">
        <ele>1760.25</ele>
        <time>2014-07-01T09:36:25Z</time>
      </trkpt>
      <trkpt lat="42.95991" lon="0.20423">
        <ele>1761.56</ele>
        <time>2014-07-01T09:36:35Z</time>
      </trkpt>
      <trkpt lat="42.95989" lon="0.20418">
        <ele>1763.73</ele>
        <time>2014-07-01T09:36:43Z</time>
      </trkpt>
      <trkpt lat="42.95986" lon="0.20413">
        <ele>1763.76</ele>
        <time>2014-07-01T09:36:49Z</time>
      </trkpt>
      <trkpt lat="42.95984" lon="0.20406">
        <ele>1765.02</ele>
        <time>2014-07-01T09:36:55Z</time>
      </trkpt>
      <trkpt lat="42.95983" lon="0.204">
        <ele>1766.83</ele>
        <time>2014-07-01T09:37:03Z</time>
      </trkpt>
      <trkpt lat="42.95981" lon="0.20393">
        <ele>1767.98</ele>
        <time>2014-07-01T09:37:10Z</time>
      </trkpt>
      <trkpt lat="42.95978" lon="0.20387">
        <ele>1769.5</ele>
        <time>2014-07-01T09:37:17Z</time>
      </trkpt>
      <trkpt lat="42.95977" lon="0.20381">
        <ele>1770.58</ele>
        <time>2014-07-01T09:37:24Z</time>
      </trkpt>
      <trkpt lat="42.95975" lon="0.20375">
        <ele>1770.73</ele>
        <time>2014-07-01T09:37:31Z</time>
      </trkpt>
      <trkpt lat="42.95972" lon="0.20369">
        <ele>1771.08</ele>
        <time>2014-07-01T09:37:38Z</time>
      </trkpt>
      <trkpt lat="42.95969" lon="0.20364">
        <ele>1771.01</ele>
        <time>2014-07-01T09:37:44Z</time>
      </trkpt>
      <trkpt lat="42.95967" lon="0.20359">
        <ele>1771.69</ele>
        <time>2014-07-01T09:37:49Z</time>
      </trkpt>
      <trkpt lat="42.95964" lon="0.20353">
        <ele>1771.68</ele>
        <time>2014-07-01T09:37:54Z</time>
      </trkpt>
      <trkpt lat="42.95961" lon="0.20349">
        <ele>1772.52</ele>
        <time>2014-07-01T09:38:00Z</time>
      </trkpt>
      <trkpt lat="42.95956" lon="0.20346">
        <ele>1773.32</ele>
        <time>2014-07-01T09:38:07Z</time>
      </trkpt>
      <trkpt lat="42.95954" lon="0.2034">
        <ele>1774.37</ele>
        <time>2014-07-01T09:38:15Z</time>
      </trkpt>
      <trkpt lat="42.95951" lon="0.20335">
        <ele>1776.47</ele>
        <time>2014-07-01T09:38:27Z</time>
      </trkpt>
      <trkpt lat="42.95949" lon="0.20329">
        <ele>1776.95</ele>
        <time>2014-07-01T09:38:39Z</time>
      </trkpt>
      <trkpt lat="42.95946" lon="0.20323">
        <ele>1778.19</ele>
        <time>2014-07-01T09:38:51Z</time>
      </trkpt>
      <trkpt lat="42.95943" lon="0.20318">
        <ele>1778.47</ele>
        <time>2014-07-01T09:39:03Z</time>
      </trkpt>
      <trkpt lat="42.9594" lon="0.20315">
        <ele>1780.61</ele>
        <time>2014-07-01T09:39:13Z</time>
      </trkpt>
      <trkpt lat="42.95936" lon="0.2031">
        <ele>1781.17</ele>
        <time>2014-07-01T09:39:21Z</time>
      </trkpt>
      <trkpt lat="42.95932" lon="0.20305">
        <ele>1782.22</ele>
        <time>2014-07-01T09:39:33Z</time>
      </trkpt>
      <trkpt lat="42.95929" lon="0.20301">
        <ele>1781.89</ele>
        <time>2014-07-01T09:39:42Z</time>
      </trkpt>
      <trkpt lat="42.95925" lon="0.20297">
        <ele>1781.54</ele>
        <time>2014-07-01T09:39:51Z</time>
      </trkpt>
      <trkpt lat="42.95922" lon="0.20292">
        <ele>1780.81</ele>
        <time>2014-07-01T09:39:59Z</time>
      </trkpt>
      <trkpt lat="42.95918" lon="0.20287">
        <ele>1782.83</ele>
        <time>2014-07-01T09:40:07Z</time>
      </trkpt>
      <trkpt lat="42.95915" lon="0.20283">
        <ele>1783.15</ele>
        <time>2014-07-01T09:40:15Z</time>
      </trkpt>
      <trkpt lat="42.95911" lon="0.20279">
        <ele>1783.38</ele>
        <time>2014-07-01T09:40:23Z</time>
      </trkpt>
      <trkpt lat="42.95908" lon="0.20275">
        <ele>1783.6</ele>
        <time>2014-07-01T09:40:31Z</time>
      </trkpt>
      <trkpt lat="42.95905" lon="0.2027">
        <ele>1785.25</ele>
        <time>2014-07-01T09:40:41Z</time>
      </trkpt>
      <trkpt lat="42.95902" lon="0.20266">
        <ele>1785.97</ele>
        <time>2014-07-01T09:40:49Z</time>
      </trkpt>
      <trkpt lat="42.959" lon="0.2026">
        <ele>1787.14</ele>
        <time>2014-07-01T09:41:00Z</time>
      </trkpt>
      <trkpt lat="42.95897" lon="0.20255">
        <ele>1790.22</ele>
        <time>2014-07-01T09:41:11Z</time>
      </trkpt>
      <trkpt lat="42.95894" lon="0.20249">
        <ele>1791.31</ele>
        <time>2014-07-01T09:41:21Z</time>
      </trkpt>
      <trkpt lat="42.95893" lon="0.20243">
        <ele>1791.49</ele>
        <time>2014-07-01T09:41:31Z</time>
      </trkpt>
      <trkpt lat="42.95891" lon="0.20236">
        <ele>1793.86</ele>
        <time>2014-07-01T09:41:41Z</time>
      </trkpt>
      <trkpt lat="42.95888" lon="0.20232">
        <ele>1794.66</ele>
        <time>2014-07-01T09:41:54Z</time>
      </trkpt>
      <trkpt lat="42.95886" lon="0.20226">
        <ele>1797.01</ele>
        <time>2014-07-01T09:42:05Z</time>
      </trkpt>
      <trkpt lat="42.95882" lon="0.20222">
        <ele>1799.77</ele>
        <time>2014-07-01T09:42:21Z</time>
      </trkpt>
      <trkpt lat="42.95878" lon="0.20219">
        <ele>1805.19</ele>
        <time>2014-07-01T09:42:45Z</time>
      </trkpt>
      <trkpt lat="42.95874" lon="0.20216">
        <ele>1805.52</ele>
        <time>2014-07-01T09:43:08Z</time>
      </trkpt>
      <trkpt lat="42.95869" lon="0.20215">
        <ele>1807</ele>
        <time>2014-07-01T09:43:22Z</time>
      </trkpt>
      <trkpt lat="42.95865" lon="0.20213">
        <ele>1810</ele>
        <time>2014-07-01T09:43:29Z</time>
      </trkpt>
      <trkpt lat="42.95861" lon="0.20209">
        <ele>1810.97</ele>
        <time>2014-07-01T09:43:41Z</time>
      </trkpt>
      <trkpt lat="42.95858" lon="0.20203">
        <ele>1812.02</ele>
        <time>2014-07-01T09:43:49Z</time>
      </trkpt>
      <trkpt lat="42.95855" lon="0.20197">
        <ele>1812.37</ele>
        <time>2014-07-01T09:43:54Z</time>
      </trkpt>
      <trkpt lat="42.95854" lon="0.20191">
        <ele>1812.57</ele>
        <time>2014-07-01T09:43:59Z</time>
      </trkpt>
      <trkpt lat="42.9585" lon="0.20186">
        <ele>1812.42</ele>
        <time>2014-07-01T09:44:04Z</time>
      </trkpt>
      <trkpt lat="42.95848" lon="0.2018">
        <ele>1813.39</ele>
        <time>2014-07-01T09:44:10Z</time>
      </trkpt>
      <trkpt lat="42.95847" lon="0.20173">
        <ele>1814.02</ele>
        <time>2014-07-01T09:44:16Z</time>
      </trkpt>
      <trkpt lat="42.95846" lon="0.20167">
        <ele>1814.05</ele>
        <time>2014-07-01T09:44:22Z</time>
      </trkpt>
      <trkpt lat="42.95845" lon="0.20161">
        <ele>1814.09</ele>
        <time>2014-07-01T09:44:28Z</time>
      </trkpt>
      <trkpt lat="42.95843" lon="0.20155">
        <ele>1814.33</ele>
        <time>2014-07-01T09:44:34Z</time>
      </trkpt>
      <trkpt lat="42.95841" lon="0.20148">
        <ele>1814.56</ele>
        <time>2014-07-01T09:44:40Z</time>
      </trkpt>
      <trkpt lat="42.9584" lon="0.20142">
        <ele>1814.89</ele>
        <time>2014-07-01T09:44:46Z</time>
      </trkpt>
      <trkpt lat="42.95837" lon="0.20137">
        <ele>1814.21</ele>
        <time>2014-07-01T09:44:53Z</time>
      </trkpt>
      <trkpt lat="42.95835" lon="0.20131">
        <ele>1814.29</ele>
        <time>2014-07-01T09:45:00Z</time>
      </trkpt>
      <trkpt lat="42.95832" lon="0.20126">
        <ele>1815.01</ele>
        <time>2014-07-01T09:45:07Z</time>
      </trkpt>
      <trkpt lat="42.95828" lon="0.20121">
        <ele>1814.4</ele>
        <time>2014-07-01T09:45:13Z</time>
      </trkpt>
      <trkpt lat="42.95826" lon="0.20116">
        <ele>1814.84</ele>
        <time>2014-07-01T09:45:19Z</time>
      </trkpt>
      <trkpt lat="42.95822" lon="0.20112">
        <ele>1814.81</ele>
        <time>2014-07-01T09:45:26Z</time>
      </trkpt>
      <trkpt lat="42.95818" lon="0.20107">
        <ele>1815.34</ele>
        <time>2014-07-01T09:45:32Z</time>
      </trkpt>
      <trkpt lat="42.95815" lon="0.20102">
        <ele>1815.04</ele>
        <time>2014-07-01T09:45:38Z</time>
      </trkpt>
      <trkpt lat="42.95811" lon="0.20098">
        <ele>1815.79</ele>
        <time>2014-07-01T09:45:44Z</time>
      </trkpt>
      <trkpt lat="42.95808" lon="0.20093">
        <ele>1816.17</ele>
        <time>2014-07-01T09:45:50Z</time>
      </trkpt>
      <trkpt lat="42.95805" lon="0.20087">
        <ele>1816.9</ele>
        <time>2014-07-01T09:45:56Z</time>
      </trkpt>
      <trkpt lat="42.95804" lon="0.20081">
        <ele>1817.37</ele>
        <time>2014-07-01T09:46:02Z</time>
      </trkpt>
      <trkpt lat="42.95802" lon="0.20075">
        <ele>1818.57</ele>
        <time>2014-07-01T09:46:09Z</time>
      </trkpt>
      <trkpt lat="42.95799" lon="0.2007">
        <ele>1818.9</ele>
        <time>2014-07-01T09:46:15Z</time>
      </trkpt>
      <trkpt lat="42.95797" lon="0.20063">
        <ele>1820.46</ele>
        <time>2014-07-01T09:46:21Z</time>
      </trkpt>
      <trkpt lat="42.95797" lon="0.20057">
        <ele>1821.46</ele>
        <time>2014-07-01T09:46:27Z</time>
      </trkpt>
      <trkpt lat="42.95797" lon="0.2005">
        <ele>1822.35</ele>
        <time>2014-07-01T09:46:35Z</time>
      </trkpt>
      <trkpt lat="42.95795" lon="0.20044">
        <ele>1822.86</ele>
        <time>2014-07-01T09:46:43Z</time>
      </trkpt>
      <trkpt lat="42.95795" lon="0.20038">
        <ele>1823.88</ele>
        <time>2014-07-01T09:46:50Z</time>
      </trkpt>
      <trkpt lat="42.95794" lon="0.20031">
        <ele>1825.19</ele>
        <time>2014-07-01T09:46:58Z</time>
      </trkpt>
      <trkpt lat="42.95793" lon="0.20025">
        <ele>1826.29</ele>
        <time>2014-07-01T09:47:07Z</time>
      </trkpt>
      <trkpt lat="42.95791" lon="0.20018">
        <ele>1823.36</ele>
        <time>2014-07-01T09:47:28Z</time>
      </trkpt>
      <trkpt lat="42.95792" lon="0.20012">
        <ele>1823.52</ele>
        <time>2014-07-01T09:47:40Z</time>
      </trkpt>
      <trkpt lat="42.95791" lon="0.20005">
        <ele>1830.62</ele>
        <time>2014-07-01T09:47:49Z</time>
      </trkpt>
      <trkpt lat="42.95792" lon="0.19999">
        <ele>1831.1</ele>
        <time>2014-07-01T09:47:59Z</time>
      </trkpt>
      <trkpt lat="42.95791" lon="0.19993">
        <ele>1832.57</ele>
        <time>2014-07-01T09:48:24Z</time>
      </trkpt>
      <trkpt lat="42.95793" lon="0.19987">
        <ele>1835.2</ele>
        <time>2014-07-01T09:48:32Z</time>
      </trkpt>
      <trkpt lat="42.95794" lon="0.19981">
        <ele>1836.64</ele>
        <time>2014-07-01T09:49:09Z</time>
      </trkpt>
      <trkpt lat="42.95796" lon="0.19975">
        <ele>1839</ele>
        <time>2014-07-01T09:49:32Z</time>
      </trkpt>
      <trkpt lat="42.95798" lon="0.19969">
        <ele>1842.31</ele>
        <time>2014-07-01T09:49:59Z</time>
      </trkpt>
      <trkpt lat="42.958" lon="0.19963">
        <ele>1842.34</ele>
        <time>2014-07-01T09:50:07Z</time>
      </trkpt>
      <trkpt lat="42.95803" lon="0.19959">
        <ele>1845.5</ele>
        <time>2014-07-01T09:50:22Z</time>
      </trkpt>
      <trkpt lat="42.95805" lon="0.19953">
        <ele>1844.87</ele>
        <time>2014-07-01T09:50:39Z</time>
      </trkpt>
      <trkpt lat="42.95804" lon="0.19947">
        <ele>1848.17</ele>
        <time>2014-07-01T09:50:59Z</time>
      </trkpt>
      <trkpt lat="42.95807" lon="0.19943">
        <ele>1849.37</ele>
        <time>2014-07-01T09:51:06Z</time>
      </trkpt>
      <trkpt lat="42.95807" lon="0.19936">
        <ele>1849.9</ele>
        <time>2014-07-01T09:51:34Z</time>
      </trkpt>
      <trkpt lat="42.95807" lon="0.1993">
        <ele>1849.06</ele>
        <time>2014-07-01T09:51:46Z</time>
      </trkpt>
      <trkpt lat="42.95808" lon="0.19923">
        <ele>1850.19</ele>
        <time>2014-07-01T09:51:54Z</time>
      </trkpt>
      <trkpt lat="42.95809" lon="0.19917">
        <ele>1851.16</ele>
        <time>2014-07-01T09:52:00Z</time>
      </trkpt>
      <trkpt lat="42.9581" lon="0.19911">
        <ele>1852.41</ele>
        <time>2014-07-01T09:52:08Z</time>
      </trkpt>
      <trkpt lat="42.95809" lon="0.19905">
        <ele>1853.82</ele>
        <time>2014-07-01T09:52:28Z</time>
      </trkpt>
      <trkpt lat="42.95813" lon="0.19901">
        <ele>1856.39</ele>
        <time>2014-07-01T09:52:41Z</time>
      </trkpt>
      <trkpt lat="42.95816" lon="0.19896">
        <ele>1856.34</ele>
        <time>2014-07-01T09:52:49Z</time>
      </trkpt>
      <trkpt lat="42.95819" lon="0.19891">
        <ele>1858.99</ele>
        <time>2014-07-01T09:53:17Z</time>
      </trkpt>
      <trkpt lat="42.9582" lon="0.19885">
        <ele>1861.33</ele>
        <time>2014-07-01T09:53:37Z</time>
      </trkpt>
      <trkpt lat="42.9582" lon="0.19879">
        <ele>1863.24</ele>
        <time>2014-07-01T09:53:59Z</time>
      </trkpt>
      <trkpt lat="42.95823" lon="0.19873">
        <ele>1864.53</ele>
        <time>2014-07-01T09:54:19Z</time>
      </trkpt>
      <trkpt lat="42.95826" lon="0.19868">
        <ele>1866</ele>
        <time>2014-07-01T09:54:28Z</time>
      </trkpt>
      <trkpt lat="42.95829" lon="0.19864">
        <ele>1871.28</ele>
        <time>2014-07-01T09:54:45Z</time>
      </trkpt>
      <trkpt lat="42.95829" lon="0.19858">
        <ele>1871.49</ele>
        <time>2014-07-01T09:54:54Z</time>
      </trkpt>
      <trkpt lat="42.95827" lon="0.19853">
        <ele>1872</ele>
        <time>2014-07-01T09:55:17Z</time>
      </trkpt>
      <trkpt lat="42.95829" lon="0.19847">
        <ele>1871.05</ele>
        <time>2014-07-01T09:55:25Z</time>
      </trkpt>
      <trkpt lat="42.95832" lon="0.19842">
        <ele>1873.57</ele>
        <time>2014-07-01T09:55:31Z</time>
      </trkpt>
      <trkpt lat="42.95837" lon="0.1984">
        <ele>1876.71</ele>
        <time>2014-07-01T09:55:41Z</time>
      </trkpt>
      <trkpt lat="42.95841" lon="0.19836">
        <ele>1877.59</ele>
        <time>2014-07-01T09:55:54Z</time>
      </trkpt>
      <trkpt lat="42.95842" lon="0.19829">
        <ele>1880.97</ele>
        <time>2014-07-01T09:56:04Z</time>
      </trkpt>
      <trkpt lat="42.95844" lon="0.19824">
        <ele>1882.66</ele>
        <time>2014-07-01T09:56:17Z</time>
      </trkpt>
      <trkpt lat="42.95846" lon="0.19818">
        <ele>1882.63</ele>
        <time>2014-07-01T09:56:25Z</time>
      </trkpt>
      <trkpt lat="42.9585" lon="0.19814">
        <ele>1882.78</ele>
        <time>2014-07-01T09:56:32Z</time>
      </trkpt>
      <trkpt lat="42.95855" lon="0.19811">
        <ele>1883.91</ele>
        <time>2014-07-01T09:56:38Z</time>
      </trkpt>
      <trkpt lat="42.95858" lon="0.19806">
        <ele>1884.06</ele>
        <time>2014-07-01T09:56:45Z</time>
      </trkpt>
      <trkpt lat="42.95862" lon="0.19802">
        <ele>1885.83</ele>
        <time>2014-07-01T09:56:52Z</time>
      </trkpt>
      <trkpt lat="42.95863" lon="0.19796">
        <ele>1886.79</ele>
        <time>2014-07-01T09:57:00Z</time>
      </trkpt>
      <trkpt lat="42.95865" lon="0.1979">
        <ele>1880.22</ele>
        <time>2014-07-01T09:57:08Z</time>
      </trkpt>
      <trkpt lat="42.95868" lon="0.19784">
        <ele>1886.06</ele>
        <time>2014-07-01T09:57:17Z</time>
      </trkpt>
      <trkpt lat="42.95872" lon="0.19782">
        <ele>1888.53</ele>
        <time>2014-07-01T09:57:25Z</time>
      </trkpt>
      <trkpt lat="42.95874" lon="0.19775">
        <ele>1890.03</ele>
        <time>2014-07-01T09:57:35Z</time>
      </trkpt>
      <trkpt lat="42.95874" lon="0.19769">
        <ele>1890.29</ele>
        <time>2014-07-01T09:58:11Z</time>
      </trkpt>
      <trkpt lat="42.95878" lon="0.19771">
        <ele>1889.42</ele>
        <time>2014-07-01T09:59:00Z</time>
      </trkpt>
      <trkpt lat="42.95877" lon="0.19777">
        <ele>1871.21</ele>
        <time>2014-07-01T09:59:10Z</time>
      </trkpt>
      <trkpt lat="42.95875" lon="0.19771">
        <ele>1888.89</ele>
        <time>2014-07-01T09:59:30Z</time>
      </trkpt>
      <trkpt lat="42.9588" lon="0.1977">
        <ele>1890.13</ele>
        <time>2014-07-01T10:25:36Z</time>
      </trkpt>
      <trkpt lat="42.95875" lon="0.19769">
        <ele>1892.49</ele>
        <time>2014-07-01T10:26:41Z</time>
      </trkpt>
      <trkpt lat="42.95877" lon="0.19775">
        <ele>1892.5</ele>
        <time>2014-07-01T10:51:38Z</time>
      </trkpt>
      <trkpt lat="42.95874" lon="0.19779">
        <ele>1891.76</ele>
        <time>2014-07-01T10:51:45Z</time>
      </trkpt>
      <trkpt lat="42.95869" lon="0.19783">
        <ele>1890.69</ele>
        <time>2014-07-01T10:51:51Z</time>
      </trkpt>
      <trkpt lat="42.95868" lon="0.19789">
        <ele>1889.24</ele>
        <time>2014-07-01T10:51:57Z</time>
      </trkpt>
      <trkpt lat="42.95867" lon="0.19795">
        <ele>1889.26</ele>
        <time>2014-07-01T10:52:10Z</time>
      </trkpt>
      <trkpt lat="42.95866" lon="0.19801">
        <ele>1888.26</ele>
        <time>2014-07-01T10:52:16Z</time>
      </trkpt>
      <trkpt lat="42.95866" lon="0.19808">
        <ele>1887.38</ele>
        <time>2014-07-01T10:52:22Z</time>
      </trkpt>
      <trkpt lat="42.95868" lon="0.19814">
        <ele>1886.99</ele>
        <time>2014-07-01T10:52:27Z</time>
      </trkpt>
      <trkpt lat="42.95869" lon="0.19821">
        <ele>1886.17</ele>
        <time>2014-07-01T10:52:32Z</time>
      </trkpt>
      <trkpt lat="42.9587" lon="0.19827">
        <ele>1886.28</ele>
        <time>2014-07-01T10:52:37Z</time>
      </trkpt>
      <trkpt lat="42.95871" lon="0.19834">
        <ele>1886.59</ele>
        <time>2014-07-01T10:52:42Z</time>
      </trkpt>
      <trkpt lat="42.95871" lon="0.19841">
        <ele>1887.06</ele>
        <time>2014-07-01T10:52:47Z</time>
      </trkpt>
      <trkpt lat="42.95872" lon="0.19848">
        <ele>1887</ele>
        <time>2014-07-01T10:52:52Z</time>
      </trkpt>
      <trkpt lat="42.95872" lon="0.19854">
        <ele>1887.1</ele>
        <time>2014-07-01T10:52:57Z</time>
      </trkpt>
      <trkpt lat="42.95872" lon="0.19861">
        <ele>1887.77</ele>
        <time>2014-07-01T10:53:03Z</time>
      </trkpt>
      <trkpt lat="42.95871" lon="0.19868">
        <ele>1887.84</ele>
        <time>2014-07-01T10:53:09Z</time>
      </trkpt>
      <trkpt lat="42.95869" lon="0.19875">
        <ele>1888.09</ele>
        <time>2014-07-01T10:53:15Z</time>
      </trkpt>
      <trkpt lat="42.95867" lon="0.19881">
        <ele>1888</ele>
        <time>2014-07-01T10:53:21Z</time>
      </trkpt>
      <trkpt lat="42.95866" lon="0.19888">
        <ele>1887.92</ele>
        <time>2014-07-01T10:53:27Z</time>
      </trkpt>
      <trkpt lat="42.95865" lon="0.19895">
        <ele>1887.15</ele>
        <time>2014-07-01T10:53:33Z</time>
      </trkpt>
      <trkpt lat="42.95865" lon="0.19901">
        <ele>1885.62</ele>
        <time>2014-07-01T10:53:39Z</time>
      </trkpt>
      <trkpt lat="42.95863" lon="0.19908">
        <ele>1884.31</ele>
        <time>2014-07-01T10:53:45Z</time>
      </trkpt>
      <trkpt lat="42.95862" lon="0.19914">
        <ele>1883</ele>
        <time>2014-07-01T10:53:51Z</time>
      </trkpt>
      <trkpt lat="42.95862" lon="0.1992">
        <ele>1881.49</ele>
        <time>2014-07-01T10:53:57Z</time>
      </trkpt>
      <trkpt lat="42.95862" lon="0.19927">
        <ele>1879.83</ele>
        <time>2014-07-01T10:54:04Z</time>
      </trkpt>
      <trkpt lat="42.95862" lon="0.19934">
        <ele>1878.65</ele>
        <time>2014-07-01T10:54:10Z</time>
      </trkpt>
      <trkpt lat="42.95863" lon="0.19941">
        <ele>1877.41</ele>
        <time>2014-07-01T10:54:16Z</time>
      </trkpt>
      <trkpt lat="42.95864" lon="0.19947">
        <ele>1876.54</ele>
        <time>2014-07-01T10:54:21Z</time>
      </trkpt>
      <trkpt lat="42.95865" lon="0.19954">
        <ele>1874.62</ele>
        <time>2014-07-01T10:54:26Z</time>
      </trkpt>
      <trkpt lat="42.95865" lon="0.1996">
        <ele>1873.67</ele>
        <time>2014-07-01T10:54:31Z</time>
      </trkpt>
      <trkpt lat="42.95863" lon="0.19967">
        <ele>1872.89</ele>
        <time>2014-07-01T10:54:37Z</time>
      </trkpt>
      <trkpt lat="42.95862" lon="0.19973">
        <ele>1872.23</ele>
        <time>2014-07-01T10:54:42Z</time>
      </trkpt>
      <trkpt lat="42.95861" lon="0.1998">
        <ele>1871.3</ele>
        <time>2014-07-01T10:54:48Z</time>
      </trkpt>
      <trkpt lat="42.95861" lon="0.19986">
        <ele>1869.63</ele>
        <time>2014-07-01T10:54:54Z</time>
      </trkpt>
      <trkpt lat="42.95866" lon="0.1999">
        <ele>1868.8</ele>
        <time>2014-07-01T10:55:01Z</time>
      </trkpt>
      <trkpt lat="42.95869" lon="0.19996">
        <ele>1867.05</ele>
        <time>2014-07-01T10:55:07Z</time>
      </trkpt>
      <trkpt lat="42.9587" lon="0.20002">
        <ele>1866.44</ele>
        <time>2014-07-01T10:55:12Z</time>
      </trkpt>
      <trkpt lat="42.95872" lon="0.20008">
        <ele>1865.62</ele>
        <time>2014-07-01T10:55:17Z</time>
      </trkpt>
      <trkpt lat="42.95873" lon="0.20014">
        <ele>1864.93</ele>
        <time>2014-07-01T10:55:22Z</time>
      </trkpt>
      <trkpt lat="42.95875" lon="0.2002">
        <ele>1864.11</ele>
        <time>2014-07-01T10:55:27Z</time>
      </trkpt>
      <trkpt lat="42.95877" lon="0.20026">
        <ele>1863.87</ele>
        <time>2014-07-01T10:55:32Z</time>
      </trkpt>
      <trkpt lat="42.95879" lon="0.20031">
        <ele>1863.3</ele>
        <time>2014-07-01T10:55:37Z</time>
      </trkpt>
      <trkpt lat="42.9588" lon="0.20037">
        <ele>1862.57</ele>
        <time>2014-07-01T10:55:42Z</time>
      </trkpt>
      <trkpt lat="42.95882" lon="0.20043">
        <ele>1861.52</ele>
        <time>2014-07-01T10:55:47Z</time>
      </trkpt>
      <trkpt lat="42.95883" lon="0.20049">
        <ele>1860.89</ele>
        <time>2014-07-01T10:55:52Z</time>
      </trkpt>
      <trkpt lat="42.95885" lon="0.20056">
        <ele>1860.01</ele>
        <time>2014-07-01T10:55:58Z</time>
      </trkpt>
      <trkpt lat="42.95888" lon="0.20062">
        <ele>1858.79</ele>
        <time>2014-07-01T10:56:04Z</time>
      </trkpt>
      <trkpt lat="42.95891" lon="0.20067">
        <ele>1858.24</ele>
        <time>2014-07-01T10:56:09Z</time>
      </trkpt>
      <trkpt lat="42.95894" lon="0.20072">
        <ele>1857.85</ele>
        <time>2014-07-01T10:56:14Z</time>
      </trkpt>
      <trkpt lat="42.95896" lon="0.20078">
        <ele>1857.33</ele>
        <time>2014-07-01T10:56:19Z</time>
      </trkpt>
      <trkpt lat="42.95897" lon="0.20084">
        <ele>1856.95</ele>
        <time>2014-07-01T10:56:24Z</time>
      </trkpt>
      <trkpt lat="42.95899" lon="0.2009">
        <ele>1856.62</ele>
        <time>2014-07-01T10:56:29Z</time>
      </trkpt>
      <trkpt lat="42.95899" lon="0.20097">
        <ele>1855.74</ele>
        <time>2014-07-01T10:56:35Z</time>
      </trkpt>
      <trkpt lat="42.95901" lon="0.20103">
        <ele>1854.55</ele>
        <time>2014-07-01T10:56:41Z</time>
      </trkpt>
      <trkpt lat="42.95903" lon="0.2011">
        <ele>1854.03</ele>
        <time>2014-07-01T10:56:47Z</time>
      </trkpt>
      <trkpt lat="42.95903" lon="0.20116">
        <ele>1853.49</ele>
        <time>2014-07-01T10:56:52Z</time>
      </trkpt>
      <trkpt lat="42.95904" lon="0.20123">
        <ele>1853.13</ele>
        <time>2014-07-01T10:56:57Z</time>
      </trkpt>
      <trkpt lat="42.95904" lon="0.2013">
        <ele>1853.34</ele>
        <time>2014-07-01T10:57:02Z</time>
      </trkpt>
      <trkpt lat="42.95905" lon="0.20137">
        <ele>1853.31</ele>
        <time>2014-07-01T10:57:07Z</time>
      </trkpt>
      <trkpt lat="42.95905" lon="0.20143">
        <ele>1853.45</ele>
        <time>2014-07-01T10:57:12Z</time>
      </trkpt>
      <trkpt lat="42.95906" lon="0.2015">
        <ele>1852.99</ele>
        <time>2014-07-01T10:57:17Z</time>
      </trkpt>
      <trkpt lat="42.95909" lon="0.20155">
        <ele>1852.51</ele>
        <time>2014-07-01T10:57:22Z</time>
      </trkpt>
      <trkpt lat="42.9591" lon="0.20161">
        <ele>1851.97</ele>
        <time>2014-07-01T10:57:27Z</time>
      </trkpt>
      <trkpt lat="42.95913" lon="0.20167">
        <ele>1851.69</ele>
        <time>2014-07-01T10:57:32Z</time>
      </trkpt>
      <trkpt lat="42.95915" lon="0.20173">
        <ele>1851.13</ele>
        <time>2014-07-01T10:57:37Z</time>
      </trkpt>
      <trkpt lat="42.95918" lon="0.20178">
        <ele>1850.31</ele>
        <time>2014-07-01T10:57:42Z</time>
      </trkpt>
      <trkpt lat="42.95922" lon="0.20182">
        <ele>1849.48</ele>
        <time>2014-07-01T10:57:47Z</time>
      </trkpt>
      <trkpt lat="42.95926" lon="0.20186">
        <ele>1848.55</ele>
        <time>2014-07-01T10:57:52Z</time>
      </trkpt>
      <trkpt lat="42.9593" lon="0.20191">
        <ele>1847.92</ele>
        <time>2014-07-01T10:57:58Z</time>
      </trkpt>
      <trkpt lat="42.95933" lon="0.20196">
        <ele>1847</ele>
        <time>2014-07-01T10:58:04Z</time>
      </trkpt>
      <trkpt lat="42.95936" lon="0.20201">
        <ele>1846.58</ele>
        <time>2014-07-01T10:58:09Z</time>
      </trkpt>
      <trkpt lat="42.9594" lon="0.20204">
        <ele>1846.05</ele>
        <time>2014-07-01T10:58:15Z</time>
      </trkpt>
      <trkpt lat="42.95945" lon="0.20207">
        <ele>1844.53</ele>
        <time>2014-07-01T10:58:21Z</time>
      </trkpt>
      <trkpt lat="42.95948" lon="0.20211">
        <ele>1843.49</ele>
        <time>2014-07-01T10:58:27Z</time>
      </trkpt>
      <trkpt lat="42.95951" lon="0.20217">
        <ele>1841.51</ele>
        <time>2014-07-01T10:58:34Z</time>
      </trkpt>
      <trkpt lat="42.95955" lon="0.20223">
        <ele>1840.3</ele>
        <time>2014-07-01T10:58:41Z</time>
      </trkpt>
      <trkpt lat="42.95958" lon="0.20228">
        <ele>1839.13</ele>
        <time>2014-07-01T10:58:47Z</time>
      </trkpt>
      <trkpt lat="42.95963" lon="0.20232">
        <ele>1837.56</ele>
        <time>2014-07-01T10:58:53Z</time>
      </trkpt>
      <trkpt lat="42.95967" lon="0.20235">
        <ele>1835.84</ele>
        <time>2014-07-01T10:58:59Z</time>
      </trkpt>
      <trkpt lat="42.95971" lon="0.20238">
        <ele>1834.59</ele>
        <time>2014-07-01T10:59:06Z</time>
      </trkpt>
      <trkpt lat="42.95975" lon="0.2024">
        <ele>1833.13</ele>
        <time>2014-07-01T10:59:12Z</time>
      </trkpt>
      <trkpt lat="42.9598" lon="0.20244">
        <ele>1831.87</ele>
        <time>2014-07-01T10:59:19Z</time>
      </trkpt>
      <trkpt lat="42.95984" lon="0.20247">
        <ele>1829.74</ele>
        <time>2014-07-01T10:59:26Z</time>
      </trkpt>
      <trkpt lat="42.95989" lon="0.2025">
        <ele>1828.63</ele>
        <time>2014-07-01T10:59:33Z</time>
      </trkpt>
      <trkpt lat="42.95993" lon="0.20253">
        <ele>1826.97</ele>
        <time>2014-07-01T10:59:39Z</time>
      </trkpt>
      <trkpt lat="42.95997" lon="0.20258">
        <ele>1825.71</ele>
        <time>2014-07-01T10:59:45Z</time>
      </trkpt>
      <trkpt lat="42.96001" lon="0.20263">
        <ele>1824.3</ele>
        <time>2014-07-01T10:59:51Z</time>
      </trkpt>
      <trkpt lat="42.96004" lon="0.20268">
        <ele>1823.32</ele>
        <time>2014-07-01T10:59:56Z</time>
      </trkpt>
      <trkpt lat="42.96007" lon="0.20274">
        <ele>1824.83</ele>
        <time>2014-07-01T11:00:01Z</time>
      </trkpt>
      <trkpt lat="42.9601" lon="0.20279">
        <ele>1823.53</ele>
        <time>2014-07-01T11:00:06Z</time>
      </trkpt>
      <trkpt lat="42.96013" lon="0.20285">
        <ele>1821.79</ele>
        <time>2014-07-01T11:00:11Z</time>
      </trkpt>
      <trkpt lat="42.96016" lon="0.20291">
        <ele>1820.59</ele>
        <time>2014-07-01T11:00:16Z</time>
      </trkpt>
      <trkpt lat="42.96019" lon="0.20296">
        <ele>1819.75</ele>
        <time>2014-07-01T11:00:21Z</time>
      </trkpt>
      <trkpt lat="42.96021" lon="0.20301">
        <ele>1818.16</ele>
        <time>2014-07-01T11:00:26Z</time>
      </trkpt>
      <trkpt lat="42.96025" lon="0.20306">
        <ele>1817.51</ele>
        <time>2014-07-01T11:00:32Z</time>
      </trkpt>
      <trkpt lat="42.96029" lon="0.20311">
        <ele>1815.38</ele>
        <time>2014-07-01T11:00:38Z</time>
      </trkpt>
      <trkpt lat="42.96032" lon="0.20314">
        <ele>1813.54</ele>
        <time>2014-07-01T11:00:48Z</time>
      </trkpt>
      <trkpt lat="42.96036" lon="0.20318">
        <ele>1812.61</ele>
        <time>2014-07-01T11:00:58Z</time>
      </trkpt>
      <trkpt lat="42.9604" lon="0.20321">
        <ele>1811.03</ele>
        <time>2014-07-01T11:01:05Z</time>
      </trkpt>
      <trkpt lat="42.96044" lon="0.20323">
        <ele>1809.44</ele>
        <time>2014-07-01T11:01:12Z</time>
      </trkpt>
      <trkpt lat="42.96049" lon="0.20322">
        <ele>1807.96</ele>
        <time>2014-07-01T11:01:19Z</time>
      </trkpt>
      <trkpt lat="42.96054" lon="0.20323">
        <ele>1805.6</ele>
        <time>2014-07-01T11:01:27Z</time>
      </trkpt>
      <trkpt lat="42.96059" lon="0.20322">
        <ele>1803.94</ele>
        <time>2014-07-01T11:01:35Z</time>
      </trkpt>
      <trkpt lat="42.96064" lon="0.20322">
        <ele>1802.25</ele>
        <time>2014-07-01T11:01:42Z</time>
      </trkpt>
      <trkpt lat="42.96069" lon="0.20323">
        <ele>1800.6</ele>
        <time>2014-07-01T11:01:49Z</time>
      </trkpt>
      <trkpt lat="42.96073" lon="0.20322">
        <ele>1798.57</ele>
        <time>2014-07-01T11:01:57Z</time>
      </trkpt>
      <trkpt lat="42.96078" lon="0.20325">
        <ele>1796.08</ele>
        <time>2014-07-01T11:02:05Z</time>
      </trkpt>
      <trkpt lat="42.96083" lon="0.20325">
        <ele>1793.38</ele>
        <time>2014-07-01T11:02:13Z</time>
      </trkpt>
      <trkpt lat="42.96087" lon="0.20328">
        <ele>1790.91</ele>
        <time>2014-07-01T11:02:21Z</time>
      </trkpt>
      <trkpt lat="42.96092" lon="0.20328">
        <ele>1789.87</ele>
        <time>2014-07-01T11:02:28Z</time>
      </trkpt>
      <trkpt lat="42.96096" lon="0.20326">
        <ele>1788.7</ele>
        <time>2014-07-01T11:02:36Z</time>
      </trkpt>
      <trkpt lat="42.96101" lon="0.20325">
        <ele>1786.72</ele>
        <time>2014-07-01T11:02:43Z</time>
      </trkpt>
      <trkpt lat="42.96106" lon="0.20327">
        <ele>1784.33</ele>
        <time>2014-07-01T11:02:51Z</time>
      </trkpt>
      <trkpt lat="42.96109" lon="0.20332">
        <ele>1782.3</ele>
        <time>2014-07-01T11:03:00Z</time>
      </trkpt>
      <trkpt lat="42.96113" lon="0.20337">
        <ele>1780.8</ele>
        <time>2014-07-01T11:03:08Z</time>
      </trkpt>
      <trkpt lat="42.96117" lon="0.20339">
        <ele>1778.8</ele>
        <time>2014-07-01T11:03:15Z</time>
      </trkpt>
      <trkpt lat="42.96122" lon="0.20339">
        <ele>1777.15</ele>
        <time>2014-07-01T11:03:22Z</time>
      </trkpt>
      <trkpt lat="42.96126" lon="0.20341">
        <ele>1776.2</ele>
        <time>2014-07-01T11:03:28Z</time>
      </trkpt>
      <trkpt lat="42.96131" lon="0.20341">
        <ele>1774.79</ele>
        <time>2014-07-01T11:03:35Z</time>
      </trkpt>
      <trkpt lat="42.96136" lon="0.20342">
        <ele>1773.19</ele>
        <time>2014-07-01T11:03:42Z</time>
      </trkpt>
      <trkpt lat="42.96141" lon="0.20344">
        <ele>1771.49</ele>
        <time>2014-07-01T11:03:49Z</time>
      </trkpt>
      <trkpt lat="42.96145" lon="0.20345">
        <ele>1770.12</ele>
        <time>2014-07-01T11:03:55Z</time>
      </trkpt>
      <trkpt lat="42.96149" lon="0.20349">
        <ele>1768.98</ele>
        <time>2014-07-01T11:04:01Z</time>
      </trkpt>
      <trkpt lat="42.96154" lon="0.2035">
        <ele>1767.71</ele>
        <time>2014-07-01T11:04:07Z</time>
      </trkpt>
      <trkpt lat="42.96159" lon="0.2035">
        <ele>1766.56</ele>
        <time>2014-07-01T11:04:13Z</time>
      </trkpt>
      <trkpt lat="42.9616" lon="0.20356">
        <ele>1766.48</ele>
        <time>2014-07-01T11:04:45Z</time>
      </trkpt>
      <trkpt lat="42.96165" lon="0.20357">
        <ele>1764.78</ele>
        <time>2014-07-01T11:04:52Z</time>
      </trkpt>
      <trkpt lat="42.96169" lon="0.20356">
        <ele>1763.44</ele>
        <time>2014-07-01T11:04:56Z</time>
      </trkpt>
      <trkpt lat="42.96174" lon="0.20356">
        <ele>1762.45</ele>
        <time>2014-07-01T11:05:01Z</time>
      </trkpt>
      <trkpt lat="42.96179" lon="0.2036">
        <ele>1760.9</ele>
        <time>2014-07-01T11:05:07Z</time>
      </trkpt>
      <trkpt lat="42.96183" lon="0.2036">
        <ele>1760.62</ele>
        <time>2014-07-01T11:05:12Z</time>
      </trkpt>
      <trkpt lat="42.96188" lon="0.20361">
        <ele>1760.26</ele>
        <time>2014-07-01T11:05:17Z</time>
      </trkpt>
      <trkpt lat="42.96193" lon="0.20362">
        <ele>1759.88</ele>
        <time>2014-07-01T11:05:22Z</time>
      </trkpt>
      <trkpt lat="42.96197" lon="0.20366">
        <ele>1758.94</ele>
        <time>2014-07-01T11:05:27Z</time>
      </trkpt>
      <trkpt lat="42.96201" lon="0.2037">
        <ele>1757.27</ele>
        <time>2014-07-01T11:05:35Z</time>
      </trkpt>
      <trkpt lat="42.96206" lon="0.20372">
        <ele>1755.82</ele>
        <time>2014-07-01T11:05:50Z</time>
      </trkpt>
      <trkpt lat="42.96211" lon="0.20372">
        <ele>1754.83</ele>
        <time>2014-07-01T11:05:55Z</time>
      </trkpt>
      <trkpt lat="42.96216" lon="0.2037">
        <ele>1753.56</ele>
        <time>2014-07-01T11:06:01Z</time>
      </trkpt>
      <trkpt lat="42.9622" lon="0.20372">
        <ele>1751.58</ele>
        <time>2014-07-01T11:06:08Z</time>
      </trkpt>
      <trkpt lat="42.96225" lon="0.20374">
        <ele>1749.94</ele>
        <time>2014-07-01T11:06:15Z</time>
      </trkpt>
      <trkpt lat="42.96229" lon="0.20377">
        <ele>1748.63</ele>
        <time>2014-07-01T11:06:21Z</time>
      </trkpt>
      <trkpt lat="42.96234" lon="0.20379">
        <ele>1747.01</ele>
        <time>2014-07-01T11:06:28Z</time>
      </trkpt>
      <trkpt lat="42.96238" lon="0.2038">
        <ele>1744.77</ele>
        <time>2014-07-01T11:06:35Z</time>
      </trkpt>
      <trkpt lat="42.96242" lon="0.20384">
        <ele>1742.45</ele>
        <time>2014-07-01T11:06:43Z</time>
      </trkpt>
      <trkpt lat="42.96246" lon="0.20388">
        <ele>1739.52</ele>
        <time>2014-07-01T11:06:52Z</time>
      </trkpt>
      <trkpt lat="42.96248" lon="0.20394">
        <ele>1738.7</ele>
        <time>2014-07-01T11:07:00Z</time>
      </trkpt>
      <trkpt lat="42.96252" lon="0.20395">
        <ele>1736.14</ele>
        <time>2014-07-01T11:07:11Z</time>
      </trkpt>
      <trkpt lat="42.96257" lon="0.20398">
        <ele>1734.88</ele>
        <time>2014-07-01T11:07:18Z</time>
      </trkpt>
      <trkpt lat="42.96262" lon="0.204">
        <ele>1733.07</ele>
        <time>2014-07-01T11:07:27Z</time>
      </trkpt>
      <trkpt lat="42.96265" lon="0.20403">
        <ele>1730.84</ele>
        <time>2014-07-01T11:07:35Z</time>
      </trkpt>
      <trkpt lat="42.96267" lon="0.2041">
        <ele>1729.88</ele>
        <time>2014-07-01T11:07:43Z</time>
      </trkpt>
      <trkpt lat="42.96272" lon="0.2041">
        <ele>1728.85</ele>
        <time>2014-07-01T11:08:46Z</time>
      </trkpt>
      <trkpt lat="42.96276" lon="0.20412">
        <ele>1727.52</ele>
        <time>2014-07-01T11:08:52Z</time>
      </trkpt>
      <trkpt lat="42.96281" lon="0.20415">
        <ele>1725.92</ele>
        <time>2014-07-01T11:08:58Z</time>
      </trkpt>
      <trkpt lat="42.96286" lon="0.20416">
        <ele>1724.43</ele>
        <time>2014-07-01T11:09:04Z</time>
      </trkpt>
      <trkpt lat="42.9629" lon="0.20416">
        <ele>1722.8</ele>
        <time>2014-07-01T11:09:10Z</time>
      </trkpt>
      <trkpt lat="42.96295" lon="0.20417">
        <ele>1721.87</ele>
        <time>2014-07-01T11:09:16Z</time>
      </trkpt>
      <trkpt lat="42.963" lon="0.20417">
        <ele>1720.77</ele>
        <time>2014-07-01T11:09:21Z</time>
      </trkpt>
      <trkpt lat="42.96305" lon="0.20417">
        <ele>1719.58</ele>
        <time>2014-07-01T11:09:27Z</time>
      </trkpt>
      <trkpt lat="42.9631" lon="0.20417">
        <ele>1720.03</ele>
        <time>2014-07-01T11:09:33Z</time>
      </trkpt>
      <trkpt lat="42.96315" lon="0.20418">
        <ele>1717.07</ele>
        <time>2014-07-01T11:09:40Z</time>
      </trkpt>
      <trkpt lat="42.96319" lon="0.20419">
        <ele>1715.6</ele>
        <time>2014-07-01T11:09:46Z</time>
      </trkpt>
      <trkpt lat="42.96324" lon="0.20417">
        <ele>1714.5</ele>
        <time>2014-07-01T11:09:52Z</time>
      </trkpt>
      <trkpt lat="42.96328" lon="0.2042">
        <ele>1712.76</ele>
        <time>2014-07-01T11:09:59Z</time>
      </trkpt>
      <trkpt lat="42.96331" lon="0.20425">
        <ele>1710.99</ele>
        <time>2014-07-01T11:10:09Z</time>
      </trkpt>
      <trkpt lat="42.96336" lon="0.20424">
        <ele>1709.35</ele>
        <time>2014-07-01T11:10:16Z</time>
      </trkpt>
      <trkpt lat="42.9634" lon="0.20423">
        <ele>1708.09</ele>
        <time>2014-07-01T11:10:22Z</time>
      </trkpt>
      <trkpt lat="42.96345" lon="0.2042">
        <ele>1706.53</ele>
        <time>2014-07-01T11:10:29Z</time>
      </trkpt>
      <trkpt lat="42.9635" lon="0.20419">
        <ele>1706.05</ele>
        <time>2014-07-01T11:10:36Z</time>
      </trkpt>
      <trkpt lat="42.96354" lon="0.2042">
        <ele>1703.22</ele>
        <time>2014-07-01T11:10:44Z</time>
      </trkpt>
      <trkpt lat="42.96359" lon="0.2042">
        <ele>1702.96</ele>
        <time>2014-07-01T11:10:53Z</time>
      </trkpt>
      <trkpt lat="42.96364" lon="0.2042">
        <ele>1699.58</ele>
        <time>2014-07-01T11:11:01Z</time>
      </trkpt>
      <trkpt lat="42.96369" lon="0.2042">
        <ele>1698.57</ele>
        <time>2014-07-01T11:11:07Z</time>
      </trkpt>
      <trkpt lat="42.96374" lon="0.20421">
        <ele>1698.65</ele>
        <time>2014-07-01T11:11:12Z</time>
      </trkpt>
      <trkpt lat="42.96379" lon="0.20425">
        <ele>1698</ele>
        <time>2014-07-01T11:11:18Z</time>
      </trkpt>
      <trkpt lat="42.96384" lon="0.20425">
        <ele>1696.54</ele>
        <time>2014-07-01T11:11:24Z</time>
      </trkpt>
      <trkpt lat="42.96389" lon="0.20426">
        <ele>1695.75</ele>
        <time>2014-07-01T11:11:29Z</time>
      </trkpt>
      <trkpt lat="42.96393" lon="0.20424">
        <ele>1694.9</ele>
        <time>2014-07-01T11:11:34Z</time>
      </trkpt>
      <trkpt lat="42.96397" lon="0.20428">
        <ele>1695.88</ele>
        <time>2014-07-01T11:11:41Z</time>
      </trkpt>
      <trkpt lat="42.96402" lon="0.20429">
        <ele>1692.36</ele>
        <time>2014-07-01T11:11:51Z</time>
      </trkpt>
      <trkpt lat="42.96406" lon="0.2043">
        <ele>1689.35</ele>
        <time>2014-07-01T11:12:01Z</time>
      </trkpt>
      <trkpt lat="42.96411" lon="0.20432">
        <ele>1687.82</ele>
        <time>2014-07-01T11:12:09Z</time>
      </trkpt>
      <trkpt lat="42.96416" lon="0.20433">
        <ele>1686.38</ele>
        <time>2014-07-01T11:12:16Z</time>
      </trkpt>
      <trkpt lat="42.96421" lon="0.20435">
        <ele>1684.68</ele>
        <time>2014-07-01T11:12:24Z</time>
      </trkpt>
      <trkpt lat="42.96426" lon="0.20435">
        <ele>1682.81</ele>
        <time>2014-07-01T11:12:32Z</time>
      </trkpt>
      <trkpt lat="42.9643" lon="0.20437">
        <ele>1680.5</ele>
        <time>2014-07-01T11:12:41Z</time>
      </trkpt>
      <trkpt lat="42.96434" lon="0.2044">
        <ele>1678.23</ele>
        <time>2014-07-01T11:12:51Z</time>
      </trkpt>
      <trkpt lat="42.96436" lon="0.20446">
        <ele>1676.57</ele>
        <time>2014-07-01T11:13:00Z</time>
      </trkpt>
      <trkpt lat="42.96441" lon="0.20443">
        <ele>1674.79</ele>
        <time>2014-07-01T11:13:09Z</time>
      </trkpt>
      <trkpt lat="42.96445" lon="0.20445">
        <ele>1672.19</ele>
        <time>2014-07-01T11:13:20Z</time>
      </trkpt>
      <trkpt lat="42.96449" lon="0.20444">
        <ele>1669.9</ele>
        <time>2014-07-01T11:13:32Z</time>
      </trkpt>
      <trkpt lat="42.96454" lon="0.20445">
        <ele>1667.95</ele>
        <time>2014-07-01T11:13:43Z</time>
      </trkpt>
      <trkpt lat="42.96456" lon="0.20451">
        <ele>1667.05</ele>
        <time>2014-07-01T11:13:53Z</time>
      </trkpt>
      <trkpt lat="42.96459" lon="0.20456">
        <ele>1663</ele>
        <time>2014-07-01T11:14:14Z</time>
      </trkpt>
      <trkpt lat="42.9646" lon="0.20463">
        <ele>1661.77</ele>
        <time>2014-07-01T11:14:28Z</time>
      </trkpt>
      <trkpt lat="42.96462" lon="0.20468">
        <ele>1659.24</ele>
        <time>2014-07-01T11:14:40Z</time>
      </trkpt>
      <trkpt lat="42.96465" lon="0.20473">
        <ele>1655.36</ele>
        <time>2014-07-01T11:15:00Z</time>
      </trkpt>
      <trkpt lat="42.96468" lon="0.20478">
        <ele>1652.18</ele>
        <time>2014-07-01T11:15:20Z</time>
      </trkpt>
      <trkpt lat="42.9647" lon="0.20484">
        <ele>1649.99</ele>
        <time>2014-07-01T11:15:32Z</time>
      </trkpt>
      <trkpt lat="42.9647" lon="0.2049">
        <ele>1648.24</ele>
        <time>2014-07-01T11:15:47Z</time>
      </trkpt>
      <trkpt lat="42.96473" lon="0.20495">
        <ele>1644.81</ele>
        <time>2014-07-01T11:16:07Z</time>
      </trkpt>
      <trkpt lat="42.96478" lon="0.20496">
        <ele>1642.2</ele>
        <time>2014-07-01T11:16:19Z</time>
      </trkpt>
      <trkpt lat="42.96482" lon="0.20499">
        <ele>1638.74</ele>
        <time>2014-07-01T11:16:33Z</time>
      </trkpt>
      <trkpt lat="42.96485" lon="0.20504">
        <ele>1635.57</ele>
        <time>2014-07-01T11:16:55Z</time>
      </trkpt>
      <trkpt lat="42.96487" lon="0.2051">
        <ele>1634.47</ele>
        <time>2014-07-01T11:17:02Z</time>
      </trkpt>
      <trkpt lat="42.96488" lon="0.20517">
        <ele>1632.08</ele>
        <time>2014-07-01T11:17:13Z</time>
      </trkpt>
      <trkpt lat="42.96491" lon="0.20522">
        <ele>1628.35</ele>
        <time>2014-07-01T11:17:24Z</time>
      </trkpt>
      <trkpt lat="42.96494" lon="0.20527">
        <ele>1623.15</ele>
        <time>2014-07-01T11:17:43Z</time>
      </trkpt>
      <trkpt lat="42.96498" lon="0.20531">
        <ele>1620.93</ele>
        <time>2014-07-01T11:17:53Z</time>
      </trkpt>
      <trkpt lat="42.96502" lon="0.20533">
        <ele>1619.7</ele>
        <time>2014-07-01T11:18:03Z</time>
      </trkpt>
      <trkpt lat="42.96507" lon="0.20533">
        <ele>1616.81</ele>
        <time>2014-07-01T11:18:13Z</time>
      </trkpt>
      <trkpt lat="42.9651" lon="0.20539">
        <ele>1614.95</ele>
        <time>2014-07-01T11:18:23Z</time>
      </trkpt>
      <trkpt lat="42.96511" lon="0.20545">
        <ele>1613.18</ele>
        <time>2014-07-01T11:18:31Z</time>
      </trkpt>
      <trkpt lat="42.96515" lon="0.2055">
        <ele>1610.87</ele>
        <time>2014-07-01T11:18:40Z</time>
      </trkpt>
      <trkpt lat="42.96518" lon="0.20555">
        <ele>1608.01</ele>
        <time>2014-07-01T11:18:49Z</time>
      </trkpt>
      <trkpt lat="42.96521" lon="0.2056">
        <ele>1605.23</ele>
        <time>2014-07-01T11:18:59Z</time>
      </trkpt>
      <trkpt lat="42.96523" lon="0.20566">
        <ele>1603.53</ele>
        <time>2014-07-01T11:19:07Z</time>
      </trkpt>
      <trkpt lat="42.96525" lon="0.20572">
        <ele>1601.93</ele>
        <time>2014-07-01T11:19:15Z</time>
      </trkpt>
      <trkpt lat="42.96528" lon="0.20576">
        <ele>1599.09</ele>
        <time>2014-07-01T11:19:23Z</time>
      </trkpt>
      <trkpt lat="42.96533" lon="0.20578">
        <ele>1596.96</ele>
        <time>2014-07-01T11:19:31Z</time>
      </trkpt>
      <trkpt lat="42.96534" lon="0.20585">
        <ele>1596.65</ele>
        <time>2014-07-01T11:19:39Z</time>
      </trkpt>
      <trkpt lat="42.96538" lon="0.20588">
        <ele>1594.08</ele>
        <time>2014-07-01T11:19:48Z</time>
      </trkpt>
      <trkpt lat="42.9654" lon="0.20594">
        <ele>1592.45</ele>
        <time>2014-07-01T11:19:58Z</time>
      </trkpt>
      <trkpt lat="42.96544" lon="0.20596">
        <ele>1590.96</ele>
        <time>2014-07-01T11:20:11Z</time>
      </trkpt>
      <trkpt lat="42.96548" lon="0.206">
        <ele>1588.89</ele>
        <time>2014-07-01T11:20:21Z</time>
      </trkpt>
      <trkpt lat="42.9655" lon="0.20606">
        <ele>1587.19</ele>
        <time>2014-07-01T11:20:31Z</time>
      </trkpt>
      <trkpt lat="42.96552" lon="0.20612">
        <ele>1586.08</ele>
        <time>2014-07-01T11:20:40Z</time>
      </trkpt>
      <trkpt lat="42.96553" lon="0.20618">
        <ele>1584.5</ele>
        <time>2014-07-01T11:20:49Z</time>
      </trkpt>
      <trkpt lat="42.96557" lon="0.20621">
        <ele>1582.69</ele>
        <time>2014-07-01T11:20:57Z</time>
      </trkpt>
      <trkpt lat="42.96562" lon="0.20621">
        <ele>1580.84</ele>
        <time>2014-07-01T11:21:06Z</time>
      </trkpt>
      <trkpt lat="42.96561" lon="0.20628">
        <ele>1580.13</ele>
        <time>2014-07-01T11:21:13Z</time>
      </trkpt>
      <trkpt lat="42.96565" lon="0.20632">
        <ele>1577.44</ele>
        <time>2014-07-01T11:21:20Z</time>
      </trkpt>
      <trkpt lat="42.96569" lon="0.20637">
        <ele>1576.38</ele>
        <time>2014-07-01T11:21:27Z</time>
      </trkpt>
      <trkpt lat="42.96572" lon="0.20641">
        <ele>1574.89</ele>
        <time>2014-07-01T11:21:35Z</time>
      </trkpt>
      <trkpt lat="42.96575" lon="0.20646">
        <ele>1572.66</ele>
        <time>2014-07-01T11:21:43Z</time>
      </trkpt>
      <trkpt lat="42.96579" lon="0.2065">
        <ele>1571.44</ele>
        <time>2014-07-01T11:21:50Z</time>
      </trkpt>
      <trkpt lat="42.96583" lon="0.20654">
        <ele>1569.99</ele>
        <time>2014-07-01T11:21:56Z</time>
      </trkpt>
      <trkpt lat="42.96586" lon="0.20658">
        <ele>1568.73</ele>
        <time>2014-07-01T11:22:02Z</time>
      </trkpt>
      <trkpt lat="42.96591" lon="0.20661">
        <ele>1568.04</ele>
        <time>2014-07-01T11:22:08Z</time>
      </trkpt>
      <trkpt lat="42.96595" lon="0.20664">
        <ele>1565.89</ele>
        <time>2014-07-01T11:22:14Z</time>
      </trkpt>
      <trkpt lat="42.96599" lon="0.20667">
        <ele>1564.46</ele>
        <time>2014-07-01T11:22:20Z</time>
      </trkpt>
      <trkpt lat="42.96603" lon="0.20671">
        <ele>1563.33</ele>
        <time>2014-07-01T11:22:26Z</time>
      </trkpt>
      <trkpt lat="42.96607" lon="0.20675">
        <ele>1562.46</ele>
        <time>2014-07-01T11:22:32Z</time>
      </trkpt>
      <trkpt lat="42.96612" lon="0.20677">
        <ele>1561.66</ele>
        <time>2014-07-01T11:22:38Z</time>
      </trkpt>
      <trkpt lat="42.96616" lon="0.2068">
        <ele>1560.61</ele>
        <time>2014-07-01T11:22:44Z</time>
      </trkpt>
      <trkpt lat="42.96621" lon="0.20682">
        <ele>1559.42</ele>
        <time>2014-07-01T11:22:50Z</time>
      </trkpt>
      <trkpt lat="42.96625" lon="0.20683">
        <ele>1558.44</ele>
        <time>2014-07-01T11:22:55Z</time>
      </trkpt>
      <trkpt lat="42.9663" lon="0.20685">
        <ele>1559.27</ele>
        <time>2014-07-01T11:23:01Z</time>
      </trkpt>
      <trkpt lat="42.9663" lon="0.20692">
        <ele>1561.96</ele>
        <time>2014-07-01T11:25:39Z</time>
      </trkpt>
      <trkpt lat="42.96632" lon="0.20698">
        <ele>1560.29</ele>
        <time>2014-07-01T11:25:47Z</time>
      </trkpt>
      <trkpt lat="42.96637" lon="0.20701">
        <ele>1558.02</ele>
        <time>2014-07-01T11:25:52Z</time>
      </trkpt>
      <trkpt lat="42.96642" lon="0.20704">
        <ele>1556.48</ele>
        <time>2014-07-01T11:25:57Z</time>
      </trkpt>
      <trkpt lat="42.96646" lon="0.20708">
        <ele>1557</ele>
        <time>2014-07-01T11:26:02Z</time>
      </trkpt>
      <trkpt lat="42.9665" lon="0.20711">
        <ele>1554.53</ele>
        <time>2014-07-01T11:26:07Z</time>
      </trkpt>
      <trkpt lat="42.96655" lon="0.20713">
        <ele>1552.93</ele>
        <time>2014-07-01T11:26:12Z</time>
      </trkpt>
      <trkpt lat="42.9666" lon="0.20716">
        <ele>1552.32</ele>
        <time>2014-07-01T11:26:17Z</time>
      </trkpt>
      <trkpt lat="42.96664" lon="0.20719">
        <ele>1551.6</ele>
        <time>2014-07-01T11:26:22Z</time>
      </trkpt>
      <trkpt lat="42.96669" lon="0.20722">
        <ele>1549.97</ele>
        <time>2014-07-01T11:26:28Z</time>
      </trkpt>
      <trkpt lat="42.96673" lon="0.20725">
        <ele>1549.03</ele>
        <time>2014-07-01T11:26:33Z</time>
      </trkpt>
      <trkpt lat="42.96677" lon="0.2073">
        <ele>1549.06</ele>
        <time>2014-07-01T11:26:38Z</time>
      </trkpt>
      <trkpt lat="42.96681" lon="0.20735">
        <ele>1548.88</ele>
        <time>2014-07-01T11:26:43Z</time>
      </trkpt>
      <trkpt lat="42.96686" lon="0.20738">
        <ele>1548</ele>
        <time>2014-07-01T11:26:48Z</time>
      </trkpt>
      <trkpt lat="42.9669" lon="0.2074">
        <ele>1547.15</ele>
        <time>2014-07-01T11:26:52Z</time>
      </trkpt>
      <trkpt lat="42.96694" lon="0.20742">
        <ele>1548.63</ele>
        <time>2014-07-01T11:26:56Z</time>
      </trkpt>
      <trkpt lat="42.96699" lon="0.20745">
        <ele>1545.7</ele>
        <time>2014-07-01T11:27:01Z</time>
      </trkpt>
      <trkpt lat="42.96704" lon="0.20749">
        <ele>1544.53</ele>
        <time>2014-07-01T11:27:06Z</time>
      </trkpt>
      <trkpt lat="42.96708" lon="0.20753">
        <ele>1543.6</ele>
        <time>2014-07-01T11:27:11Z</time>
      </trkpt>
      <trkpt lat="42.96712" lon="0.20757">
        <ele>1542.61</ele>
        <time>2014-07-01T11:27:16Z</time>
      </trkpt>
      <trkpt lat="42.96715" lon="0.20763">
        <ele>1541.44</ele>
        <time>2014-07-01T11:27:21Z</time>
      </trkpt>
      <trkpt lat="42.96718" lon="0.20768">
        <ele>1540.18</ele>
        <time>2014-07-01T11:27:26Z</time>
      </trkpt>
      <trkpt lat="42.9672" lon="0.20774">
        <ele>1538.99</ele>
        <time>2014-07-01T11:27:31Z</time>
      </trkpt>
      <trkpt lat="42.96723" lon="0.20778">
        <ele>1537.75</ele>
        <time>2014-07-01T11:27:36Z</time>
      </trkpt>
      <trkpt lat="42.96728" lon="0.2078">
        <ele>1536.17</ele>
        <time>2014-07-01T11:27:42Z</time>
      </trkpt>
      <trkpt lat="42.96732" lon="0.20784">
        <ele>1534.95</ele>
        <time>2014-07-01T11:27:49Z</time>
      </trkpt>
      <trkpt lat="42.96737" lon="0.20784">
        <ele>1533.66</ele>
        <time>2014-07-01T11:27:56Z</time>
      </trkpt>
      <trkpt lat="42.96742" lon="0.20784">
        <ele>1532.52</ele>
        <time>2014-07-01T11:28:02Z</time>
      </trkpt>
      <trkpt lat="42.96746" lon="0.20787">
        <ele>1530.49</ele>
        <time>2014-07-01T11:28:09Z</time>
      </trkpt>
      <trkpt lat="42.9675" lon="0.2079">
        <ele>1528.31</ele>
        <time>2014-07-01T11:28:18Z</time>
      </trkpt>
      <trkpt lat="42.96754" lon="0.20794">
        <ele>1526.77</ele>
        <time>2014-07-01T11:28:25Z</time>
      </trkpt>
      <trkpt lat="42.96757" lon="0.20799">
        <ele>1525.57</ele>
        <time>2014-07-01T11:28:30Z</time>
      </trkpt>
      <trkpt lat="42.96761" lon="0.20804">
        <ele>1524.63</ele>
        <time>2014-07-01T11:28:35Z</time>
      </trkpt>
      <trkpt lat="42.96765" lon="0.20808">
        <ele>1523.41</ele>
        <time>2014-07-01T11:28:40Z</time>
      </trkpt>
      <trkpt lat="42.96769" lon="0.20811">
        <ele>1525.59</ele>
        <time>2014-07-01T11:28:45Z</time>
      </trkpt>
      <trkpt lat="42.96773" lon="0.20815">
        <ele>1523.24</ele>
        <time>2014-07-01T11:28:50Z</time>
      </trkpt>
      <trkpt lat="42.96776" lon="0.20819">
        <ele>1521.82</ele>
        <time>2014-07-01T11:28:55Z</time>
      </trkpt>
      <trkpt lat="42.9678" lon="0.20823">
        <ele>1520.6</ele>
        <time>2014-07-01T11:29:00Z</time>
      </trkpt>
      <trkpt lat="42.96784" lon="0.20828">
        <ele>1519.52</ele>
        <time>2014-07-01T11:29:06Z</time>
      </trkpt>
      <trkpt lat="42.96787" lon="0.20832">
        <ele>1518.6</ele>
        <time>2014-07-01T11:29:11Z</time>
      </trkpt>
      <trkpt lat="42.9679" lon="0.20836">
        <ele>1518.04</ele>
        <time>2014-07-01T11:29:16Z</time>
      </trkpt>
      <trkpt lat="42.96794" lon="0.2084">
        <ele>1516.9</ele>
        <time>2014-07-01T11:29:21Z</time>
      </trkpt>
      <trkpt lat="42.96798" lon="0.20843">
        <ele>1516.14</ele>
        <time>2014-07-01T11:29:26Z</time>
      </trkpt>
      <trkpt lat="42.96803" lon="0.20846">
        <ele>1514.88</ele>
        <time>2014-07-01T11:29:31Z</time>
      </trkpt>
      <trkpt lat="42.96807" lon="0.20851">
        <ele>1513.58</ele>
        <time>2014-07-01T11:29:37Z</time>
      </trkpt>
      <trkpt lat="42.96811" lon="0.20855">
        <ele>1512.77</ele>
        <time>2014-07-01T11:29:43Z</time>
      </trkpt>
      <trkpt lat="42.96815" lon="0.20859">
        <ele>1511.41</ele>
        <time>2014-07-01T11:29:50Z</time>
      </trkpt>
      <trkpt lat="42.9682" lon="0.20859">
        <ele>1509.97</ele>
        <time>2014-07-01T11:29:56Z</time>
      </trkpt>
      <trkpt lat="42.96825" lon="0.20859">
        <ele>1508.41</ele>
        <time>2014-07-01T11:30:03Z</time>
      </trkpt>
      <trkpt lat="42.96829" lon="0.20857">
        <ele>1507.38</ele>
        <time>2014-07-01T11:30:09Z</time>
      </trkpt>
      <trkpt lat="42.96834" lon="0.20855">
        <ele>1506.3</ele>
        <time>2014-07-01T11:30:16Z</time>
      </trkpt>
      <trkpt lat="42.96839" lon="0.20855">
        <ele>1504.68</ele>
        <time>2014-07-01T11:30:23Z</time>
      </trkpt>
      <trkpt lat="42.96843" lon="0.20856">
        <ele>1503.43</ele>
        <time>2014-07-01T11:30:30Z</time>
      </trkpt>
      <trkpt lat="42.96848" lon="0.20857">
        <ele>1501.63</ele>
        <time>2014-07-01T11:30:38Z</time>
      </trkpt>
      <trkpt lat="42.96853" lon="0.20857">
        <ele>1499.56</ele>
        <time>2014-07-01T11:30:47Z</time>
      </trkpt>
      <trkpt lat="42.96858" lon="0.20855">
        <ele>1498.92</ele>
        <time>2014-07-01T11:31:18Z</time>
      </trkpt>
      <trkpt lat="42.96862" lon="0.20853">
        <ele>1497.57</ele>
        <time>2014-07-01T11:31:24Z</time>
      </trkpt>
      <trkpt lat="42.96867" lon="0.20852">
        <ele>1496.41</ele>
        <time>2014-07-01T11:31:30Z</time>
      </trkpt>
      <trkpt lat="42.96872" lon="0.2085">
        <ele>1494.91</ele>
        <time>2014-07-01T11:31:37Z</time>
      </trkpt>
      <trkpt lat="42.96876" lon="0.20846">
        <ele>1492.94</ele>
        <time>2014-07-01T11:31:44Z</time>
      </trkpt>
      <trkpt lat="42.9688" lon="0.20845">
        <ele>1491.17</ele>
        <time>2014-07-01T11:31:52Z</time>
      </trkpt>
      <trkpt lat="42.96885" lon="0.20844">
        <ele>1489.21</ele>
        <time>2014-07-01T11:32:00Z</time>
      </trkpt>
      <trkpt lat="42.96889" lon="0.20842">
        <ele>1486.44</ele>
        <time>2014-07-01T11:32:08Z</time>
      </trkpt>
      <trkpt lat="42.96894" lon="0.20843">
        <ele>1484.06</ele>
        <time>2014-07-01T11:32:17Z</time>
      </trkpt>
      <trkpt lat="42.96899" lon="0.20841">
        <ele>1482.42</ele>
        <time>2014-07-01T11:32:24Z</time>
      </trkpt>
      <trkpt lat="42.96903" lon="0.20839">
        <ele>1480.4</ele>
        <time>2014-07-01T11:32:32Z</time>
      </trkpt>
      <trkpt lat="42.96908" lon="0.20838">
        <ele>1479.1</ele>
        <time>2014-07-01T11:32:40Z</time>
      </trkpt>
      <trkpt lat="42.96913" lon="0.20837">
        <ele>1477.56</ele>
        <time>2014-07-01T11:32:48Z</time>
      </trkpt>
      <trkpt lat="42.96917" lon="0.20837">
        <ele>1476.65</ele>
        <time>2014-07-01T11:32:55Z</time>
      </trkpt>
      <trkpt lat="42.96922" lon="0.20836">
        <ele>1475.45</ele>
        <time>2014-07-01T11:33:02Z</time>
      </trkpt>
      <trkpt lat="42.96927" lon="0.20836">
        <ele>1474.5</ele>
        <time>2014-07-01T11:33:10Z</time>
      </trkpt>
      <trkpt lat="42.96931" lon="0.20835">
        <ele>1473.38</ele>
        <time>2014-07-01T11:33:17Z</time>
      </trkpt>
      <trkpt lat="42.96936" lon="0.20834">
        <ele>1472.91</ele>
        <time>2014-07-01T11:33:25Z</time>
      </trkpt>
      <trkpt lat="42.96941" lon="0.20833">
        <ele>1471.66</ele>
        <time>2014-07-01T11:33:33Z</time>
      </trkpt>
      <trkpt lat="42.96946" lon="0.20831">
        <ele>1470.13</ele>
        <time>2014-07-01T11:33:39Z</time>
      </trkpt>
      <trkpt lat="42.96951" lon="0.2083">
        <ele>1468.81</ele>
        <time>2014-07-01T11:33:46Z</time>
      </trkpt>
      <trkpt lat="42.96955" lon="0.20828">
        <ele>1467.28</ele>
        <time>2014-07-01T11:33:53Z</time>
      </trkpt>
      <trkpt lat="42.9696" lon="0.20828">
        <ele>1465.41</ele>
        <time>2014-07-01T11:34:01Z</time>
      </trkpt>
      <trkpt lat="42.96965" lon="0.20831">
        <ele>1463.41</ele>
        <time>2014-07-01T11:34:08Z</time>
      </trkpt>
      <trkpt lat="42.96969" lon="0.20829">
        <ele>1461.53</ele>
        <time>2014-07-01T11:34:15Z</time>
      </trkpt>
      <trkpt lat="42.96974" lon="0.20825">
        <ele>1459.63</ele>
        <time>2014-07-01T11:34:22Z</time>
      </trkpt>
      <trkpt lat="42.96978" lon="0.20823">
        <ele>1457.39</ele>
        <time>2014-07-01T11:34:30Z</time>
      </trkpt>
      <trkpt lat="42.96983" lon="0.20822">
        <ele>1456.13</ele>
        <time>2014-07-01T11:34:38Z</time>
      </trkpt>
      <trkpt lat="42.96988" lon="0.20821">
        <ele>1454.36</ele>
        <time>2014-07-01T11:34:46Z</time>
      </trkpt>
      <trkpt lat="42.96992" lon="0.20819">
        <ele>1452.71</ele>
        <time>2014-07-01T11:34:54Z</time>
      </trkpt>
      <trkpt lat="42.96997" lon="0.20818">
        <ele>1450.57</ele>
        <time>2014-07-01T11:35:02Z</time>
      </trkpt>
      <trkpt lat="42.97002" lon="0.20819">
        <ele>1448.4</ele>
        <time>2014-07-01T11:35:10Z</time>
      </trkpt>
      <trkpt lat="42.97006" lon="0.20817">
        <ele>1447.25</ele>
        <time>2014-07-01T11:35:17Z</time>
      </trkpt>
      <trkpt lat="42.97011" lon="0.20817">
        <ele>1445.64</ele>
        <time>2014-07-01T11:35:25Z</time>
      </trkpt>
      <trkpt lat="42.97016" lon="0.20816">
        <ele>1444.11</ele>
        <time>2014-07-01T11:35:33Z</time>
      </trkpt>
      <trkpt lat="42.97021" lon="0.20816">
        <ele>1441.74</ele>
        <time>2014-07-01T11:35:41Z</time>
      </trkpt>
      <trkpt lat="42.97026" lon="0.20816">
        <ele>1440.15</ele>
        <time>2014-07-01T11:35:48Z</time>
      </trkpt>
      <trkpt lat="42.97031" lon="0.20814">
        <ele>1438.88</ele>
        <time>2014-07-01T11:35:55Z</time>
      </trkpt>
      <trkpt lat="42.97036" lon="0.20814">
        <ele>1437.06</ele>
        <time>2014-07-01T11:36:02Z</time>
      </trkpt>
      <trkpt lat="42.97041" lon="0.20812">
        <ele>1435.32</ele>
        <time>2014-07-01T11:36:09Z</time>
      </trkpt>
      <trkpt lat="42.97045" lon="0.20813">
        <ele>1433.42</ele>
        <time>2014-07-01T11:36:16Z</time>
      </trkpt>
      <trkpt lat="42.9705" lon="0.20813">
        <ele>1431.24</ele>
        <time>2014-07-01T11:36:23Z</time>
      </trkpt>
      <trkpt lat="42.97054" lon="0.20816">
        <ele>1430.16</ele>
        <time>2014-07-01T11:36:29Z</time>
      </trkpt>
      <trkpt lat="42.97059" lon="0.20818">
        <ele>1428.89</ele>
        <time>2014-07-01T11:36:36Z</time>
      </trkpt>
      <trkpt lat="42.97064" lon="0.20819">
        <ele>1427.36</ele>
        <time>2014-07-01T11:36:42Z</time>
      </trkpt>
      <trkpt lat="42.97068" lon="0.20821">
        <ele>1425.86</ele>
        <time>2014-07-01T11:36:48Z</time>
      </trkpt>
      <trkpt lat="42.97073" lon="0.2082">
        <ele>1424.83</ele>
        <time>2014-07-01T11:36:54Z</time>
      </trkpt>
      <trkpt lat="42.97078" lon="0.2082">
        <ele>1424.07</ele>
        <time>2014-07-01T11:36:59Z</time>
      </trkpt>
      <trkpt lat="42.97082" lon="0.20821">
        <ele>1423.19</ele>
        <time>2014-07-01T11:37:04Z</time>
      </trkpt>
      <trkpt lat="42.97087" lon="0.20824">
        <ele>1421.56</ele>
        <time>2014-07-01T11:37:11Z</time>
      </trkpt>
      <trkpt lat="42.97092" lon="0.20825">
        <ele>1420.5</ele>
        <time>2014-07-01T11:37:17Z</time>
      </trkpt>
      <trkpt lat="42.97097" lon="0.20823">
        <ele>1419.68</ele>
        <time>2014-07-01T11:37:22Z</time>
      </trkpt>
      <trkpt lat="42.97101" lon="0.20822">
        <ele>1419.12</ele>
        <time>2014-07-01T11:37:27Z</time>
      </trkpt>
      <trkpt lat="42.97106" lon="0.20824">
        <ele>1418.09</ele>
        <time>2014-07-01T11:37:33Z</time>
      </trkpt>
      <trkpt lat="42.9711" lon="0.20826">
        <ele>1416.47</ele>
        <time>2014-07-01T11:37:39Z</time>
      </trkpt>
      <trkpt lat="42.97115" lon="0.20828">
        <ele>1414.65</ele>
        <time>2014-07-01T11:37:45Z</time>
      </trkpt>
      <trkpt lat="42.9712" lon="0.2083">
        <ele>1414.28</ele>
        <time>2014-07-01T11:37:50Z</time>
      </trkpt>
      <trkpt lat="42.97124" lon="0.20832">
        <ele>1413.84</ele>
        <time>2014-07-01T11:37:55Z</time>
      </trkpt>
      <trkpt lat="42.97129" lon="0.20833">
        <ele>1413.35</ele>
        <time>2014-07-01T11:38:00Z</time>
      </trkpt>
      <trkpt lat="42.97133" lon="0.20835">
        <ele>1413.49</ele>
        <time>2014-07-01T11:38:05Z</time>
      </trkpt>
      <trkpt lat="42.97137" lon="0.20839">
        <ele>1413.46</ele>
        <time>2014-07-01T11:38:10Z</time>
      </trkpt>
      <trkpt lat="42.97142" lon="0.2084">
        <ele>1412.73</ele>
        <time>2014-07-01T11:38:15Z</time>
      </trkpt>
      <trkpt lat="42.97147" lon="0.20843">
        <ele>1412.51</ele>
        <time>2014-07-01T11:38:20Z</time>
      </trkpt>
      <trkpt lat="42.97151" lon="0.20846">
        <ele>1411.57</ele>
        <time>2014-07-01T11:38:25Z</time>
      </trkpt>
      <trkpt lat="42.97156" lon="0.20848">
        <ele>1411.15</ele>
        <time>2014-07-01T11:38:30Z</time>
      </trkpt>
      <trkpt lat="42.97161" lon="0.2085">
        <ele>1410.36</ele>
        <time>2014-07-01T11:38:35Z</time>
      </trkpt>
      <trkpt lat="42.97165" lon="0.20853">
        <ele>1410.2</ele>
        <time>2014-07-01T11:38:40Z</time>
      </trkpt>
      <trkpt lat="42.9717" lon="0.20856">
        <ele>1409.43</ele>
        <time>2014-07-01T11:38:45Z</time>
      </trkpt>
      <trkpt lat="42.97174" lon="0.20859">
        <ele>1408.83</ele>
        <time>2014-07-01T11:38:50Z</time>
      </trkpt>
      <trkpt lat="42.97178" lon="0.20862">
        <ele>1407.59</ele>
        <time>2014-07-01T11:38:55Z</time>
      </trkpt>
      <trkpt lat="42.97183" lon="0.20865">
        <ele>1406.47</ele>
        <time>2014-07-01T11:39:01Z</time>
      </trkpt>
      <trkpt lat="42.97188" lon="0.20868">
        <ele>1405.33</ele>
        <time>2014-07-01T11:39:07Z</time>
      </trkpt>
      <trkpt lat="42.97192" lon="0.20871">
        <ele>1404.43</ele>
        <time>2014-07-01T11:39:12Z</time>
      </trkpt>
      <trkpt lat="42.97196" lon="0.20874">
        <ele>1403.76</ele>
        <time>2014-07-01T11:39:17Z</time>
      </trkpt>
      <trkpt lat="42.972" lon="0.20877">
        <ele>1402.07</ele>
        <time>2014-07-01T11:39:23Z</time>
      </trkpt>
      <trkpt lat="42.97205" lon="0.2088">
        <ele>1400.66</ele>
        <time>2014-07-01T11:39:30Z</time>
      </trkpt>
      <trkpt lat="42.97209" lon="0.20883">
        <ele>1399.45</ele>
        <time>2014-07-01T11:39:36Z</time>
      </trkpt>
      <trkpt lat="42.97214" lon="0.20886">
        <ele>1398.05</ele>
        <time>2014-07-01T11:39:42Z</time>
      </trkpt>
      <trkpt lat="42.97218" lon="0.20888">
        <ele>1396.94</ele>
        <time>2014-07-01T11:39:49Z</time>
      </trkpt>
      <trkpt lat="42.97222" lon="0.20892">
        <ele>1396.82</ele>
        <time>2014-07-01T11:41:18Z</time>
      </trkpt>
      <trkpt lat="42.97226" lon="0.20895">
        <ele>1395.29</ele>
        <time>2014-07-01T11:41:25Z</time>
      </trkpt>
      <trkpt lat="42.9723" lon="0.20898">
        <ele>1393.55</ele>
        <time>2014-07-01T11:41:31Z</time>
      </trkpt>
      <trkpt lat="42.97233" lon="0.20903">
        <ele>1392.32</ele>
        <time>2014-07-01T11:41:38Z</time>
      </trkpt>
      <trkpt lat="42.97237" lon="0.20908">
        <ele>1392.54</ele>
        <time>2014-07-01T11:41:45Z</time>
      </trkpt>
      <trkpt lat="42.97241" lon="0.20911">
        <ele>1390.08</ele>
        <time>2014-07-01T11:41:52Z</time>
      </trkpt>
      <trkpt lat="42.97244" lon="0.20916">
        <ele>1388.59</ele>
        <time>2014-07-01T11:42:00Z</time>
      </trkpt>
      <trkpt lat="42.97247" lon="0.2092">
        <ele>1387.1</ele>
        <time>2014-07-01T11:42:06Z</time>
      </trkpt>
      <trkpt lat="42.97251" lon="0.20925">
        <ele>1385.78</ele>
        <time>2014-07-01T11:42:12Z</time>
      </trkpt>
      <trkpt lat="42.97254" lon="0.2093">
        <ele>1384.5</ele>
        <time>2014-07-01T11:42:17Z</time>
      </trkpt>
      <trkpt lat="42.97258" lon="0.20934">
        <ele>1383.15</ele>
        <time>2014-07-01T11:42:22Z</time>
      </trkpt>
      <trkpt lat="42.97262" lon="0.20938">
        <ele>1381.77</ele>
        <time>2014-07-01T11:42:28Z</time>
      </trkpt>
      <trkpt lat="42.97265" lon="0.20943">
        <ele>1380.66</ele>
        <time>2014-07-01T11:42:33Z</time>
      </trkpt>
      <trkpt lat="42.97268" lon="0.20949">
        <ele>1379.93</ele>
        <time>2014-07-01T11:42:39Z</time>
      </trkpt>
      <trkpt lat="42.97271" lon="0.20953">
        <ele>1378.85</ele>
        <time>2014-07-01T11:42:44Z</time>
      </trkpt>
      <trkpt lat="42.97275" lon="0.20957">
        <ele>1378.37</ele>
        <time>2014-07-01T11:42:49Z</time>
      </trkpt>
      <trkpt lat="42.97278" lon="0.20962">
        <ele>1377.84</ele>
        <time>2014-07-01T11:42:54Z</time>
      </trkpt>
      <trkpt lat="42.97282" lon="0.20965">
        <ele>1376.21</ele>
        <time>2014-07-01T11:42:59Z</time>
      </trkpt>
      <trkpt lat="42.97285" lon="0.2097">
        <ele>1375.21</ele>
        <time>2014-07-01T11:43:04Z</time>
      </trkpt>
      <trkpt lat="42.97289" lon="0.20974">
        <ele>1374.65</ele>
        <time>2014-07-01T11:43:09Z</time>
      </trkpt>
      <trkpt lat="42.97293" lon="0.20979">
        <ele>1376.04</ele>
        <time>2014-07-01T11:43:14Z</time>
      </trkpt>
      <trkpt lat="42.97295" lon="0.20985">
        <ele>1372.92</ele>
        <time>2014-07-01T11:43:20Z</time>
      </trkpt>
      <trkpt lat="42.97298" lon="0.2099">
        <ele>1371.75</ele>
        <time>2014-07-01T11:43:26Z</time>
      </trkpt>
      <trkpt lat="42.97303" lon="0.20993">
        <ele>1371.85</ele>
        <time>2014-07-01T11:43:32Z</time>
      </trkpt>
      <trkpt lat="42.97308" lon="0.20995">
        <ele>1371</ele>
        <time>2014-07-01T11:43:37Z</time>
      </trkpt>
      <trkpt lat="42.97313" lon="0.20998">
        <ele>1369.6</ele>
        <time>2014-07-01T11:43:42Z</time>
      </trkpt>
      <trkpt lat="42.97317" lon="0.21002">
        <ele>1369.85</ele>
        <time>2014-07-01T11:43:47Z</time>
      </trkpt>
      <trkpt lat="42.9732" lon="0.21007">
        <ele>1370.18</ele>
        <time>2014-07-01T11:43:53Z</time>
      </trkpt>
      <trkpt lat="42.97324" lon="0.21011">
        <ele>1370.24</ele>
        <time>2014-07-01T11:43:58Z</time>
      </trkpt>
      <trkpt lat="42.97327" lon="0.21016">
        <ele>1369.79</ele>
        <time>2014-07-01T11:44:03Z</time>
      </trkpt>
      <trkpt lat="42.9733" lon="0.21022">
        <ele>1369.71</ele>
        <time>2014-07-01T11:44:08Z</time>
      </trkpt>
      <trkpt lat="42.97334" lon="0.21027">
        <ele>1369.39</ele>
        <time>2014-07-01T11:44:14Z</time>
      </trkpt>
      <trkpt lat="42.97337" lon="0.21031">
        <ele>1367.39</ele>
        <time>2014-07-01T11:44:28Z</time>
      </trkpt>
      <trkpt lat="42.97341" lon="0.21037">
        <ele>1366</ele>
        <time>2014-07-01T11:44:34Z</time>
      </trkpt>
      <trkpt lat="42.97342" lon="0.21044">
        <ele>1364.8</ele>
        <time>2014-07-01T11:44:40Z</time>
      </trkpt>
      <trkpt lat="42.97345" lon="0.21049">
        <ele>1363.82</ele>
        <time>2014-07-01T11:44:46Z</time>
      </trkpt>
      <trkpt lat="42.97347" lon="0.21055">
        <ele>1362.65</ele>
        <time>2014-07-01T11:44:51Z</time>
      </trkpt>
      <trkpt lat="42.97349" lon="0.21061">
        <ele>1361.85</ele>
        <time>2014-07-01T11:44:57Z</time>
      </trkpt>
      <trkpt lat="42.9735" lon="0.21068">
        <ele>1360.49</ele>
        <time>2014-07-01T11:45:02Z</time>
      </trkpt>
      <trkpt lat="42.97354" lon="0.21074">
        <ele>1359.5</ele>
        <time>2014-07-01T11:45:07Z</time>
      </trkpt>
      <trkpt lat="42.97359" lon="0.21075">
        <ele>1356.66</ele>
        <time>2014-07-01T11:45:12Z</time>
      </trkpt>
      <trkpt lat="42.97364" lon="0.21077">
        <ele>1358.54</ele>
        <time>2014-07-01T11:45:16Z</time>
      </trkpt>
      <trkpt lat="42.97369" lon="0.2108">
        <ele>1355.82</ele>
        <time>2014-07-01T11:45:21Z</time>
      </trkpt>
      <trkpt lat="42.97373" lon="0.21081">
        <ele>1355.03</ele>
        <time>2014-07-01T11:45:26Z</time>
      </trkpt>
      <trkpt lat="42.97378" lon="0.21083">
        <ele>1353.57</ele>
        <time>2014-07-01T11:45:32Z</time>
      </trkpt>
      <trkpt lat="42.97382" lon="0.21087">
        <ele>1352</ele>
        <time>2014-07-01T11:45:38Z</time>
      </trkpt>
      <trkpt lat="42.97387" lon="0.2109">
        <ele>1348.57</ele>
        <time>2014-07-01T11:45:45Z</time>
      </trkpt>
      <trkpt lat="42.97391" lon="0.21093">
        <ele>1347.55</ele>
        <time>2014-07-01T11:45:52Z</time>
      </trkpt>
      <trkpt lat="42.97396" lon="0.21095">
        <ele>1346.21</ele>
        <time>2014-07-01T11:45:58Z</time>
      </trkpt>
      <trkpt lat="42.97401" lon="0.21097">
        <ele>1344.96</ele>
        <time>2014-07-01T11:46:04Z</time>
      </trkpt>
      <trkpt lat="42.97406" lon="0.21098">
        <ele>1343.62</ele>
        <time>2014-07-01T11:46:09Z</time>
      </trkpt>
      <trkpt lat="42.97411" lon="0.21101">
        <ele>1342.57</ele>
        <time>2014-07-01T11:46:14Z</time>
      </trkpt>
      <trkpt lat="42.97415" lon="0.21102">
        <ele>1341.9</ele>
        <time>2014-07-01T11:46:19Z</time>
      </trkpt>
      <trkpt lat="42.9742" lon="0.21105">
        <ele>1341.48</ele>
        <time>2014-07-01T11:46:25Z</time>
      </trkpt>
      <trkpt lat="42.97425" lon="0.21108">
        <ele>1340.59</ele>
        <time>2014-07-01T11:46:31Z</time>
      </trkpt>
      <trkpt lat="42.97429" lon="0.21112">
        <ele>1340.07</ele>
        <time>2014-07-01T11:46:36Z</time>
      </trkpt>
      <trkpt lat="42.97432" lon="0.21117">
        <ele>1339.64</ele>
        <time>2014-07-01T11:46:43Z</time>
      </trkpt>
      <trkpt lat="42.97435" lon="0.21121">
        <ele>1339.27</ele>
        <time>2014-07-01T11:46:50Z</time>
      </trkpt>
      <trkpt lat="42.9744" lon="0.21123">
        <ele>1338.28</ele>
        <time>2014-07-01T11:46:56Z</time>
      </trkpt>
      <trkpt lat="42.97444" lon="0.21128">
        <ele>1337.2</ele>
        <time>2014-07-01T11:47:02Z</time>
      </trkpt>
      <trkpt lat="42.97448" lon="0.21131">
        <ele>1336.05</ele>
        <time>2014-07-01T11:47:08Z</time>
      </trkpt>
      <trkpt lat="42.97453" lon="0.21132">
        <ele>1335</ele>
        <time>2014-07-01T11:47:13Z</time>
      </trkpt>
      <trkpt lat="42.97457" lon="0.21133">
        <ele>1333.15</ele>
        <time>2014-07-01T11:47:18Z</time>
      </trkpt>
      <trkpt lat="42.97462" lon="0.21135">
        <ele>1331.64</ele>
        <time>2014-07-01T11:47:24Z</time>
      </trkpt>
      <trkpt lat="42.97467" lon="0.21138">
        <ele>1329.31</ele>
        <time>2014-07-01T11:47:31Z</time>
      </trkpt>
      <trkpt lat="42.97471" lon="0.2114">
        <ele>1326.62</ele>
        <time>2014-07-01T11:47:40Z</time>
      </trkpt>
      <trkpt lat="42.97476" lon="0.21143">
        <ele>1324.36</ele>
        <time>2014-07-01T11:47:49Z</time>
      </trkpt>
      <trkpt lat="42.97481" lon="0.21141">
        <ele>1321.88</ele>
        <time>2014-07-01T11:47:57Z</time>
      </trkpt>
      <trkpt lat="42.97485" lon="0.21139">
        <ele>1320.37</ele>
        <time>2014-07-01T11:48:04Z</time>
      </trkpt>
      <trkpt lat="42.97487" lon="0.21133">
        <ele>1318.14</ele>
        <time>2014-07-01T11:48:12Z</time>
      </trkpt>
      <trkpt lat="42.97491" lon="0.21128">
        <ele>1316.32</ele>
        <time>2014-07-01T11:48:18Z</time>
      </trkpt>
      <trkpt lat="42.97495" lon="0.21124">
        <ele>1318.74</ele>
        <time>2014-07-01T11:48:24Z</time>
      </trkpt>
      <trkpt lat="42.975" lon="0.21124">
        <ele>1313.83</ele>
        <time>2014-07-01T11:48:31Z</time>
      </trkpt>
      <trkpt lat="42.97504" lon="0.21125">
        <ele>1311.86</ele>
        <time>2014-07-01T11:48:37Z</time>
      </trkpt>
      <trkpt lat="42.97509" lon="0.21125">
        <ele>1311.09</ele>
        <time>2014-07-01T11:48:43Z</time>
      </trkpt>
      <trkpt lat="42.97514" lon="0.21125">
        <ele>1309.79</ele>
        <time>2014-07-01T11:48:49Z</time>
      </trkpt>
      <trkpt lat="42.97519" lon="0.21126">
        <ele>1309.01</ele>
        <time>2014-07-01T11:48:55Z</time>
      </trkpt>
      <trkpt lat="42.97524" lon="0.21128">
        <ele>1309.1</ele>
        <time>2014-07-01T11:49:01Z</time>
      </trkpt>
      <trkpt lat="42.97529" lon="0.2113">
        <ele>1309.3</ele>
        <time>2014-07-01T11:49:07Z</time>
      </trkpt>
      <trkpt lat="42.97533" lon="0.21131">
        <ele>1308.76</ele>
        <time>2014-07-01T11:49:12Z</time>
      </trkpt>
      <trkpt lat="42.97538" lon="0.21132">
        <ele>1308.1</ele>
        <time>2014-07-01T11:49:17Z</time>
      </trkpt>
      <trkpt lat="42.97542" lon="0.21133">
        <ele>1307.5</ele>
        <time>2014-07-01T11:49:22Z</time>
      </trkpt>
      <trkpt lat="42.97548" lon="0.21135">
        <ele>1307.54</ele>
        <time>2014-07-01T11:49:27Z</time>
      </trkpt>
      <trkpt lat="42.97553" lon="0.21135">
        <ele>1306.85</ele>
        <time>2014-07-01T11:49:32Z</time>
      </trkpt>
      <trkpt lat="42.97558" lon="0.21137">
        <ele>1306.11</ele>
        <time>2014-07-01T11:49:37Z</time>
      </trkpt>
      <trkpt lat="42.97563" lon="0.21138">
        <ele>1305.78</ele>
        <time>2014-07-01T11:49:42Z</time>
      </trkpt>
      <trkpt lat="42.97569" lon="0.21139">
        <ele>1305.69</ele>
        <time>2014-07-01T11:49:47Z</time>
      </trkpt>
      <trkpt lat="42.97574" lon="0.21139">
        <ele>1305.4</ele>
        <time>2014-07-01T11:49:52Z</time>
      </trkpt>
      <trkpt lat="42.97579" lon="0.21137">
        <ele>1304.89</ele>
        <time>2014-07-01T11:49:57Z</time>
      </trkpt>
      <trkpt lat="42.97584" lon="0.21137">
        <ele>1304.36</ele>
        <time>2014-07-01T11:50:02Z</time>
      </trkpt>
      <trkpt lat="42.97588" lon="0.21139">
        <ele>1303.32</ele>
        <time>2014-07-01T11:50:07Z</time>
      </trkpt>
      <trkpt lat="42.97593" lon="0.21141">
        <ele>1302.12</ele>
        <time>2014-07-01T11:50:13Z</time>
      </trkpt>
      <trkpt lat="42.97598" lon="0.21143">
        <ele>1300.81</ele>
        <time>2014-07-01T11:50:19Z</time>
      </trkpt>
      <trkpt lat="42.97601" lon="0.21148">
        <ele>1300.58</ele>
        <time>2014-07-01T11:50:24Z</time>
      </trkpt>
      <trkpt lat="42.97605" lon="0.21151">
        <ele>1300.58</ele>
        <time>2014-07-01T11:50:29Z</time>
      </trkpt>
      <trkpt lat="42.97609" lon="0.21155">
        <ele>1300.01</ele>
        <time>2014-07-01T11:50:34Z</time>
      </trkpt>
      <trkpt lat="42.97614" lon="0.21157">
        <ele>1299.57</ele>
        <time>2014-07-01T11:50:39Z</time>
      </trkpt>
      <trkpt lat="42.97618" lon="0.21159">
        <ele>1298.99</ele>
        <time>2014-07-01T11:50:44Z</time>
      </trkpt>
      <trkpt lat="42.97623" lon="0.2116">
        <ele>1298.34</ele>
        <time>2014-07-01T11:50:49Z</time>
      </trkpt>
      <trkpt lat="42.97627" lon="0.21162">
        <ele>1297.53</ele>
        <time>2014-07-01T11:50:54Z</time>
      </trkpt>
      <trkpt lat="42.97632" lon="0.21165">
        <ele>1297.35</ele>
        <time>2014-07-01T11:51:00Z</time>
      </trkpt>
      <trkpt lat="42.97637" lon="0.21165">
        <ele>1295.98</ele>
        <time>2014-07-01T11:51:07Z</time>
      </trkpt>
      <trkpt lat="42.97641" lon="0.21169">
        <ele>1295.24</ele>
        <time>2014-07-01T11:51:14Z</time>
      </trkpt>
      <trkpt lat="42.97645" lon="0.21173">
        <ele>1295.57</ele>
        <time>2014-07-01T11:51:20Z</time>
      </trkpt>
      <trkpt lat="42.97648" lon="0.21178">
        <ele>1295.73</ele>
        <time>2014-07-01T11:51:26Z</time>
      </trkpt>
      <trkpt lat="42.97652" lon="0.21183">
        <ele>1299.75</ele>
        <time>2014-07-01T11:51:32Z</time>
      </trkpt>
      <trkpt lat="42.97655" lon="0.21188">
        <ele>1295.86</ele>
        <time>2014-07-01T11:51:38Z</time>
      </trkpt>
      <trkpt lat="42.97658" lon="0.21192">
        <ele>1294.68</ele>
        <time>2014-07-01T11:51:43Z</time>
      </trkpt>
      <trkpt lat="42.97662" lon="0.21196">
        <ele>1293.89</ele>
        <time>2014-07-01T11:51:48Z</time>
      </trkpt>
      <trkpt lat="42.97666" lon="0.212">
        <ele>1293.18</ele>
        <time>2014-07-01T11:51:53Z</time>
      </trkpt>
      <trkpt lat="42.9767" lon="0.21203">
        <ele>1291.57</ele>
        <time>2014-07-01T11:51:58Z</time>
      </trkpt>
      <trkpt lat="42.97673" lon="0.21208">
        <ele>1290.98</ele>
        <time>2014-07-01T11:52:04Z</time>
      </trkpt>
      <trkpt lat="42.97677" lon="0.21212">
        <ele>1290.52</ele>
        <time>2014-07-01T11:52:10Z</time>
      </trkpt>
      <trkpt lat="42.97681" lon="0.21215">
        <ele>1288.61</ele>
        <time>2014-07-01T11:52:17Z</time>
      </trkpt>
      <trkpt lat="42.97686" lon="0.21218">
        <ele>1287.57</ele>
        <time>2014-07-01T11:52:23Z</time>
      </trkpt>
      <trkpt lat="42.9769" lon="0.21223">
        <ele>1356.52</ele>
        <time>2014-07-01T11:52:29Z</time>
      </trkpt>
      <trkpt lat="42.97694" lon="0.21227">
        <ele>1309.31</ele>
        <time>2014-07-01T11:52:35Z</time>
      </trkpt>
      <trkpt lat="42.97698" lon="0.21231">
        <ele>1290.98</ele>
        <time>2014-07-01T11:52:42Z</time>
      </trkpt>
      <trkpt lat="42.97702" lon="0.21236">
        <ele>1284.75</ele>
        <time>2014-07-01T11:52:49Z</time>
      </trkpt>
      <trkpt lat="42.97706" lon="0.21239">
        <ele>1282.78</ele>
        <time>2014-07-01T11:52:54Z</time>
      </trkpt>
      <trkpt lat="42.9771" lon="0.21242">
        <ele>1281.46</ele>
        <time>2014-07-01T11:52:58Z</time>
      </trkpt>
      <trkpt lat="42.97714" lon="0.21245">
        <ele>1279.98</ele>
        <time>2014-07-01T11:53:02Z</time>
      </trkpt>
      <trkpt lat="42.97718" lon="0.21248">
        <ele>1279.79</ele>
        <time>2014-07-01T11:53:06Z</time>
      </trkpt>
      <trkpt lat="42.97722" lon="0.21253">
        <ele>1278.46</ele>
        <time>2014-07-01T11:53:11Z</time>
      </trkpt>
      <trkpt lat="42.97726" lon="0.21256">
        <ele>1276.63</ele>
        <time>2014-07-01T11:53:17Z</time>
      </trkpt>
      <trkpt lat="42.9773" lon="0.2126">
        <ele>1274.79</ele>
        <time>2014-07-01T11:53:24Z</time>
      </trkpt>
      <trkpt lat="42.97733" lon="0.21265">
        <ele>1273.39</ele>
        <time>2014-07-01T11:53:30Z</time>
      </trkpt>
      <trkpt lat="42.97736" lon="0.21271">
        <ele>1272.35</ele>
        <time>2014-07-01T11:53:36Z</time>
      </trkpt>
      <trkpt lat="42.9774" lon="0.21275">
        <ele>1270.15</ele>
        <time>2014-07-01T11:53:43Z</time>
      </trkpt>
      <trkpt lat="42.97745" lon="0.21276">
        <ele>1268.66</ele>
        <time>2014-07-01T11:53:49Z</time>
      </trkpt>
      <trkpt lat="42.97749" lon="0.21279">
        <ele>1266.59</ele>
        <time>2014-07-01T11:53:55Z</time>
      </trkpt>
      <trkpt lat="42.97753" lon="0.21284">
        <ele>1264.73</ele>
        <time>2014-07-01T11:54:02Z</time>
      </trkpt>
      <trkpt lat="42.97756" lon="0.21288">
        <ele>1264.41</ele>
        <time>2014-07-01T11:54:08Z</time>
      </trkpt>
      <trkpt lat="42.97761" lon="0.21292">
        <ele>1262.89</ele>
        <time>2014-07-01T11:54:15Z</time>
      </trkpt>
      <trkpt lat="42.97764" lon="0.21295">
        <ele>1261.81</ele>
        <time>2014-07-01T11:54:21Z</time>
      </trkpt>
      <trkpt lat="42.97768" lon="0.213">
        <ele>1260.3</ele>
        <time>2014-07-01T11:54:27Z</time>
      </trkpt>
      <trkpt lat="42.97772" lon="0.21303">
        <ele>1259.25</ele>
        <time>2014-07-01T11:54:33Z</time>
      </trkpt>
      <trkpt lat="42.97776" lon="0.21307">
        <ele>1257.88</ele>
        <time>2014-07-01T11:54:40Z</time>
      </trkpt>
      <trkpt lat="42.97781" lon="0.21307">
        <ele>1256.26</ele>
        <time>2014-07-01T11:54:45Z</time>
      </trkpt>
      <trkpt lat="42.97786" lon="0.21308">
        <ele>1254.79</ele>
        <time>2014-07-01T11:54:50Z</time>
      </trkpt>
      <trkpt lat="42.97791" lon="0.21311">
        <ele>1253.16</ele>
        <time>2014-07-01T11:54:56Z</time>
      </trkpt>
      <trkpt lat="42.97795" lon="0.21314">
        <ele>1252.16</ele>
        <time>2014-07-01T11:55:02Z</time>
      </trkpt>
      <trkpt lat="42.97799" lon="0.2132">
        <ele>1251.18</ele>
        <time>2014-07-01T11:55:08Z</time>
      </trkpt>
      <trkpt lat="42.97803" lon="0.21323">
        <ele>1249.49</ele>
        <time>2014-07-01T11:55:14Z</time>
      </trkpt>
      <trkpt lat="42.97808" lon="0.21327">
        <ele>1247.43</ele>
        <time>2014-07-01T11:55:20Z</time>
      </trkpt>
      <trkpt lat="42.97812" lon="0.2133">
        <ele>1245.81</ele>
        <time>2014-07-01T11:55:26Z</time>
      </trkpt>
      <trkpt lat="42.97816" lon="0.21331">
        <ele>1244.06</ele>
        <time>2014-07-01T11:55:33Z</time>
      </trkpt>
      <trkpt lat="42.9782" lon="0.21336">
        <ele>1243.32</ele>
        <time>2014-07-01T11:55:39Z</time>
      </trkpt>
      <trkpt lat="42.97824" lon="0.2134">
        <ele>1243.32</ele>
        <time>2014-07-01T11:55:45Z</time>
      </trkpt>
      <trkpt lat="42.97826" lon="0.21346">
        <ele>1242.65</ele>
        <time>2014-07-01T11:55:51Z</time>
      </trkpt>
      <trkpt lat="42.97829" lon="0.21351">
        <ele>1242.37</ele>
        <time>2014-07-01T11:55:58Z</time>
      </trkpt>
      <trkpt lat="42.97831" lon="0.21357">
        <ele>1240.27</ele>
        <time>2014-07-01T11:56:04Z</time>
      </trkpt>
      <trkpt lat="42.97828" lon="0.21361">
        <ele>1240</ele>
        <time>2014-07-01T11:56:10Z</time>
      </trkpt>
      <trkpt lat="42.97824" lon="0.21364">
        <ele>1240.38</ele>
        <time>2014-07-01T11:56:17Z</time>
      </trkpt>
      <trkpt lat="42.9782" lon="0.21366">
        <ele>1242.41</ele>
        <time>2014-07-01T11:56:23Z</time>
      </trkpt>
      <trkpt lat="42.97815" lon="0.21369">
        <ele>1243.86</ele>
        <time>2014-07-01T11:56:32Z</time>
      </trkpt>
      <trkpt lat="42.97811" lon="0.21371">
        <ele>1239.18</ele>
        <time>2014-07-01T11:57:42Z</time>
      </trkpt>
      <trkpt lat="42.97815" lon="0.21374">
        <ele>1238.91</ele>
        <time>2014-07-01T12:06:50Z</time>
      </trkpt>
      <trkpt lat="42.97819" lon="0.21378">
        <ele>1238.73</ele>
        <time>2014-07-01T12:06:56Z</time>
      </trkpt>
      <trkpt lat="42.97823" lon="0.21381">
        <ele>1237.62</ele>
        <time>2014-07-01T12:07:01Z</time>
      </trkpt>
      <trkpt lat="42.97827" lon="0.21385">
        <ele>1236.17</ele>
        <time>2014-07-01T12:07:07Z</time>
      </trkpt>
      <trkpt lat="42.97831" lon="0.2139">
        <ele>1234.93</ele>
        <time>2014-07-01T12:07:13Z</time>
      </trkpt>
      <trkpt lat="42.97833" lon="0.21396">
        <ele>1234.12</ele>
        <time>2014-07-01T12:07:18Z</time>
      </trkpt>
      <trkpt lat="42.97835" lon="0.21402">
        <ele>1232.93</ele>
        <time>2014-07-01T12:07:23Z</time>
      </trkpt>
      <trkpt lat="42.97839" lon="0.21406">
        <ele>1232.44</ele>
        <time>2014-07-01T12:07:28Z</time>
      </trkpt>
      <trkpt lat="42.97841" lon="0.21412">
        <ele>1231.27</ele>
        <time>2014-07-01T12:07:33Z</time>
      </trkpt>
      <trkpt lat="42.97838" lon="0.21417">
        <ele>1229.23</ele>
        <time>2014-07-01T12:07:39Z</time>
      </trkpt>
      <trkpt lat="42.97833" lon="0.21415">
        <ele>1228.64</ele>
        <time>2014-07-01T12:07:43Z</time>
      </trkpt>
      <trkpt lat="42.97828" lon="0.21414">
        <ele>1227.71</ele>
        <time>2014-07-01T12:07:48Z</time>
      </trkpt>
      <trkpt lat="42.97823" lon="0.21415">
        <ele>1225.73</ele>
        <time>2014-07-01T12:07:54Z</time>
      </trkpt>
      <trkpt lat="42.97818" lon="0.21416">
        <ele>1224.25</ele>
        <time>2014-07-01T12:08:00Z</time>
      </trkpt>
      <trkpt lat="42.97813" lon="0.21418">
        <ele>1223.35</ele>
        <time>2014-07-01T12:08:06Z</time>
      </trkpt>
      <trkpt lat="42.97809" lon="0.2142">
        <ele>1222.68</ele>
        <time>2014-07-01T12:08:11Z</time>
      </trkpt>
      <trkpt lat="42.97805" lon="0.21423">
        <ele>1222.29</ele>
        <time>2014-07-01T12:08:17Z</time>
      </trkpt>
      <trkpt lat="42.978" lon="0.21425">
        <ele>1221.03</ele>
        <time>2014-07-01T12:08:23Z</time>
      </trkpt>
      <trkpt lat="42.97795" lon="0.21425">
        <ele>1220.82</ele>
        <time>2014-07-01T12:08:29Z</time>
      </trkpt>
      <trkpt lat="42.9779" lon="0.21429">
        <ele>1220.27</ele>
        <time>2014-07-01T12:08:36Z</time>
      </trkpt>
      <trkpt lat="42.97786" lon="0.21431">
        <ele>1220.36</ele>
        <time>2014-07-01T12:08:43Z</time>
      </trkpt>
      <trkpt lat="42.97781" lon="0.2143">
        <ele>1221.46</ele>
        <time>2014-07-01T12:08:49Z</time>
      </trkpt>
      <trkpt lat="42.97776" lon="0.21429">
        <ele>1220.22</ele>
        <time>2014-07-01T12:08:54Z</time>
      </trkpt>
      <trkpt lat="42.97771" lon="0.2143">
        <ele>1217.73</ele>
        <time>2014-07-01T12:09:00Z</time>
      </trkpt>
      <trkpt lat="42.97766" lon="0.21431">
        <ele>1216.78</ele>
        <time>2014-07-01T12:09:05Z</time>
      </trkpt>
      <trkpt lat="42.97762" lon="0.21432">
        <ele>1216.94</ele>
        <time>2014-07-01T12:09:11Z</time>
      </trkpt>
      <trkpt lat="42.97756" lon="0.21433">
        <ele>1212.8</ele>
        <time>2014-07-01T12:09:19Z</time>
      </trkpt>
      <trkpt lat="42.97752" lon="0.21434">
        <ele>1211.66</ele>
        <time>2014-07-01T12:09:24Z</time>
      </trkpt>
      <trkpt lat="42.97747" lon="0.21435">
        <ele>1210.09</ele>
        <time>2014-07-01T12:09:29Z</time>
      </trkpt>
      <trkpt lat="42.97743" lon="0.21439">
        <ele>1208</ele>
        <time>2014-07-01T12:09:35Z</time>
      </trkpt>
      <trkpt lat="42.97738" lon="0.21439">
        <ele>1209.76</ele>
        <time>2014-07-01T12:09:41Z</time>
      </trkpt>
      <trkpt lat="42.97733" lon="0.21438">
        <ele>1211.1</ele>
        <time>2014-07-01T12:09:46Z</time>
      </trkpt>
      <trkpt lat="42.97729" lon="0.2144">
        <ele>1211.44</ele>
        <time>2014-07-01T12:09:51Z</time>
      </trkpt>
      <trkpt lat="42.97723" lon="0.2144">
        <ele>1210.55</ele>
        <time>2014-07-01T12:09:56Z</time>
      </trkpt>
      <trkpt lat="42.97719" lon="0.21438">
        <ele>1204.54</ele>
        <time>2014-07-01T12:10:14Z</time>
      </trkpt>
      <trkpt lat="42.97714" lon="0.21438">
        <ele>1201.43</ele>
        <time>2014-07-01T12:10:20Z</time>
      </trkpt>
      <trkpt lat="42.97709" lon="0.21439">
        <ele>1203</ele>
        <time>2014-07-01T12:10:26Z</time>
      </trkpt>
      <trkpt lat="42.97704" lon="0.21439">
        <ele>1201.51</ele>
        <time>2014-07-01T12:10:32Z</time>
      </trkpt>
      <trkpt lat="42.977" lon="0.21441">
        <ele>1200.6</ele>
        <time>2014-07-01T12:10:45Z</time>
      </trkpt>
      <trkpt lat="42.97695" lon="0.21441">
        <ele>1200.93</ele>
        <time>2014-07-01T12:10:51Z</time>
      </trkpt>
      <trkpt lat="42.97691" lon="0.21442">
        <ele>1201</ele>
        <time>2014-07-01T12:10:57Z</time>
      </trkpt>
      <trkpt lat="42.97686" lon="0.21443">
        <ele>1201.21</ele>
        <time>2014-07-01T12:11:02Z</time>
      </trkpt>
      <trkpt lat="42.97681" lon="0.21444">
        <ele>1199.14</ele>
        <time>2014-07-01T12:11:08Z</time>
      </trkpt>
      <trkpt lat="42.97676" lon="0.21446">
        <ele>1196.99</ele>
        <time>2014-07-01T12:11:16Z</time>
      </trkpt>
      <trkpt lat="42.97672" lon="0.21449">
        <ele>1196.02</ele>
        <time>2014-07-01T12:11:25Z</time>
      </trkpt>
      <trkpt lat="42.97667" lon="0.21449">
        <ele>1194.93</ele>
        <time>2014-07-01T12:11:34Z</time>
      </trkpt>
      <trkpt lat="42.97662" lon="0.2145">
        <ele>1193.04</ele>
        <time>2014-07-01T12:11:40Z</time>
      </trkpt>
      <trkpt lat="42.97657" lon="0.2145">
        <ele>1190.58</ele>
        <time>2014-07-01T12:11:46Z</time>
      </trkpt>
      <trkpt lat="42.97653" lon="0.21452">
        <ele>1187.21</ele>
        <time>2014-07-01T12:11:55Z</time>
      </trkpt>
      <trkpt lat="42.97648" lon="0.21453">
        <ele>1188.23</ele>
        <time>2014-07-01T12:12:00Z</time>
      </trkpt>
      <trkpt lat="42.97644" lon="0.21455">
        <ele>1187.24</ele>
        <time>2014-07-01T12:12:06Z</time>
      </trkpt>
      <trkpt lat="42.97639" lon="0.21455">
        <ele>1186.7</ele>
        <time>2014-07-01T12:12:13Z</time>
      </trkpt>
      <trkpt lat="42.97633" lon="0.21456">
        <ele>1186.96</ele>
        <time>2014-07-01T12:12:19Z</time>
      </trkpt>
      <trkpt lat="42.97629" lon="0.21458">
        <ele>1185.68</ele>
        <time>2014-07-01T12:12:25Z</time>
      </trkpt>
      <trkpt lat="42.97624" lon="0.2146">
        <ele>1184.56</ele>
        <time>2014-07-01T12:12:32Z</time>
      </trkpt>
      <trkpt lat="42.9762" lon="0.21461">
        <ele>1185.85</ele>
        <time>2014-07-01T12:12:37Z</time>
      </trkpt>
      <trkpt lat="42.97616" lon="0.21465">
        <ele>1186.43</ele>
        <time>2014-07-01T12:12:43Z</time>
      </trkpt>
      <trkpt lat="42.97612" lon="0.21468">
        <ele>1185.75</ele>
        <time>2014-07-01T12:12:48Z</time>
      </trkpt>
      <trkpt lat="42.97608" lon="0.21472">
        <ele>1182.21</ele>
        <time>2014-07-01T12:12:54Z</time>
      </trkpt>
      <trkpt lat="42.97605" lon="0.21477">
        <ele>1183.01</ele>
        <time>2014-07-01T12:13:01Z</time>
      </trkpt>
      <trkpt lat="42.97602" lon="0.21482">
        <ele>1179.47</ele>
        <time>2014-07-01T12:13:21Z</time>
      </trkpt>
      <trkpt lat="42.97601" lon="0.21489">
        <ele>1252.5</ele>
        <time>2014-07-01T12:13:28Z</time>
      </trkpt>
      <trkpt lat="42.97598" lon="0.21495">
        <ele>1207.51</ele>
        <time>2014-07-01T12:13:32Z</time>
      </trkpt>
      <trkpt lat="42.97595" lon="0.21501">
        <ele>1184.32</ele>
        <time>2014-07-01T12:13:38Z</time>
      </trkpt>
      <trkpt lat="42.97594" lon="0.21508">
        <ele>1181</ele>
        <time>2014-07-01T12:13:43Z</time>
      </trkpt>
      <trkpt lat="42.97591" lon="0.21514">
        <ele>1176.92</ele>
        <time>2014-07-01T12:13:48Z</time>
      </trkpt>
      <trkpt lat="42.97589" lon="0.21521">
        <ele>1174.91</ele>
        <time>2014-07-01T12:13:52Z</time>
      </trkpt>
      <trkpt lat="42.97587" lon="0.21528">
        <ele>1172.29</ele>
        <time>2014-07-01T12:13:59Z</time>
      </trkpt>
      <trkpt lat="42.97583" lon="0.21532">
        <ele>1170.93</ele>
        <time>2014-07-01T12:14:04Z</time>
      </trkpt>
      <trkpt lat="42.97579" lon="0.21537">
        <ele>1169.1</ele>
        <time>2014-07-01T12:14:09Z</time>
      </trkpt>
      <trkpt lat="42.97576" lon="0.21542">
        <ele>1168.36</ele>
        <time>2014-07-01T12:14:13Z</time>
      </trkpt>
      <trkpt lat="42.97572" lon="0.21546">
        <ele>1164.47</ele>
        <time>2014-07-01T12:14:17Z</time>
      </trkpt>
      <trkpt lat="42.97569" lon="0.21551">
        <ele>1161.92</ele>
        <time>2014-07-01T12:14:21Z</time>
      </trkpt>
      <trkpt lat="42.97565" lon="0.21555">
        <ele>1161.33</ele>
        <time>2014-07-01T12:14:25Z</time>
      </trkpt>
      <trkpt lat="42.9756" lon="0.21561">
        <ele>1160.94</ele>
        <time>2014-07-01T12:14:30Z</time>
      </trkpt>
      <trkpt lat="42.97556" lon="0.21566">
        <ele>1159.87</ele>
        <time>2014-07-01T12:14:34Z</time>
      </trkpt>
      <trkpt lat="42.9755" lon="0.21572">
        <ele>1161.35</ele>
        <time>2014-07-01T12:14:41Z</time>
      </trkpt>
      <trkpt lat="42.97548" lon="0.21578">
        <ele>1161.54</ele>
        <time>2014-07-01T12:14:45Z</time>
      </trkpt>
      <trkpt lat="42.97544" lon="0.21583">
        <ele>1161.27</ele>
        <time>2014-07-01T12:14:49Z</time>
      </trkpt>
      <trkpt lat="42.97539" lon="0.21588">
        <ele>1161.06</ele>
        <time>2014-07-01T12:14:53Z</time>
      </trkpt>
      <trkpt lat="42.97535" lon="0.21593">
        <ele>1160.13</ele>
        <time>2014-07-01T12:14:57Z</time>
      </trkpt>
      <trkpt lat="42.97532" lon="0.21598">
        <ele>1159.36</ele>
        <time>2014-07-01T12:15:01Z</time>
      </trkpt>
      <trkpt lat="42.9753" lon="0.21604">
        <ele>1157</ele>
        <time>2014-07-01T12:15:06Z</time>
      </trkpt>
      <trkpt lat="42.97527" lon="0.21609">
        <ele>1154.41</ele>
        <time>2014-07-01T12:15:11Z</time>
      </trkpt>
      <trkpt lat="42.97525" lon="0.21615">
        <ele>1152.15</ele>
        <time>2014-07-01T12:15:16Z</time>
      </trkpt>
      <trkpt lat="42.97523" lon="0.21621">
        <ele>1148.06</ele>
        <time>2014-07-01T12:15:21Z</time>
      </trkpt>
      <trkpt lat="42.97521" lon="0.21627">
        <ele>1146.1</ele>
        <time>2014-07-01T12:15:27Z</time>
      </trkpt>
      <trkpt lat="42.97518" lon="0.21633">
        <ele>1144.28</ele>
        <time>2014-07-01T12:15:33Z</time>
      </trkpt>
      <trkpt lat="42.97514" lon="0.21638">
        <ele>1142.15</ele>
        <time>2014-07-01T12:15:39Z</time>
      </trkpt>
      <trkpt lat="42.97511" lon="0.21643">
        <ele>1142.14</ele>
        <time>2014-07-01T12:15:44Z</time>
      </trkpt>
      <trkpt lat="42.97507" lon="0.21648">
        <ele>1141.25</ele>
        <time>2014-07-01T12:15:49Z</time>
      </trkpt>
      <trkpt lat="42.97505" lon="0.21654">
        <ele>1141.25</ele>
        <time>2014-07-01T12:15:54Z</time>
      </trkpt>
      <trkpt lat="42.97501" lon="0.21659">
        <ele>1138.03</ele>
        <time>2014-07-01T12:15:59Z</time>
      </trkpt>
      <trkpt lat="42.97497" lon="0.21664">
        <ele>1139.87</ele>
        <time>2014-07-01T12:16:04Z</time>
      </trkpt>
      <trkpt lat="42.97494" lon="0.21669">
        <ele>1141.12</ele>
        <time>2014-07-01T12:16:09Z</time>
      </trkpt>
      <trkpt lat="42.9749" lon="0.21674">
        <ele>1142.58</ele>
        <time>2014-07-01T12:16:14Z</time>
      </trkpt>
      <trkpt lat="42.97487" lon="0.21679">
        <ele>1141.59</ele>
        <time>2014-07-01T12:16:18Z</time>
      </trkpt>
      <trkpt lat="42.97484" lon="0.21684">
        <ele>1139.89</ele>
        <time>2014-07-01T12:16:23Z</time>
      </trkpt>
      <trkpt lat="42.97481" lon="0.21691">
        <ele>1141.65</ele>
        <time>2014-07-01T12:16:30Z</time>
      </trkpt>
      <trkpt lat="42.97476" lon="0.21692">
        <ele>1141.79</ele>
        <time>2014-07-01T12:16:37Z</time>
      </trkpt>
      <trkpt lat="42.97473" lon="0.21697">
        <ele>1138.84</ele>
        <time>2014-07-01T12:16:49Z</time>
      </trkpt>
      <trkpt lat="42.97471" lon="0.21702">
        <ele>1133.74</ele>
        <time>2014-07-01T12:17:09Z</time>
      </trkpt>
      <trkpt lat="42.97467" lon="0.21707">
        <ele>1131.55</ele>
        <time>2014-07-01T12:17:18Z</time>
      </trkpt>
      <trkpt lat="42.97463" lon="0.21711">
        <ele>1130.19</ele>
        <time>2014-07-01T12:17:25Z</time>
      </trkpt>
      <trkpt lat="42.97462" lon="0.21717">
        <ele>1130.96</ele>
        <time>2014-07-01T12:17:31Z</time>
      </trkpt>
      <trkpt lat="42.97456" lon="0.21725">
        <ele>1130.48</ele>
        <time>2014-07-01T12:18:10Z</time>
      </trkpt>
      <trkpt lat="42.97452" lon="0.21729">
        <ele>1128.04</ele>
        <time>2014-07-01T12:18:14Z</time>
      </trkpt>
      <trkpt lat="42.97448" lon="0.21733">
        <ele>1127.42</ele>
        <time>2014-07-01T12:18:18Z</time>
      </trkpt>
      <trkpt lat="42.97444" lon="0.21737">
        <ele>1125.92</ele>
        <time>2014-07-01T12:18:22Z</time>
      </trkpt>
      <trkpt lat="42.97437" lon="0.21739">
        <ele>1124.61</ele>
        <time>2014-07-01T12:18:30Z</time>
      </trkpt>
      <trkpt lat="42.97432" lon="0.21739">
        <ele>1120.92</ele>
        <time>2014-07-01T12:19:05Z</time>
      </trkpt>
      <trkpt lat="42.97427" lon="0.21741">
        <ele>1116.87</ele>
        <time>2014-07-01T12:19:11Z</time>
      </trkpt>
      <trkpt lat="42.97425" lon="0.21747">
        <ele>1112.73</ele>
        <time>2014-07-01T12:19:19Z</time>
      </trkpt>
      <trkpt lat="42.97422" lon="0.21752">
        <ele>1111.55</ele>
        <time>2014-07-01T12:19:25Z</time>
      </trkpt>
      <trkpt lat="42.97424" lon="0.21758">
        <ele>1108.07</ele>
        <time>2014-07-01T12:19:35Z</time>
      </trkpt>
      <trkpt lat="42.9742" lon="0.21763">
        <ele>1107.81</ele>
        <time>2014-07-01T12:19:44Z</time>
      </trkpt>
      <trkpt lat="42.97416" lon="0.21766">
        <ele>1107.99</ele>
        <time>2014-07-01T12:19:50Z</time>
      </trkpt>
      <trkpt lat="42.97413" lon="0.21771">
        <ele>1106.58</ele>
        <time>2014-07-01T12:19:55Z</time>
      </trkpt>
      <trkpt lat="42.97409" lon="0.21776">
        <ele>1102.6</ele>
        <time>2014-07-01T12:20:01Z</time>
      </trkpt>
      <trkpt lat="42.97406" lon="0.21782">
        <ele>1100.99</ele>
        <time>2014-07-01T12:20:09Z</time>
      </trkpt>
      <trkpt lat="42.97407" lon="0.21788">
        <ele>1095.35</ele>
        <time>2014-07-01T12:20:14Z</time>
      </trkpt>
      <trkpt lat="42.97402" lon="0.21786">
        <ele>1093.18</ele>
        <time>2014-07-01T12:20:23Z</time>
      </trkpt>
      <trkpt lat="42.97406" lon="0.21781">
        <ele>1091.39</ele>
        <time>2014-07-01T12:20:33Z</time>
      </trkpt>
      <trkpt lat="42.97401" lon="0.21781">
        <ele>1090.7</ele>
        <time>2014-07-01T12:21:11Z</time>
      </trkpt>
      <trkpt lat="42.97396" lon="0.21778">
        <ele>1089.63</ele>
        <time>2014-07-01T12:21:15Z</time>
      </trkpt>
      <trkpt lat="42.97391" lon="0.21774">
        <ele>1088.23</ele>
        <time>2014-07-01T12:21:19Z</time>
      </trkpt>
      <trkpt lat="42.97387" lon="0.21771">
        <ele>1087.62</ele>
        <time>2014-07-01T12:21:24Z</time>
      </trkpt>
      <trkpt lat="42.97384" lon="0.21766">
        <ele>1088.36</ele>
        <time>2014-07-01T12:21:43Z</time>
      </trkpt>
      <trkpt lat="42.97378" lon="0.21763">
        <ele>1089.28</ele>
        <time>2014-07-01T12:21:47Z</time>
      </trkpt>
      <trkpt lat="42.97374" lon="0.21759">
        <ele>1088.87</ele>
        <time>2014-07-01T12:21:50Z</time>
      </trkpt>
      <trkpt lat="42.9737" lon="0.21756">
        <ele>1088.47</ele>
        <time>2014-07-01T12:21:53Z</time>
      </trkpt>
      <trkpt lat="42.97366" lon="0.21753">
        <ele>1088.6</ele>
        <time>2014-07-01T12:21:57Z</time>
      </trkpt>
      <trkpt lat="42.97362" lon="0.2175">
        <ele>1089.48</ele>
        <time>2014-07-01T12:22:01Z</time>
      </trkpt>
      <trkpt lat="42.97358" lon="0.21745">
        <ele>1091.31</ele>
        <time>2014-07-01T12:22:06Z</time>
      </trkpt>
      <trkpt lat="42.97354" lon="0.2174">
        <ele>1092.04</ele>
        <time>2014-07-01T12:22:12Z</time>
      </trkpt>
      <trkpt lat="42.97351" lon="0.21734">
        <ele>1091.34</ele>
        <time>2014-07-01T12:22:17Z</time>
      </trkpt>
      <trkpt lat="42.97347" lon="0.21729">
        <ele>1091.92</ele>
        <time>2014-07-01T12:22:22Z</time>
      </trkpt>
      <trkpt lat="42.97345" lon="0.21724">
        <ele>1091.88</ele>
        <time>2014-07-01T12:22:29Z</time>
      </trkpt>
      <trkpt lat="42.9734" lon="0.21723">
        <ele>1095.31</ele>
        <time>2014-07-01T12:22:41Z</time>
      </trkpt>
      <trkpt lat="42.97336" lon="0.21726">
        <ele>1095.97</ele>
        <time>2014-07-01T12:22:46Z</time>
      </trkpt>
      <trkpt lat="42.97331" lon="0.21729">
        <ele>1095.96</ele>
        <time>2014-07-01T12:22:50Z</time>
      </trkpt>
      <trkpt lat="42.97327" lon="0.21731">
        <ele>1095.5</ele>
        <time>2014-07-01T12:22:54Z</time>
      </trkpt>
      <trkpt lat="42.97322" lon="0.21734">
        <ele>1094.72</ele>
        <time>2014-07-01T12:22:59Z</time>
      </trkpt>
      <trkpt lat="42.97317" lon="0.21736">
        <ele>1095.95</ele>
        <time>2014-07-01T12:23:04Z</time>
      </trkpt>
      <trkpt lat="42.97313" lon="0.21738">
        <ele>1097.43</ele>
        <time>2014-07-01T12:23:10Z</time>
      </trkpt>
      <trkpt lat="42.97309" lon="0.21743">
        <ele>1098.08</ele>
        <time>2014-07-01T12:23:18Z</time>
      </trkpt>
      <trkpt lat="42.97305" lon="0.21747">
        <ele>1099.23</ele>
        <time>2014-07-01T12:23:23Z</time>
      </trkpt>
      <trkpt lat="42.97301" lon="0.21749">
        <ele>1100.45</ele>
        <time>2014-07-01T12:23:28Z</time>
      </trkpt>
      <trkpt lat="42.97296" lon="0.21749">
        <ele>1101.4</ele>
        <time>2014-07-01T12:23:34Z</time>
      </trkpt>
      <trkpt lat="42.97291" lon="0.21747">
        <ele>1100.92</ele>
        <time>2014-07-01T12:23:41Z</time>
      </trkpt>
      <trkpt lat="42.97286" lon="0.21745">
        <ele>1102.23</ele>
        <time>2014-07-01T12:23:48Z</time>
      </trkpt>
      <trkpt lat="42.97285" lon="0.21738">
        <ele>1101.6</ele>
        <time>2014-07-01T12:24:00Z</time>
      </trkpt>
      <trkpt lat="42.97281" lon="0.21737">
        <ele>1102.94</ele>
        <time>2014-07-01T12:24:09Z</time>
      </trkpt>
      <trkpt lat="42.97277" lon="0.21733">
        <ele>1100.4</ele>
        <time>2014-07-01T12:24:15Z</time>
      </trkpt>
      <trkpt lat="42.97272" lon="0.21731">
        <ele>1100.49</ele>
        <time>2014-07-01T12:24:19Z</time>
      </trkpt>
      <trkpt lat="42.97267" lon="0.21731">
        <ele>1101.56</ele>
        <time>2014-07-01T12:24:23Z</time>
      </trkpt>
      <trkpt lat="42.97262" lon="0.21731">
        <ele>1102.8</ele>
        <time>2014-07-01T12:24:26Z</time>
      </trkpt>
      <trkpt lat="42.97257" lon="0.2173">
        <ele>1103.69</ele>
        <time>2014-07-01T12:24:29Z</time>
      </trkpt>
      <trkpt lat="42.97252" lon="0.21731">
        <ele>1103.49</ele>
        <time>2014-07-01T12:24:34Z</time>
      </trkpt>
      <trkpt lat="42.97247" lon="0.21732">
        <ele>1104.17</ele>
        <time>2014-07-01T12:24:38Z</time>
      </trkpt>
      <trkpt lat="42.97241" lon="0.21732">
        <ele>1105.88</ele>
        <time>2014-07-01T12:24:43Z</time>
      </trkpt>
      <trkpt lat="42.97237" lon="0.21729">
        <ele>1106.66</ele>
        <time>2014-07-01T12:24:48Z</time>
      </trkpt>
      <trkpt lat="42.97231" lon="0.21728">
        <ele>1108.09</ele>
        <time>2014-07-01T12:24:53Z</time>
      </trkpt>
      <trkpt lat="42.97227" lon="0.21728">
        <ele>1109.69</ele>
        <time>2014-07-01T12:24:57Z</time>
      </trkpt>
      <trkpt lat="42.97221" lon="0.21728">
        <ele>1109.73</ele>
        <time>2014-07-01T12:25:02Z</time>
      </trkpt>
      <trkpt lat="42.97216" lon="0.21729">
        <ele>1111.42</ele>
        <time>2014-07-01T12:25:07Z</time>
      </trkpt>
      <trkpt lat="42.97211" lon="0.21729">
        <ele>1111.36</ele>
        <time>2014-07-01T12:25:12Z</time>
      </trkpt>
      <trkpt lat="42.97206" lon="0.21725">
        <ele>1112.4</ele>
        <time>2014-07-01T12:25:17Z</time>
      </trkpt>
      <trkpt lat="42.97202" lon="0.21721">
        <ele>1112.69</ele>
        <time>2014-07-01T12:25:23Z</time>
      </trkpt>
      <trkpt lat="42.97198" lon="0.21719">
        <ele>1113.13</ele>
        <time>2014-07-01T12:25:28Z</time>
      </trkpt>
      <trkpt lat="42.97195" lon="0.21714">
        <ele>1109.58</ele>
        <time>2014-07-01T12:25:33Z</time>
      </trkpt>
      <trkpt lat="42.97191" lon="0.21709">
        <ele>1107.79</ele>
        <time>2014-07-01T12:25:38Z</time>
      </trkpt>
      <trkpt lat="42.97187" lon="0.21704">
        <ele>1108.52</ele>
        <time>2014-07-01T12:25:44Z</time>
      </trkpt>
      <trkpt lat="42.97184" lon="0.21701">
        <ele>1109.06</ele>
        <time>2014-07-01T12:25:48Z</time>
      </trkpt>
      <trkpt lat="42.9718" lon="0.21697">
        <ele>1109.36</ele>
        <time>2014-07-01T12:25:52Z</time>
      </trkpt>
      <trkpt lat="42.97178" lon="0.2169">
        <ele>1104.67</ele>
        <time>2014-07-01T12:25:56Z</time>
      </trkpt>
      <trkpt lat="42.97175" lon="0.21686">
        <ele>1102.33</ele>
        <time>2014-07-01T12:26:04Z</time>
      </trkpt>
      <trkpt lat="42.9717" lon="0.21688">
        <ele>1103.56</ele>
        <time>2014-07-01T12:26:19Z</time>
      </trkpt>
      <trkpt lat="42.97166" lon="0.21693">
        <ele>1104.17</ele>
        <time>2014-07-01T12:26:23Z</time>
      </trkpt>
      <trkpt lat="42.97163" lon="0.21699">
        <ele>1105.24</ele>
        <time>2014-07-01T12:26:27Z</time>
      </trkpt>
      <trkpt lat="42.9716" lon="0.21705">
        <ele>1105.45</ele>
        <time>2014-07-01T12:26:32Z</time>
      </trkpt>
      <trkpt lat="42.97157" lon="0.2171">
        <ele>1105.53</ele>
        <time>2014-07-01T12:26:36Z</time>
      </trkpt>
      <trkpt lat="42.97154" lon="0.21715">
        <ele>1105.47</ele>
        <time>2014-07-01T12:26:40Z</time>
      </trkpt>
      <trkpt lat="42.97151" lon="0.21721">
        <ele>1104.48</ele>
        <time>2014-07-01T12:26:44Z</time>
      </trkpt>
      <trkpt lat="42.97149" lon="0.21727">
        <ele>1103.68</ele>
        <time>2014-07-01T12:26:49Z</time>
      </trkpt>
      <trkpt lat="42.97147" lon="0.21733">
        <ele>1104.41</ele>
        <time>2014-07-01T12:26:56Z</time>
      </trkpt>
      <trkpt lat="42.97146" lon="0.21739">
        <ele>1106.32</ele>
        <time>2014-07-01T12:27:01Z</time>
      </trkpt>
      <trkpt lat="42.97145" lon="0.21746">
        <ele>1106.12</ele>
        <time>2014-07-01T12:27:06Z</time>
      </trkpt>
      <trkpt lat="42.97141" lon="0.21752">
        <ele>1106.21</ele>
        <time>2014-07-01T12:27:11Z</time>
      </trkpt>
      <trkpt lat="42.97138" lon="0.21757">
        <ele>1103.6</ele>
        <time>2014-07-01T12:27:16Z</time>
      </trkpt>
      <trkpt lat="42.97136" lon="0.21764">
        <ele>1104.12</ele>
        <time>2014-07-01T12:27:21Z</time>
      </trkpt>
      <trkpt lat="42.97133" lon="0.21769">
        <ele>1104.11</ele>
        <time>2014-07-01T12:27:25Z</time>
      </trkpt>
      <trkpt lat="42.97129" lon="0.21773">
        <ele>1104.6</ele>
        <time>2014-07-01T12:27:29Z</time>
      </trkpt>
      <trkpt lat="42.97125" lon="0.21778">
        <ele>1104.56</ele>
        <time>2014-07-01T12:27:34Z</time>
      </trkpt>
      <trkpt lat="42.97122" lon="0.21783">
        <ele>1103.82</ele>
        <time>2014-07-01T12:27:46Z</time>
      </trkpt>
      <trkpt lat="42.9712" lon="0.21788">
        <ele>1104.34</ele>
        <time>2014-07-01T12:27:55Z</time>
      </trkpt>
      <trkpt lat="42.97115" lon="0.21793">
        <ele>1102.84</ele>
        <time>2014-07-01T12:27:59Z</time>
      </trkpt>
      <trkpt lat="42.97112" lon="0.21798">
        <ele>1102.25</ele>
        <time>2014-07-01T12:28:03Z</time>
      </trkpt>
      <trkpt lat="42.97108" lon="0.21802">
        <ele>1101.18</ele>
        <time>2014-07-01T12:28:08Z</time>
      </trkpt>
      <trkpt lat="42.97104" lon="0.21805">
        <ele>1101.86</ele>
        <time>2014-07-01T12:28:13Z</time>
      </trkpt>
      <trkpt lat="42.97102" lon="0.21811">
        <ele>1099.9</ele>
        <time>2014-07-01T12:28:17Z</time>
      </trkpt>
      <trkpt lat="42.97099" lon="0.21817">
        <ele>1099.76</ele>
        <time>2014-07-01T12:28:23Z</time>
      </trkpt>
      <trkpt lat="42.97095" lon="0.21822">
        <ele>1097.21</ele>
        <time>2014-07-01T12:28:27Z</time>
      </trkpt>
      <trkpt lat="42.97093" lon="0.21828">
        <ele>1097.1</ele>
        <time>2014-07-01T12:28:31Z</time>
      </trkpt>
      <trkpt lat="42.97089" lon="0.21833">
        <ele>1096.69</ele>
        <time>2014-07-01T12:28:47Z</time>
      </trkpt>
      <trkpt lat="42.97085" lon="0.21837">
        <ele>1096.26</ele>
        <time>2014-07-01T12:28:50Z</time>
      </trkpt>
      <trkpt lat="42.97081" lon="0.21841">
        <ele>1095.7</ele>
        <time>2014-07-01T12:28:53Z</time>
      </trkpt>
      <trkpt lat="42.97077" lon="0.21844">
        <ele>1095.41</ele>
        <time>2014-07-01T12:28:56Z</time>
      </trkpt>
      <trkpt lat="42.97073" lon="0.21848">
        <ele>1094.46</ele>
        <time>2014-07-01T12:29:00Z</time>
      </trkpt>
      <trkpt lat="42.97069" lon="0.21852">
        <ele>1094.03</ele>
        <time>2014-07-01T12:29:05Z</time>
      </trkpt>
      <trkpt lat="42.97065" lon="0.21857">
        <ele>1094.44</ele>
        <time>2014-07-01T12:29:10Z</time>
      </trkpt>
      <trkpt lat="42.97062" lon="0.21861">
        <ele>1093.44</ele>
        <time>2014-07-01T12:29:14Z</time>
      </trkpt>
      <trkpt lat="42.97057" lon="0.21866">
        <ele>1092.91</ele>
        <time>2014-07-01T12:29:19Z</time>
      </trkpt>
      <trkpt lat="42.97053" lon="0.2187">
        <ele>1093.36</ele>
        <time>2014-07-01T12:29:24Z</time>
      </trkpt>
      <trkpt lat="42.9705" lon="0.21874">
        <ele>1089.78</ele>
        <time>2014-07-01T12:29:39Z</time>
      </trkpt>
      <trkpt lat="42.97048" lon="0.21881">
        <ele>1088.47</ele>
        <time>2014-07-01T12:29:44Z</time>
      </trkpt>
      <trkpt lat="42.97045" lon="0.21887">
        <ele>1088.7</ele>
        <time>2014-07-01T12:29:49Z</time>
      </trkpt>
      <trkpt lat="42.97044" lon="0.21894">
        <ele>1089.12</ele>
        <time>2014-07-01T12:29:55Z</time>
      </trkpt>
      <trkpt lat="42.97043" lon="0.219">
        <ele>1087.91</ele>
        <time>2014-07-01T12:30:01Z</time>
      </trkpt>
      <trkpt lat="42.97041" lon="0.21907">
        <ele>1087.49</ele>
        <time>2014-07-01T12:30:05Z</time>
      </trkpt>
      <trkpt lat="42.97041" lon="0.21913">
        <ele>1087.31</ele>
        <time>2014-07-01T12:30:09Z</time>
      </trkpt>
      <trkpt lat="42.97041" lon="0.2192">
        <ele>1086.14</ele>
        <time>2014-07-01T12:30:17Z</time>
      </trkpt>
      <trkpt lat="42.97044" lon="0.21925">
        <ele>1085.15</ele>
        <time>2014-07-01T12:30:47Z</time>
      </trkpt>
      <trkpt lat="42.97048" lon="0.21929">
        <ele>1086.61</ele>
        <time>2014-07-01T12:30:52Z</time>
      </trkpt>
      <trkpt lat="42.97053" lon="0.21932">
        <ele>1084.2</ele>
        <time>2014-07-01T12:30:58Z</time>
      </trkpt>
      <trkpt lat="42.97058" lon="0.21934">
        <ele>1082.95</ele>
        <time>2014-07-01T12:31:05Z</time>
      </trkpt>
      <trkpt lat="42.97063" lon="0.21935">
        <ele>1077.59</ele>
        <time>2014-07-01T12:31:11Z</time>
      </trkpt>
      <trkpt lat="42.97068" lon="0.21937">
        <ele>1075.48</ele>
        <time>2014-07-01T12:31:17Z</time>
      </trkpt>
      <trkpt lat="42.97072" lon="0.21939">
        <ele>1076.03</ele>
        <time>2014-07-01T12:31:22Z</time>
      </trkpt>
      <trkpt lat="42.97077" lon="0.2194">
        <ele>1074.16</ele>
        <time>2014-07-01T12:31:27Z</time>
      </trkpt>
      <trkpt lat="42.97082" lon="0.21941">
        <ele>1071.09</ele>
        <time>2014-07-01T12:31:32Z</time>
      </trkpt>
      <trkpt lat="42.97088" lon="0.21941">
        <ele>1070.87</ele>
        <time>2014-07-01T12:31:37Z</time>
      </trkpt>
      <trkpt lat="42.97092" lon="0.2194">
        <ele>1072.4</ele>
        <time>2014-07-01T12:31:42Z</time>
      </trkpt>
      <trkpt lat="42.97097" lon="0.21939">
        <ele>1070.33</ele>
        <time>2014-07-01T12:32:01Z</time>
      </trkpt>
      <trkpt lat="42.97101" lon="0.21935">
        <ele>1068.2</ele>
        <time>2014-07-01T12:32:05Z</time>
      </trkpt>
      <trkpt lat="42.97106" lon="0.21936">
        <ele>1069.14</ele>
        <time>2014-07-01T12:32:09Z</time>
      </trkpt>
      <trkpt lat="42.97111" lon="0.21935">
        <ele>1067.87</ele>
        <time>2014-07-01T12:32:12Z</time>
      </trkpt>
      <trkpt lat="42.97116" lon="0.21933">
        <ele>1065.28</ele>
        <time>2014-07-01T12:32:17Z</time>
      </trkpt>
      <trkpt lat="42.97122" lon="0.21933">
        <ele>1064.93</ele>
        <time>2014-07-01T12:32:21Z</time>
      </trkpt>
      <trkpt lat="42.97127" lon="0.2193">
        <ele>1064.92</ele>
        <time>2014-07-01T12:32:25Z</time>
      </trkpt>
      <trkpt lat="42.97132" lon="0.21929">
        <ele>1062.23</ele>
        <time>2014-07-01T12:32:30Z</time>
      </trkpt>
      <trkpt lat="42.97136" lon="0.21929">
        <ele>1062.13</ele>
        <time>2014-07-01T12:32:35Z</time>
      </trkpt>
      <trkpt lat="42.97141" lon="0.21926">
        <ele>1062.68</ele>
        <time>2014-07-01T12:32:41Z</time>
      </trkpt>
      <trkpt lat="42.97145" lon="0.21922">
        <ele>1061.99</ele>
        <time>2014-07-01T12:32:48Z</time>
      </trkpt>
      <trkpt lat="42.97149" lon="0.21921">
        <ele>1060.81</ele>
        <time>2014-07-01T12:33:03Z</time>
      </trkpt>
      <trkpt lat="42.97154" lon="0.21919">
        <ele>1060.92</ele>
        <time>2014-07-01T12:33:07Z</time>
      </trkpt>
      <trkpt lat="42.97159" lon="0.21917">
        <ele>1060.44</ele>
        <time>2014-07-01T12:33:12Z</time>
      </trkpt>
      <trkpt lat="42.97164" lon="0.21917">
        <ele>1059.02</ele>
        <time>2014-07-01T12:33:16Z</time>
      </trkpt>
      <trkpt lat="42.97168" lon="0.21915">
        <ele>1058.27</ele>
        <time>2014-07-01T12:33:21Z</time>
      </trkpt>
      <trkpt lat="42.97173" lon="0.21915">
        <ele>1056.41</ele>
        <time>2014-07-01T12:33:43Z</time>
      </trkpt>
      <trkpt lat="42.97178" lon="0.21913">
        <ele>1056.1</ele>
        <time>2014-07-01T12:33:50Z</time>
      </trkpt>
      <trkpt lat="42.97183" lon="0.21914">
        <ele>1052.34</ele>
        <time>2014-07-01T12:33:56Z</time>
      </trkpt>
      <trkpt lat="42.97188" lon="0.21911">
        <ele>1049.62</ele>
        <time>2014-07-01T12:34:00Z</time>
      </trkpt>
      <trkpt lat="42.97192" lon="0.21908">
        <ele>1049.74</ele>
        <time>2014-07-01T12:34:04Z</time>
      </trkpt>
      <trkpt lat="42.97197" lon="0.21905">
        <ele>1050.63</ele>
        <time>2014-07-01T12:34:08Z</time>
      </trkpt>
      <trkpt lat="42.97201" lon="0.21902">
        <ele>1052.56</ele>
        <time>2014-07-01T12:34:13Z</time>
      </trkpt>
      <trkpt lat="42.97206" lon="0.21902">
        <ele>1053.79</ele>
        <time>2014-07-01T12:34:22Z</time>
      </trkpt>
      <trkpt lat="42.97211" lon="0.219">
        <ele>1055.58</ele>
        <time>2014-07-01T12:34:25Z</time>
      </trkpt>
      <trkpt lat="42.97216" lon="0.21899">
        <ele>1054.48</ele>
        <time>2014-07-01T12:34:28Z</time>
      </trkpt>
      <trkpt lat="42.9722" lon="0.21897">
        <ele>1053.98</ele>
        <time>2014-07-01T12:34:31Z</time>
      </trkpt>
      <trkpt lat="42.97226" lon="0.21898">
        <ele>1054.36</ele>
        <time>2014-07-01T12:34:35Z</time>
      </trkpt>
      <trkpt lat="42.97231" lon="0.21898">
        <ele>1052.96</ele>
        <time>2014-07-01T12:34:38Z</time>
      </trkpt>
      <trkpt lat="42.97237" lon="0.21897">
        <ele>1052.3</ele>
        <time>2014-07-01T12:34:41Z</time>
      </trkpt>
      <trkpt lat="42.97242" lon="0.21898">
        <ele>1049.64</ele>
        <time>2014-07-01T12:34:45Z</time>
      </trkpt>
      <trkpt lat="42.97247" lon="0.219">
        <ele>1050.35</ele>
        <time>2014-07-01T12:34:49Z</time>
      </trkpt>
      <trkpt lat="42.97251" lon="0.21903">
        <ele>1050.25</ele>
        <time>2014-07-01T12:34:54Z</time>
      </trkpt>
      <trkpt lat="42.97256" lon="0.21906">
        <ele>1048.9</ele>
        <time>2014-07-01T12:34:59Z</time>
      </trkpt>
      <trkpt lat="42.9726" lon="0.21909">
        <ele>1046.56</ele>
        <time>2014-07-01T12:35:04Z</time>
      </trkpt>
      <trkpt lat="42.97264" lon="0.21912">
        <ele>1043.63</ele>
        <time>2014-07-01T12:35:11Z</time>
      </trkpt>
      <trkpt lat="42.97269" lon="0.21914">
        <ele>1041.72</ele>
        <time>2014-07-01T12:35:15Z</time>
      </trkpt>
      <trkpt lat="42.97274" lon="0.21916">
        <ele>1041.37</ele>
        <time>2014-07-01T12:35:20Z</time>
      </trkpt>
      <trkpt lat="42.97278" lon="0.21919">
        <ele>1042.16</ele>
        <time>2014-07-01T12:35:25Z</time>
      </trkpt>
      <trkpt lat="42.97282" lon="0.21922">
        <ele>1041.49</ele>
        <time>2014-07-01T12:35:29Z</time>
      </trkpt>
      <trkpt lat="42.97287" lon="0.21925">
        <ele>1039.91</ele>
        <time>2014-07-01T12:35:33Z</time>
      </trkpt>
      <trkpt lat="42.97291" lon="0.21928">
        <ele>1040.13</ele>
        <time>2014-07-01T12:35:37Z</time>
      </trkpt>
      <trkpt lat="42.97295" lon="0.21933">
        <ele>1040.23</ele>
        <time>2014-07-01T12:35:41Z</time>
      </trkpt>
      <trkpt lat="42.97297" lon="0.21938">
        <ele>1040.69</ele>
        <time>2014-07-01T12:35:45Z</time>
      </trkpt>
      <trkpt lat="42.973" lon="0.21944">
        <ele>1037.25</ele>
        <time>2014-07-01T12:35:51Z</time>
      </trkpt>
      <trkpt lat="42.97304" lon="0.21948">
        <ele>1035.87</ele>
        <time>2014-07-01T12:35:56Z</time>
      </trkpt>
      <trkpt lat="42.97306" lon="0.21953">
        <ele>1037.64</ele>
        <time>2014-07-01T12:36:00Z</time>
      </trkpt>
      <trkpt lat="42.97309" lon="0.2196">
        <ele>1039.17</ele>
        <time>2014-07-01T12:36:04Z</time>
      </trkpt>
      <trkpt lat="42.97311" lon="0.21966">
        <ele>1039.99</ele>
        <time>2014-07-01T12:36:08Z</time>
      </trkpt>
      <trkpt lat="42.97314" lon="0.2197">
        <ele>1040.53</ele>
        <time>2014-07-01T12:36:12Z</time>
      </trkpt>
      <trkpt lat="42.97319" lon="0.21974">
        <ele>1041.27</ele>
        <time>2014-07-01T12:36:17Z</time>
      </trkpt>
      <trkpt lat="42.97321" lon="0.21979">
        <ele>1043.69</ele>
        <time>2014-07-01T12:36:21Z</time>
      </trkpt>
      <trkpt lat="42.97324" lon="0.21985">
        <ele>1044.7</ele>
        <time>2014-07-01T12:36:25Z</time>
      </trkpt>
      <trkpt lat="42.97329" lon="0.21988">
        <ele>1045.87</ele>
        <time>2014-07-01T12:36:30Z</time>
      </trkpt>
      <trkpt lat="42.97332" lon="0.21992">
        <ele>1046.28</ele>
        <time>2014-07-01T12:36:34Z</time>
      </trkpt>
      <trkpt lat="42.97336" lon="0.21999">
        <ele>1048.02</ele>
        <time>2014-07-01T12:36:39Z</time>
      </trkpt>
      <trkpt lat="42.9734" lon="0.22003">
        <ele>1047.59</ele>
        <time>2014-07-01T12:36:44Z</time>
      </trkpt>
      <trkpt lat="42.97342" lon="0.22009">
        <ele>1046.97</ele>
        <time>2014-07-01T12:36:53Z</time>
      </trkpt>
      <trkpt lat="42.97344" lon="0.22015">
        <ele>1046.13</ele>
        <time>2014-07-01T12:37:00Z</time>
      </trkpt>
      <trkpt lat="42.97347" lon="0.22018">
        <ele>1044.87</ele>
        <time>2014-07-01T12:37:04Z</time>
      </trkpt>
      <trkpt lat="42.97352" lon="0.22023">
        <ele>1044.33</ele>
        <time>2014-07-01T12:37:09Z</time>
      </trkpt>
      <trkpt lat="42.97355" lon="0.22028">
        <ele>1045.55</ele>
        <time>2014-07-01T12:37:14Z</time>
      </trkpt>
      <trkpt lat="42.97359" lon="0.2203">
        <ele>1046.16</ele>
        <time>2014-07-01T12:37:20Z</time>
      </trkpt>
      <trkpt lat="42.9736" lon="0.22037">
        <ele>1046.87</ele>
        <time>2014-07-01T12:37:26Z</time>
      </trkpt>
      <trkpt lat="42.97365" lon="0.22042">
        <ele>1046.17</ele>
        <time>2014-07-01T12:37:32Z</time>
      </trkpt>
      <trkpt lat="42.9737" lon="0.22045">
        <ele>1043.14</ele>
        <time>2014-07-01T12:37:49Z</time>
      </trkpt>
      <trkpt lat="42.97374" lon="0.22049">
        <ele>1040.26</ele>
        <time>2014-07-01T12:37:54Z</time>
      </trkpt>
      <trkpt lat="42.97378" lon="0.22054">
        <ele>1039.16</ele>
        <time>2014-07-01T12:37:59Z</time>
      </trkpt>
      <trkpt lat="42.97382" lon="0.22057">
        <ele>1038.44</ele>
        <time>2014-07-01T12:38:05Z</time>
      </trkpt>
      <trkpt lat="42.97386" lon="0.22061">
        <ele>1036.98</ele>
        <time>2014-07-01T12:38:10Z</time>
      </trkpt>
      <trkpt lat="42.97389" lon="0.22066">
        <ele>1036.73</ele>
        <time>2014-07-01T12:38:15Z</time>
      </trkpt>
      <trkpt lat="42.97392" lon="0.22072">
        <ele>1036.14</ele>
        <time>2014-07-01T12:38:21Z</time>
      </trkpt>
      <trkpt lat="42.97396" lon="0.22077">
        <ele>1036.22</ele>
        <time>2014-07-01T12:38:26Z</time>
      </trkpt>
      <trkpt lat="42.974" lon="0.2208">
        <ele>1034.98</ele>
        <time>2014-07-01T12:38:31Z</time>
      </trkpt>
      <trkpt lat="42.97403" lon="0.22085">
        <ele>1035.99</ele>
        <time>2014-07-01T12:38:35Z</time>
      </trkpt>
      <trkpt lat="42.97406" lon="0.2209">
        <ele>1035.71</ele>
        <time>2014-07-01T12:38:39Z</time>
      </trkpt>
      <trkpt lat="42.9741" lon="0.22093">
        <ele>1037.45</ele>
        <time>2014-07-01T12:38:43Z</time>
      </trkpt>
      <trkpt lat="42.97413" lon="0.22097">
        <ele>1038.83</ele>
        <time>2014-07-01T12:38:47Z</time>
      </trkpt>
      <trkpt lat="42.97417" lon="0.22102">
        <ele>1040.58</ele>
        <time>2014-07-01T12:38:52Z</time>
      </trkpt>
      <trkpt lat="42.97422" lon="0.22105">
        <ele>1041.31</ele>
        <time>2014-07-01T12:38:57Z</time>
      </trkpt>
      <trkpt lat="42.97426" lon="0.22108">
        <ele>1039.98</ele>
        <time>2014-07-01T12:39:02Z</time>
      </trkpt>
      <trkpt lat="42.97431" lon="0.22111">
        <ele>1041.11</ele>
        <time>2014-07-01T12:39:07Z</time>
      </trkpt>
      <trkpt lat="42.97436" lon="0.22112">
        <ele>1042.82</ele>
        <time>2014-07-01T12:39:12Z</time>
      </trkpt>
      <trkpt lat="42.9744" lon="0.22115">
        <ele>1041.97</ele>
        <time>2014-07-01T12:39:16Z</time>
      </trkpt>
      <trkpt lat="42.97443" lon="0.2212">
        <ele>1037.66</ele>
        <time>2014-07-01T12:39:20Z</time>
      </trkpt>
      <trkpt lat="42.97448" lon="0.22123">
        <ele>1036.66</ele>
        <time>2014-07-01T12:39:24Z</time>
      </trkpt>
      <trkpt lat="42.97451" lon="0.22127">
        <ele>1036.26</ele>
        <time>2014-07-01T12:39:28Z</time>
      </trkpt>
      <trkpt lat="42.97454" lon="0.22132">
        <ele>1036.02</ele>
        <time>2014-07-01T12:39:32Z</time>
      </trkpt>
      <trkpt lat="42.97457" lon="0.22137">
        <ele>1036.35</ele>
        <time>2014-07-01T12:39:36Z</time>
      </trkpt>
      <trkpt lat="42.97461" lon="0.22142">
        <ele>1036.4</ele>
        <time>2014-07-01T12:39:40Z</time>
      </trkpt>
      <trkpt lat="42.97466" lon="0.22147">
        <ele>1036.57</ele>
        <time>2014-07-01T12:39:44Z</time>
      </trkpt>
      <trkpt lat="42.97469" lon="0.22152">
        <ele>1037.48</ele>
        <time>2014-07-01T12:39:48Z</time>
      </trkpt>
      <trkpt lat="42.97473" lon="0.22155">
        <ele>1036.93</ele>
        <time>2014-07-01T12:39:52Z</time>
      </trkpt>
      <trkpt lat="42.97478" lon="0.22159">
        <ele>1037.44</ele>
        <time>2014-07-01T12:39:56Z</time>
      </trkpt>
      <trkpt lat="42.97481" lon="0.22163">
        <ele>1037.37</ele>
        <time>2014-07-01T12:40:00Z</time>
      </trkpt>
      <trkpt lat="42.97485" lon="0.22167">
        <ele>1037.08</ele>
        <time>2014-07-01T12:40:04Z</time>
      </trkpt>
      <trkpt lat="42.97489" lon="0.2217">
        <ele>1037.76</ele>
        <time>2014-07-01T12:40:08Z</time>
      </trkpt>
      <trkpt lat="42.97493" lon="0.22173">
        <ele>1038.84</ele>
        <time>2014-07-01T12:40:12Z</time>
      </trkpt>
      <trkpt lat="42.97497" lon="0.22176">
        <ele>1039.29</ele>
        <time>2014-07-01T12:40:16Z</time>
      </trkpt>
      <trkpt lat="42.97501" lon="0.2218">
        <ele>1038.11</ele>
        <time>2014-07-01T12:40:20Z</time>
      </trkpt>
      <trkpt lat="42.97505" lon="0.22184">
        <ele>1038.33</ele>
        <time>2014-07-01T12:40:25Z</time>
      </trkpt>
      <trkpt lat="42.97509" lon="0.22189">
        <ele>1036.85</ele>
        <time>2014-07-01T12:40:30Z</time>
      </trkpt>
      <trkpt lat="42.97513" lon="0.22192">
        <ele>1037.4</ele>
        <time>2014-07-01T12:40:34Z</time>
      </trkpt>
      <trkpt lat="42.97517" lon="0.22196">
        <ele>1035.61</ele>
        <time>2014-07-01T12:40:38Z</time>
      </trkpt>
      <trkpt lat="42.9752" lon="0.22201">
        <ele>1033.35</ele>
        <time>2014-07-01T12:40:42Z</time>
      </trkpt>
      <trkpt lat="42.97524" lon="0.22205">
        <ele>1032.25</ele>
        <time>2014-07-01T12:40:46Z</time>
      </trkpt>
      <trkpt lat="42.97528" lon="0.22207">
        <ele>1031.82</ele>
        <time>2014-07-01T12:40:50Z</time>
      </trkpt>
      <trkpt lat="42.97532" lon="0.22211">
        <ele>1029.69</ele>
        <time>2014-07-01T12:40:55Z</time>
      </trkpt>
      <trkpt lat="42.97537" lon="0.22214">
        <ele>1029.82</ele>
        <time>2014-07-01T12:41:00Z</time>
      </trkpt>
      <trkpt lat="42.97541" lon="0.22218">
        <ele>1029.52</ele>
        <time>2014-07-01T12:41:04Z</time>
      </trkpt>
      <trkpt lat="42.97546" lon="0.22222">
        <ele>1029.21</ele>
        <time>2014-07-01T12:41:08Z</time>
      </trkpt>
      <trkpt lat="42.9755" lon="0.22227">
        <ele>1030.98</ele>
        <time>2014-07-01T12:41:12Z</time>
      </trkpt>
      <trkpt lat="42.97554" lon="0.2223">
        <ele>1031.53</ele>
        <time>2014-07-01T12:41:16Z</time>
      </trkpt>
      <trkpt lat="42.97558" lon="0.22234">
        <ele>1032.08</ele>
        <time>2014-07-01T12:41:20Z</time>
      </trkpt>
      <trkpt lat="42.97563" lon="0.22236">
        <ele>1157.7</ele>
        <time>2014-07-01T12:41:24Z</time>
      </trkpt>
      <trkpt lat="42.97567" lon="0.2224">
        <ele>1070.01</ele>
        <time>2014-07-01T12:41:28Z</time>
      </trkpt>
      <trkpt lat="42.97572" lon="0.22242">
        <ele>1046.2</ele>
        <time>2014-07-01T12:41:32Z</time>
      </trkpt>
      <trkpt lat="42.97576" lon="0.22245">
        <ele>1038.24</ele>
        <time>2014-07-01T12:41:36Z</time>
      </trkpt>
      <trkpt lat="42.9758" lon="0.22248">
        <ele>1034.83</ele>
        <time>2014-07-01T12:41:41Z</time>
      </trkpt>
      <trkpt lat="42.97585" lon="0.22251">
        <ele>1031.99</ele>
        <time>2014-07-01T12:41:47Z</time>
      </trkpt>
      <trkpt lat="42.9759" lon="0.22255">
        <ele>1032.96</ele>
        <time>2014-07-01T12:41:51Z</time>
      </trkpt>
      <trkpt lat="42.97593" lon="0.22259">
        <ele>1032.16</ele>
        <time>2014-07-01T12:41:55Z</time>
      </trkpt>
      <trkpt lat="42.97596" lon="0.22264">
        <ele>1032.84</ele>
        <time>2014-07-01T12:41:59Z</time>
      </trkpt>
      <trkpt lat="42.976" lon="0.22269">
        <ele>1030.31</ele>
        <time>2014-07-01T12:42:04Z</time>
      </trkpt>
      <trkpt lat="42.97604" lon="0.22272">
        <ele>1030.05</ele>
        <time>2014-07-01T12:42:09Z</time>
      </trkpt>
      <trkpt lat="42.97607" lon="0.22278">
        <ele>1029.93</ele>
        <time>2014-07-01T12:42:14Z</time>
      </trkpt>
      <trkpt lat="42.97611" lon="0.22282">
        <ele>1030.58</ele>
        <time>2014-07-01T12:42:19Z</time>
      </trkpt>
      <trkpt lat="42.97614" lon="0.22288">
        <ele>1029.76</ele>
        <time>2014-07-01T12:42:24Z</time>
      </trkpt>
      <trkpt lat="42.97618" lon="0.22294">
        <ele>1030.34</ele>
        <time>2014-07-01T12:42:29Z</time>
      </trkpt>
      <trkpt lat="42.97621" lon="0.22299">
        <ele>1032.21</ele>
        <time>2014-07-01T12:42:33Z</time>
      </trkpt>
      <trkpt lat="42.97624" lon="0.22304">
        <ele>1031.97</ele>
        <time>2014-07-01T12:42:37Z</time>
      </trkpt>
      <trkpt lat="42.97627" lon="0.22311">
        <ele>1032.74</ele>
        <time>2014-07-01T12:42:41Z</time>
      </trkpt>
      <trkpt lat="42.97631" lon="0.22317">
        <ele>1031.63</ele>
        <time>2014-07-01T12:42:45Z</time>
      </trkpt>
      <trkpt lat="42.97634" lon="0.22322">
        <ele>1030.23</ele>
        <time>2014-07-01T12:42:49Z</time>
      </trkpt>
      <trkpt lat="42.97638" lon="0.22326">
        <ele>1029.85</ele>
        <time>2014-07-01T12:42:53Z</time>
      </trkpt>
      <trkpt lat="42.97643" lon="0.22331">
        <ele>1028.63</ele>
        <time>2014-07-01T12:42:57Z</time>
      </trkpt>
      <trkpt lat="42.97647" lon="0.22335">
        <ele>1025.29</ele>
        <time>2014-07-01T12:43:01Z</time>
      </trkpt>
      <trkpt lat="42.9765" lon="0.2234">
        <ele>1022.07</ele>
        <time>2014-07-01T12:43:07Z</time>
      </trkpt>
      <trkpt lat="42.97653" lon="0.22344">
        <ele>1024.21</ele>
        <time>2014-07-01T12:43:11Z</time>
      </trkpt>
      <trkpt lat="42.97658" lon="0.22348">
        <ele>1026.08</ele>
        <time>2014-07-01T12:43:15Z</time>
      </trkpt>
      <trkpt lat="42.97661" lon="0.22351">
        <ele>1025.4</ele>
        <time>2014-07-01T12:43:18Z</time>
      </trkpt>
      <trkpt lat="42.97666" lon="0.22356">
        <ele>1023.98</ele>
        <time>2014-07-01T12:43:22Z</time>
      </trkpt>
      <trkpt lat="42.97669" lon="0.2236">
        <ele>1023</ele>
        <time>2014-07-01T12:43:26Z</time>
      </trkpt>
      <trkpt lat="42.97674" lon="0.22364">
        <ele>1021.29</ele>
        <time>2014-07-01T12:43:30Z</time>
      </trkpt>
      <trkpt lat="42.97678" lon="0.22368">
        <ele>1022.56</ele>
        <time>2014-07-01T12:43:34Z</time>
      </trkpt>
      <trkpt lat="42.97681" lon="0.22374">
        <ele>1020.94</ele>
        <time>2014-07-01T12:43:38Z</time>
      </trkpt>
      <trkpt lat="42.97684" lon="0.22379">
        <ele>1019.42</ele>
        <time>2014-07-01T12:43:42Z</time>
      </trkpt>
      <trkpt lat="42.97687" lon="0.22385">
        <ele>1020.11</ele>
        <time>2014-07-01T12:43:45Z</time>
      </trkpt>
      <trkpt lat="42.97689" lon="0.22391">
        <ele>1021.35</ele>
        <time>2014-07-01T12:43:48Z</time>
      </trkpt>
      <trkpt lat="42.97693" lon="0.22397">
        <ele>1022.87</ele>
        <time>2014-07-01T12:43:52Z</time>
      </trkpt>
      <trkpt lat="42.97698" lon="0.224">
        <ele>1024.46</ele>
        <time>2014-07-01T12:43:57Z</time>
      </trkpt>
      <trkpt lat="42.97703" lon="0.224">
        <ele>1021.55</ele>
        <time>2014-07-01T12:44:01Z</time>
      </trkpt>
      <trkpt lat="42.97707" lon="0.22397">
        <ele>1018.27</ele>
        <time>2014-07-01T12:44:09Z</time>
      </trkpt>
      <trkpt lat="42.9771" lon="0.22403">
        <ele>1016.59</ele>
        <time>2014-07-01T12:44:17Z</time>
      </trkpt>
      <trkpt lat="42.97712" lon="0.22408">
        <ele>1014.83</ele>
        <time>2014-07-01T12:44:21Z</time>
      </trkpt>
      <trkpt lat="42.97714" lon="0.22414">
        <ele>1013.85</ele>
        <time>2014-07-01T12:44:25Z</time>
      </trkpt>
      <trkpt lat="42.97719" lon="0.22418">
        <ele>1013.93</ele>
        <time>2014-07-01T12:44:31Z</time>
      </trkpt>
      <trkpt lat="42.97723" lon="0.22422">
        <ele>1011.79</ele>
        <time>2014-07-01T12:44:37Z</time>
      </trkpt>
      <trkpt lat="42.97728" lon="0.22426">
        <ele>1001.82</ele>
        <time>2014-07-01T12:44:46Z</time>
      </trkpt>
      <trkpt lat="42.97731" lon="0.22431">
        <ele>1000.07</ele>
        <time>2014-07-01T12:44:51Z</time>
      </trkpt>
      <trkpt lat="42.97736" lon="0.22433">
        <ele>1001.59</ele>
        <time>2014-07-01T12:44:55Z</time>
      </trkpt>
      <trkpt lat="42.97741" lon="0.22436">
        <ele>998.46</ele>
        <time>2014-07-01T12:45:03Z</time>
      </trkpt>
      <trkpt lat="42.97745" lon="0.2244">
        <ele>997.91</ele>
        <time>2014-07-01T12:45:08Z</time>
      </trkpt>
      <trkpt lat="42.9775" lon="0.22442">
        <ele>995.51</ele>
        <time>2014-07-01T12:45:14Z</time>
      </trkpt>
      <trkpt lat="42.97755" lon="0.22443">
        <ele>993.95</ele>
        <time>2014-07-01T12:45:19Z</time>
      </trkpt>
      <trkpt lat="42.9776" lon="0.22444">
        <ele>994.1</ele>
        <time>2014-07-01T12:45:24Z</time>
      </trkpt>
      <trkpt lat="42.97764" lon="0.22445">
        <ele>992.87</ele>
        <time>2014-07-01T12:45:30Z</time>
      </trkpt>
      <trkpt lat="42.9777" lon="0.22445">
        <ele>987.64</ele>
        <time>2014-07-01T12:45:37Z</time>
      </trkpt>
      <trkpt lat="42.97774" lon="0.22446">
        <ele>984.46</ele>
        <time>2014-07-01T12:45:47Z</time>
      </trkpt>
      <trkpt lat="42.97779" lon="0.22449">
        <ele>984.24</ele>
        <time>2014-07-01T12:45:53Z</time>
      </trkpt>
      <trkpt lat="42.97783" lon="0.22451">
        <ele>983.23</ele>
        <time>2014-07-01T12:46:00Z</time>
      </trkpt>
      <trkpt lat="42.97789" lon="0.22452">
        <ele>981.84</ele>
        <time>2014-07-01T12:46:06Z</time>
      </trkpt>
      <trkpt lat="42.97794" lon="0.22455">
        <ele>982.84</ele>
        <time>2014-07-01T12:46:10Z</time>
      </trkpt>
      <trkpt lat="42.97798" lon="0.22459">
        <ele>983.14</ele>
        <time>2014-07-01T12:46:15Z</time>
      </trkpt>
      <trkpt lat="42.97803" lon="0.22463">
        <ele>983.44</ele>
        <time>2014-07-01T12:46:19Z</time>
      </trkpt>
      <trkpt lat="42.97808" lon="0.22467">
        <ele>984.19</ele>
        <time>2014-07-01T12:46:23Z</time>
      </trkpt>
      <trkpt lat="42.97811" lon="0.22471">
        <ele>984.01</ele>
        <time>2014-07-01T12:46:26Z</time>
      </trkpt>
      <trkpt lat="42.97816" lon="0.22475">
        <ele>982.68</ele>
        <time>2014-07-01T12:46:30Z</time>
      </trkpt>
      <trkpt lat="42.97819" lon="0.2248">
        <ele>981.64</ele>
        <time>2014-07-01T12:46:35Z</time>
      </trkpt>
      <trkpt lat="42.97822" lon="0.22487">
        <ele>980.74</ele>
        <time>2014-07-01T12:46:40Z</time>
      </trkpt>
      <trkpt lat="42.97826" lon="0.22491">
        <ele>982.37</ele>
        <time>2014-07-01T12:46:44Z</time>
      </trkpt>
      <trkpt lat="42.97829" lon="0.22496">
        <ele>981.61</ele>
        <time>2014-07-01T12:46:49Z</time>
      </trkpt>
      <trkpt lat="42.97834" lon="0.22498">
        <ele>981.66</ele>
        <time>2014-07-01T12:46:54Z</time>
      </trkpt>
      <trkpt lat="42.97839" lon="0.22498">
        <ele>980.9</ele>
        <time>2014-07-01T12:46:58Z</time>
      </trkpt>
      <trkpt lat="42.97845" lon="0.22497">
        <ele>981.85</ele>
        <time>2014-07-01T12:47:02Z</time>
      </trkpt>
      <trkpt lat="42.97849" lon="0.22496">
        <ele>983.19</ele>
        <time>2014-07-01T12:47:07Z</time>
      </trkpt>
      <trkpt lat="42.97854" lon="0.22493">
        <ele>981.11</ele>
        <time>2014-07-01T12:47:17Z</time>
      </trkpt>
      <trkpt lat="42.97856" lon="0.22487">
        <ele>977.91</ele>
        <time>2014-07-01T12:47:37Z</time>
      </trkpt>
      <trkpt lat="42.97856" lon="0.22481">
        <ele>974.91</ele>
        <time>2014-07-01T12:47:42Z</time>
      </trkpt>
      <trkpt lat="42.97855" lon="0.22475">
        <ele>973.3</ele>
        <time>2014-07-01T12:47:48Z</time>
      </trkpt>
      <trkpt lat="42.97854" lon="0.22469">
        <ele>972.26</ele>
        <time>2014-07-01T12:47:55Z</time>
      </trkpt>
      <trkpt lat="42.97852" lon="0.22463">
        <ele>969.15</ele>
        <time>2014-07-01T12:48:03Z</time>
      </trkpt>
      <trkpt lat="42.97852" lon="0.22456">
        <ele>968.4</ele>
        <time>2014-07-01T12:48:09Z</time>
      </trkpt>
      <trkpt lat="42.97854" lon="0.2245">
        <ele>966.81</ele>
        <time>2014-07-01T12:48:15Z</time>
      </trkpt>
      <trkpt lat="42.97858" lon="0.22446">
        <ele>966.85</ele>
        <time>2014-07-01T12:48:20Z</time>
      </trkpt>
      <trkpt lat="42.97862" lon="0.22442">
        <ele>966.5</ele>
        <time>2014-07-01T12:48:24Z</time>
      </trkpt>
      <trkpt lat="42.97866" lon="0.22438">
        <ele>966.84</ele>
        <time>2014-07-01T12:48:28Z</time>
      </trkpt>
      <trkpt lat="42.9787" lon="0.22434">
        <ele>966.44</ele>
        <time>2014-07-01T12:48:32Z</time>
      </trkpt>
      <trkpt lat="42.97872" lon="0.22428">
        <ele>964.5</ele>
        <time>2014-07-01T12:48:37Z</time>
      </trkpt>
      <trkpt lat="42.97874" lon="0.22422">
        <ele>963.69</ele>
        <time>2014-07-01T12:48:42Z</time>
      </trkpt>
      <trkpt lat="42.97877" lon="0.22417">
        <ele>962.84</ele>
        <time>2014-07-01T12:48:47Z</time>
      </trkpt>
      <trkpt lat="42.9788" lon="0.22411">
        <ele>962.41</ele>
        <time>2014-07-01T12:48:52Z</time>
      </trkpt>
      <trkpt lat="42.97883" lon="0.22406">
        <ele>961.94</ele>
        <time>2014-07-01T12:48:57Z</time>
      </trkpt>
      <trkpt lat="42.97885" lon="0.224">
        <ele>960.74</ele>
        <time>2014-07-01T12:49:02Z</time>
      </trkpt>
      <trkpt lat="42.97887" lon="0.22394">
        <ele>958</ele>
        <time>2014-07-01T12:49:08Z</time>
      </trkpt>
      <trkpt lat="42.97889" lon="0.22388">
        <ele>956.37</ele>
        <time>2014-07-01T12:49:13Z</time>
      </trkpt>
      <trkpt lat="42.97891" lon="0.22383">
        <ele>954.54</ele>
        <time>2014-07-01T12:49:18Z</time>
      </trkpt>
      <trkpt lat="42.97893" lon="0.22377">
        <ele>953.25</ele>
        <time>2014-07-01T12:49:24Z</time>
      </trkpt>
      <trkpt lat="42.97896" lon="0.22372">
        <ele>952.91</ele>
        <time>2014-07-01T12:49:29Z</time>
      </trkpt>
      <trkpt lat="42.97899" lon="0.22366">
        <ele>951.71</ele>
        <time>2014-07-01T12:49:34Z</time>
      </trkpt>
      <trkpt lat="42.979" lon="0.2236">
        <ele>949.84</ele>
        <time>2014-07-01T12:49:39Z</time>
      </trkpt>
      <trkpt lat="42.97899" lon="0.22353">
        <ele>947.4</ele>
        <time>2014-07-01T12:49:45Z</time>
      </trkpt>
      <trkpt lat="42.97898" lon="0.22346">
        <ele>944.93</ele>
        <time>2014-07-01T12:49:50Z</time>
      </trkpt>
      <trkpt lat="42.97901" lon="0.2234">
        <ele>944.44</ele>
        <time>2014-07-01T12:49:55Z</time>
      </trkpt>
      <trkpt lat="42.97904" lon="0.22336">
        <ele>943.52</ele>
        <time>2014-07-01T12:50:00Z</time>
      </trkpt>
      <trkpt lat="42.97906" lon="0.2233">
        <ele>942.03</ele>
        <time>2014-07-01T12:50:05Z</time>
      </trkpt>
      <trkpt lat="42.97907" lon="0.22324">
        <ele>941.82</ele>
        <time>2014-07-01T12:50:10Z</time>
      </trkpt>
      <trkpt lat="42.97909" lon="0.22318">
        <ele>940.53</ele>
        <time>2014-07-01T12:50:15Z</time>
      </trkpt>
      <trkpt lat="42.97912" lon="0.22312">
        <ele>941.26</ele>
        <time>2014-07-01T12:50:20Z</time>
      </trkpt>
      <trkpt lat="42.97913" lon="0.22306">
        <ele>939.7</ele>
        <time>2014-07-01T12:50:25Z</time>
      </trkpt>
      <trkpt lat="42.97914" lon="0.22299">
        <ele>938.72</ele>
        <time>2014-07-01T12:50:30Z</time>
      </trkpt>
      <trkpt lat="42.97917" lon="0.22294">
        <ele>938.36</ele>
        <time>2014-07-01T12:50:35Z</time>
      </trkpt>
      <trkpt lat="42.97921" lon="0.22288">
        <ele>938.1</ele>
        <time>2014-07-01T12:50:40Z</time>
      </trkpt>
      <trkpt lat="42.97921" lon="0.2228">
        <ele>937.81</ele>
        <time>2014-07-01T12:50:45Z</time>
      </trkpt>
      <trkpt lat="42.97921" lon="0.22271">
        <ele>936.34</ele>
        <time>2014-07-01T12:50:52Z</time>
      </trkpt>
      <trkpt lat="42.97927" lon="0.22267">
        <ele>934.23</ele>
        <time>2014-07-01T12:50:58Z</time>
      </trkpt>
      <trkpt lat="42.9793" lon="0.22263">
        <ele>934.67</ele>
        <time>2014-07-01T12:51:02Z</time>
      </trkpt>
      <trkpt lat="42.97932" lon="0.22257">
        <ele>935.1</ele>
        <time>2014-07-01T12:51:09Z</time>
      </trkpt>
      <trkpt lat="42.97932" lon="0.22249">
        <ele>935.34</ele>
        <time>2014-07-01T12:51:15Z</time>
      </trkpt>
      <trkpt lat="42.9793" lon="0.22244">
        <ele>933.61</ele>
        <time>2014-07-01T12:51:22Z</time>
      </trkpt>
      <trkpt lat="42.97931" lon="0.22238">
        <ele>933.87</ele>
        <time>2014-07-01T12:51:28Z</time>
      </trkpt>
      <trkpt lat="42.97935" lon="0.22233">
        <ele>933.1</ele>
        <time>2014-07-01T12:51:33Z</time>
      </trkpt>
      <trkpt lat="42.97938" lon="0.22226">
        <ele>931.88</ele>
        <time>2014-07-01T12:51:38Z</time>
      </trkpt>
      <trkpt lat="42.97939" lon="0.22219">
        <ele>931.21</ele>
        <time>2014-07-01T12:51:43Z</time>
      </trkpt>
      <trkpt lat="42.97941" lon="0.22214">
        <ele>929.89</ele>
        <time>2014-07-01T12:51:48Z</time>
      </trkpt>
      <trkpt lat="42.97945" lon="0.22207">
        <ele>930.27</ele>
        <time>2014-07-01T12:51:53Z</time>
      </trkpt>
      <trkpt lat="42.97949" lon="0.22202">
        <ele>930.28</ele>
        <time>2014-07-01T12:51:57Z</time>
      </trkpt>
      <trkpt lat="42.97951" lon="0.22196">
        <ele>929.86</ele>
        <time>2014-07-01T12:52:01Z</time>
      </trkpt>
      <trkpt lat="42.97956" lon="0.22193">
        <ele>930.32</ele>
        <time>2014-07-01T12:52:07Z</time>
      </trkpt>
      <trkpt lat="42.97961" lon="0.22193">
        <ele>929.95</ele>
        <time>2014-07-01T12:52:11Z</time>
      </trkpt>
      <trkpt lat="42.97965" lon="0.22196">
        <ele>928.07</ele>
        <time>2014-07-01T12:52:17Z</time>
      </trkpt>
      <trkpt lat="42.97969" lon="0.22197">
        <ele>927.29</ele>
        <time>2014-07-01T12:52:22Z</time>
      </trkpt>
      <trkpt lat="42.97975" lon="0.22197">
        <ele>926.69</ele>
        <time>2014-07-01T12:52:28Z</time>
      </trkpt>
      <trkpt lat="42.9798" lon="0.22198">
        <ele>925.8</ele>
        <time>2014-07-01T12:52:33Z</time>
      </trkpt>
      <trkpt lat="42.97986" lon="0.222">
        <ele>927.12</ele>
        <time>2014-07-01T12:52:38Z</time>
      </trkpt>
      <trkpt lat="42.97991" lon="0.22202">
        <ele>927.55</ele>
        <time>2014-07-01T12:52:43Z</time>
      </trkpt>
      <trkpt lat="42.97995" lon="0.22203">
        <ele>927.57</ele>
        <time>2014-07-01T12:52:47Z</time>
      </trkpt>
      <trkpt lat="42.98" lon="0.22205">
        <ele>927.23</ele>
        <time>2014-07-01T12:52:51Z</time>
      </trkpt>
      <trkpt lat="42.98004" lon="0.22204">
        <ele>925.67</ele>
        <time>2014-07-01T12:52:55Z</time>
      </trkpt>
      <trkpt lat="42.9801" lon="0.22206">
        <ele>925.82</ele>
        <time>2014-07-01T12:53:00Z</time>
      </trkpt>
      <trkpt lat="42.98015" lon="0.22207">
        <ele>925.75</ele>
        <time>2014-07-01T12:53:05Z</time>
      </trkpt>
      <trkpt lat="42.9802" lon="0.22207">
        <ele>925.86</ele>
        <time>2014-07-01T12:53:09Z</time>
      </trkpt>
      <trkpt lat="42.98025" lon="0.22208">
        <ele>926.49</ele>
        <time>2014-07-01T12:53:13Z</time>
      </trkpt>
      <trkpt lat="42.9803" lon="0.22209">
        <ele>926.51</ele>
        <time>2014-07-01T12:53:17Z</time>
      </trkpt>
      <trkpt lat="42.98035" lon="0.22209">
        <ele>926.8</ele>
        <time>2014-07-01T12:53:21Z</time>
      </trkpt>
      <trkpt lat="42.98041" lon="0.22209">
        <ele>927.43</ele>
        <time>2014-07-01T12:53:25Z</time>
      </trkpt>
      <trkpt lat="42.98046" lon="0.2221">
        <ele>928.03</ele>
        <time>2014-07-01T12:53:29Z</time>
      </trkpt>
      <trkpt lat="42.98051" lon="0.2221">
        <ele>928.6</ele>
        <time>2014-07-01T12:53:33Z</time>
      </trkpt>
      <trkpt lat="42.98055" lon="0.2221">
        <ele>927.97</ele>
        <time>2014-07-01T12:53:41Z</time>
      </trkpt>
      <trkpt lat="42.9806" lon="0.22208">
        <ele>926.65</ele>
        <time>2014-07-01T12:53:53Z</time>
      </trkpt>
      <trkpt lat="42.98064" lon="0.22207">
        <ele>925.78</ele>
        <time>2014-07-01T12:53:56Z</time>
      </trkpt>
      <trkpt lat="42.9807" lon="0.22207">
        <ele>925.37</ele>
        <time>2014-07-01T12:53:59Z</time>
      </trkpt>
      <trkpt lat="42.98074" lon="0.22205">
        <ele>923.87</ele>
        <time>2014-07-01T12:54:02Z</time>
      </trkpt>
      <trkpt lat="42.98079" lon="0.22203">
        <ele>923.1</ele>
        <time>2014-07-01T12:54:05Z</time>
      </trkpt>
      <trkpt lat="42.98085" lon="0.22203">
        <ele>923.78</ele>
        <time>2014-07-01T12:54:08Z</time>
      </trkpt>
      <trkpt lat="42.9809" lon="0.22202">
        <ele>923.03</ele>
        <time>2014-07-01T12:54:11Z</time>
      </trkpt>
      <trkpt lat="42.98095" lon="0.222">
        <ele>922.72</ele>
        <time>2014-07-01T12:54:15Z</time>
      </trkpt>
      <trkpt lat="42.981" lon="0.22201">
        <ele>924.31</ele>
        <time>2014-07-01T12:54:19Z</time>
      </trkpt>
      <trkpt lat="42.98106" lon="0.22199">
        <ele>926.15</ele>
        <time>2014-07-01T12:54:24Z</time>
      </trkpt>
      <trkpt lat="42.98111" lon="0.22196">
        <ele>927.15</ele>
        <time>2014-07-01T12:54:29Z</time>
      </trkpt>
      <trkpt lat="42.98116" lon="0.22195">
        <ele>928.84</ele>
        <time>2014-07-01T12:54:36Z</time>
      </trkpt>
      <trkpt lat="42.98121" lon="0.22195">
        <ele>928.64</ele>
        <time>2014-07-01T12:54:40Z</time>
      </trkpt>
      <trkpt lat="42.98127" lon="0.22196">
        <ele>929.23</ele>
        <time>2014-07-01T12:54:44Z</time>
      </trkpt>
      <trkpt lat="42.98131" lon="0.22198">
        <ele>930.15</ele>
        <time>2014-07-01T12:54:47Z</time>
      </trkpt>
      <trkpt lat="42.98136" lon="0.22201">
        <ele>930.19</ele>
        <time>2014-07-01T12:54:51Z</time>
      </trkpt>
      <trkpt lat="42.98141" lon="0.22201">
        <ele>930.86</ele>
        <time>2014-07-01T12:54:55Z</time>
      </trkpt>
      <trkpt lat="42.98147" lon="0.22203">
        <ele>931.11</ele>
        <time>2014-07-01T12:55:00Z</time>
      </trkpt>
      <trkpt lat="42.98152" lon="0.22204">
        <ele>930.41</ele>
        <time>2014-07-01T12:55:04Z</time>
      </trkpt>
      <trkpt lat="42.98156" lon="0.22207">
        <ele>930.48</ele>
        <time>2014-07-01T12:55:08Z</time>
      </trkpt>
      <trkpt lat="42.9816" lon="0.22212">
        <ele>929.43</ele>
        <time>2014-07-01T12:55:12Z</time>
      </trkpt>
      <trkpt lat="42.98164" lon="0.22217">
        <ele>928.2</ele>
        <time>2014-07-01T12:55:16Z</time>
      </trkpt>
      <trkpt lat="42.98167" lon="0.22222">
        <ele>926.04</ele>
        <time>2014-07-01T12:55:20Z</time>
      </trkpt>
      <trkpt lat="42.9817" lon="0.22228">
        <ele>925.35</ele>
        <time>2014-07-01T12:55:24Z</time>
      </trkpt>
      <trkpt lat="42.98172" lon="0.22233">
        <ele>926.12</ele>
        <time>2014-07-01T12:55:28Z</time>
      </trkpt>
      <trkpt lat="42.98177" lon="0.22235">
        <ele>927.15</ele>
        <time>2014-07-01T12:55:32Z</time>
      </trkpt>
      <trkpt lat="42.98182" lon="0.22235">
        <ele>930.79</ele>
        <time>2014-07-01T12:55:36Z</time>
      </trkpt>
      <trkpt lat="42.98187" lon="0.22239">
        <ele>932.98</ele>
        <time>2014-07-01T12:55:41Z</time>
      </trkpt>
      <trkpt lat="42.98191" lon="0.22242">
        <ele>934.03</ele>
        <time>2014-07-01T12:55:45Z</time>
      </trkpt>
      <trkpt lat="42.98196" lon="0.22243">
        <ele>934.31</ele>
        <time>2014-07-01T12:55:49Z</time>
      </trkpt>
      <trkpt lat="42.98202" lon="0.22246">
        <ele>934.38</ele>
        <time>2014-07-01T12:55:53Z</time>
      </trkpt>
      <trkpt lat="42.98205" lon="0.22251">
        <ele>934.11</ele>
        <time>2014-07-01T12:55:57Z</time>
      </trkpt>
      <trkpt lat="42.98208" lon="0.22257">
        <ele>934.83</ele>
        <time>2014-07-01T12:56:01Z</time>
      </trkpt>
      <trkpt lat="42.98212" lon="0.22262">
        <ele>935.62</ele>
        <time>2014-07-01T12:56:05Z</time>
      </trkpt>
      <trkpt lat="42.98215" lon="0.22266">
        <ele>935.68</ele>
        <time>2014-07-01T12:56:09Z</time>
      </trkpt>
      <trkpt lat="42.9822" lon="0.2227">
        <ele>933.19</ele>
        <time>2014-07-01T12:56:14Z</time>
      </trkpt>
      <trkpt lat="42.98224" lon="0.22273">
        <ele>931.48</ele>
        <time>2014-07-01T12:56:18Z</time>
      </trkpt>
      <trkpt lat="42.98229" lon="0.22276">
        <ele>930.98</ele>
        <time>2014-07-01T12:56:22Z</time>
      </trkpt>
      <trkpt lat="42.98232" lon="0.2228">
        <ele>932.06</ele>
        <time>2014-07-01T12:56:26Z</time>
      </trkpt>
      <trkpt lat="42.98236" lon="0.22284">
        <ele>931.88</ele>
        <time>2014-07-01T12:56:30Z</time>
      </trkpt>
      <trkpt lat="42.98239" lon="0.22289">
        <ele>930.34</ele>
        <time>2014-07-01T12:56:34Z</time>
      </trkpt>
      <trkpt lat="42.98243" lon="0.22294">
        <ele>926.32</ele>
        <time>2014-07-01T12:56:39Z</time>
      </trkpt>
      <trkpt lat="42.98247" lon="0.22296">
        <ele>922.24</ele>
        <time>2014-07-01T12:57:00Z</time>
      </trkpt>
      <trkpt lat="42.98251" lon="0.22292">
        <ele>917.95</ele>
        <time>2014-07-01T12:57:09Z</time>
      </trkpt>
      <trkpt lat="42.98255" lon="0.22291">
        <ele>917.04</ele>
        <time>2014-07-01T12:58:08Z</time>
      </trkpt>
    </trkseg>
  </trk>
</gpx>